[[{"header":{"parameterUnit":"m.s-1","parameterCategory":1,"la1":31.0,"la2":29.5877,"lo1":-88.7671,"lo2":-86.6584,"dy":0.0162,"dx":0.0185,"nx":115,"ny":88,"refTime":"2023-06-10T00:00:00:Z","depth":0,"parameterNumber":2,"parameterNumberName":"U-component_of_WINDS"},"data":[0.0,0.0,0.0,0.0,0.0,0.0,0.0,0.0,0.0,0.0,0.0,0.0,0.0,0.0,0.0,0.0,0.0,0.0,0.0,0.0,0.0,0.0,0.0,0.0,0.0,0.0,0.0,0.0,0.0,0.0,0.0,0.0,0.0,0.0,0.0,0.0,0.0,0.0,0.0,0.0,0.0,0.0,0.0,0.0,0.0,0.0,0.0,0.0,0.0,0.0,0.0,0.0,0.0,0.0,0.0,0.0,0.0,0.0,0.0,0.0,0.0,0.0,0.0,0.0,0.0,0.0,0.0,0.0,0.0,0.0,0.0,0.0,0.0,0.0,0.0,0.0,0.0,0.0,0.0,0.0,0.0,0.0,0.0,0.0,0.0,0.0,0.0,0.0,0.0,0.0,0.0,0.0,0.0,0.0,0.0,0.0,0.0,0.0,0.0,0.0,0.0,0.0,0.0,0.0,0.0,0.0,0.0,0.0,0.0,0.0,0.0,0.0,0.0,0.0,0.0,0.0,0.0,0.0,0.0,0.0,0.0,0.0,0.0,0.0,0.0,0.0,0.0,0.0,0.0,0.0,0.0,0.0,0.0,0.0,0.0,0.0,0.0,0.0,0.0,0.0,0.0,0.0,0.0,0.0,0.0,0.0,0.0,0.0,0.0,0.0,0.0,0.0,0.0,0.0,0.0,0.0,0.0,0.0,0.0,0.0,0.0,0.0,0.0,0.0,0.0,0.0,0.0,0.0,0.0,0.0,0.0,0.0,0.0,0.0,0.0,0.0,0.0,0.0,0.0,0.0,0.0,0.0,0.0,0.0,0.0,0.0,0.0,0.0,0.0,0.0,0.0,0.0,0.0,0.0,0.0,0.0,0.0,0.0,0.0,0.0,0.0,0.0,0.0,0.0,0.0,0.0,0.0,0.0,0.0,0.0,0.0,0.0,0.0,0.0,0.0,0.0,0.0,0.0,0.0,0.0,0.0,0.0,0.0,0.0,0.0,0.0,0.0,0.0,0.0,0.0,0.0,0.0,0.0,0.0,0.0,0.0,0.0,0.0,0.0,0.0,0.0,0.0,0.0,0.0,0.0,0.0,0.0,0.0,0.0,0.0,0.0,0.0,0.0,0.0,0.0,0.0,0.0,0.0,0.0,0.0,0.0,0.0,0.0,0.0,0.0,0.0,0.0,0.0,0.0,0.0,0.0,0.0,0.0,0.0,0.0,0.0,0.0,0.0,0.0,0.0,0.0,0.0,0.0,0.0,0.0,0.0,0.0,0.0,0.0,0.0,0.0,0.0,0.0,0.0,0.0,0.0,0.0,0.0,0.0,0.0,0.0,0.0,0.0,0.0,0.0,0.0,0.0,0.0,0.0,0.0,0.0,0.0,0.0,0.0,0.0,0.0,0.0,0.0,0.0,0.0,0.0,0.0,0.0,0.0,0.0,0.0,0.0,0.0,0.0,0.0,0.0,0.0,0.0,0.0,0.0,0.0,0.0,0.0,0.0,0.0,0.0,0.0,0.0,0.0,0.0,0.0,0.0,0.0,0.0,0.0,0.0,0.0,0.0,0.0,0.0,0.0,0.0,0.0,0.0,0.0,0.0,0.0,0.0,0.0,0.0,0.0,0.0,0.0,0.0,0.0,0.0,0.0,0.0,0.0,0.0,0.0,0.0,0.0,0.0,0.0,0.0,0.0,0.0,0.0,0.0,0.0,0.0,0.0,0.0,0.0,0.0,0.0,0.0,0.0,0.0,0.0,0.0,0.0,0.0,0.0,0.0,0.0,0.0,0.0,0.0,0.0,0.0,0.0,0.0,0.0,0.0,0.0,0.0,0.0,0.0,0.0,0.0,0.0,0.0,0.0,0.0,0.0,0.0,0.0,0.0,0.0,0.0,0.0,0.0,0.0,0.0,0.0,0.0,0.0,0.0,0.0,0.0,0.0,0.0,0.0,0.0,0.0,0.0,0.0,0.0,0.0,0.0,0.0,0.0,0.0,0.0,0.0,0.0,0.0,0.0,0.0,0.0,0.0,0.0,0.0,0.0,0.0,0.0,0.0,0.0,0.0,0.0,0.0,0.0,0.0,0.0,0.0,0.0,0.0,0.0,0.0,0.0,0.0,0.0,0.0,0.0,0.0,0.0,0.0,0.0,0.0,0.0,0.0,0.0,0.0,0.0,0.0,0.0,0.0,0.0,0.0,0.0,0.0,0.0,0.0,0.0,0.0,0.0,0.0,0.0,0.0,0.0,0.0,0.0,0.0,0.0,0.0,0.0,0.0,0.0,0.0,0.0,0.0,0.0,0.0,0.0,0.0,0.0,0.0,0.0,0.0,0.0,0.0,0.0,0.0,0.0,0.0,0.0,0.0,0.0,0.0,0.0,0.0,0.0,0.0,0.0,0.0,0.0,0.0,0.0,0.0,0.0,0.0,0.0,0.0,0.0,0.0,0.0,0.0,0.0,0.0,0.0,0.0,0.0,0.0,0.0,0.0,0.0,0.0,0.0,0.0,0.0,0.0,0.0,0.0,0.0,0.0,0.0,0.0,0.0,0.0,0.0,0.0,0.0,0.0,0.0,0.0,0.0,0.0,0.0,0.0,0.0,0.0,0.0,0.0,0.0,0.0,0.0,0.0,0.0,0.0,0.0,0.0,0.0,0.0,0.0,0.0,0.0,0.0,0.0,0.0,0.0,0.0,0.0,0.0,0.0,0.0,0.0,0.0,0.0,0.0,0.0,0.0,0.0,0.0,0.0,0.0,0.0,0.0,0.0,0.0,0.0,0.0,0.0,0.0,0.0,0.0,0.0,0.0,0.0,0.0,0.0,0.0,0.0,0.0,0.0,0.0,0.0,0.0,0.0,0.0,0.0,0.0,0.0,0.0,0.0,0.0,0.0,0.0,0.0,0.0,0.0,0.0,0.0,0.0,0.0,0.0,0.0,0.0,0.0,0.0,0.0,0.0,0.0,0.0,0.0,0.0,0.0,0.0,0.0,0.0,0.0,0.0,0.0,0.0,0.0,0.0,0.0,0.0,0.0,0.0,0.0,0.0,0.0,0.0,0.0,0.0,0.0,0.0,0.0,0.0,0.0,0.0,0.0,0.0,0.0,0.0,0.0,0.0,0.0,0.0,0.0,0.0,0.0,0.0,0.0,0.0,0.0,0.0,0.0,0.0,0.0,0.0,0.0,0.0,0.0,0.0,0.0,0.0,0.0,0.0,0.0,0.0,0.0,0.0,0.0,0.0,0.0,0.0,0.0,0.0,0.0,0.0,0.0,0.0,0.0,0.0,0.0,0.0,0.0,0.0,0.0,0.0,0.0,0.0,0.0,0.0,0.0,0.0,0.0,0.0,0.0,0.0,0.0,0.0,0.0,0.0,0.0,0.0,0.0,0.0,0.0,0.0,0.0,0.0,0.0,0.0,0.0,0.0,0.0,0.0,0.0,0.0,0.0,0.0,0.0,0.0,0.0,0.0,0.0,0.0,0.0,0.0,0.0,0.0,0.0,0.0,0.0,0.0,0.0,0.0,0.0,0.0,0.0,0.0,0.0,0.0,0.0,0.0,0.0,0.0,0.0,0.0,0.0,0.0,0.0,0.0,0.0,0.0,0.0,0.0,0.0,0.0,0.0,0.0,0.0,0.0,0.0,0.0,0.0,0.0,0.0,0.0,0.0,0.0,0.0,0.0,0.0,0.0,0.0,0.0,0.0,0.0,0.0,0.0,0.0,0.0,0.0,0.0,0.0,0.0,0.0,0.0,0.0,0.0,0.0,0.0,0.0,0.0,0.0,0.0,0.0,0.0,0.0,0.0,0.0,0.0,0.0,0.0,0.0,0.0,0.0,0.0,0.0,0.0,0.0,0.0,0.0,0.0,0.0,0.0,0.0,0.0,0.0,0.0,0.0,0.0,0.0,0.0,0.0,0.0,0.0,0.0,0.0,0.0,0.0,0.0,0.0,0.0,0.0,0.0,0.0,0.0,0.0,0.0,0.0,0.0,0.0,0.0,0.0,0.0,0.0,0.0,0.0,0.0,0.0,0.0,0.0,0.0,0.0,0.0,0.0,0.0,0.0,0.0,0.0,0.0,0.0,0.0,0.0,0.0,0.0,0.0,0.0,0.0,0.0,0.0,0.0,0.0,0.0,0.0,0.0,0.0,0.0,0.0,0.0,0.0,0.0,0.0,0.0,0.0,0.0,0.0,0.0,0.0,0.0,0.0,0.0,0.0,0.0,0.0,0.0,0.0,0.0,0.0,0.0,0.0,0.0,0.0,0.0,0.0,0.2735,0.0,0.0,0.0,0.0,0.0,0.0,0.0,0.0,0.0,0.0,0.0,0.0,0.0,0.0,0.0,0.0,0.0,0.0,0.0,0.0,0.0,0.0,0.0,0.0,0.0,0.0,0.0,0.0,0.0,0.0,0.0,0.0,0.0,0.0,0.0,0.0,0.0,0.0,0.0,0.0,0.0,0.0,0.0,0.0,0.0,0.0,0.0,0.0,0.0,0.0,0.0,0.0,0.0,0.0,0.0,0.0,0.0,0.0,0.0,0.0,0.0,0.0,0.0,0.0,0.0,0.0,0.0,0.0,0.0,0.0,0.0,0.0,0.0,0.0,0.0,0.0,0.0,0.0,0.0,0.0,0.0,0.0,0.0,0.0,0.0,0.0,0.0,0.0,0.0,0.0,0.0,0.0,0.0,0.0,0.0,0.0,0.0,0.0,0.0,0.0,0.0,0.0,0.0,0.0,0.0,0.0,0.0,0.0,0.0,0.0,0.3051,0.2875,0.2864,0.2721,0.2437,0.0,0.0,0.0,0.0,0.0,0.0,0.0,0.0,0.0,0.0,0.0,0.0,0.0,0.0,0.0,0.0,0.0,0.0,0.0,0.0,0.0,0.0,0.0,0.0,0.0,0.0,0.0,0.0,0.0,0.0,0.0,0.0,0.0,0.0,0.0,0.0,0.0,0.0,0.0,0.0,0.0,0.0,0.0,0.0,0.0,0.0,0.0,0.0,0.0,0.0,0.0,0.0,0.0,0.0,0.0,0.0,0.0,0.0,0.0,0.0,0.0,0.0,0.0,0.0,0.0,0.0,0.0,0.0,0.0,0.0,0.0,0.0,0.0,0.0,0.0,0.0,0.0,0.0,0.0,0.0,0.0,0.0,0.0,0.0,0.0,0.0,0.0,0.0,0.0,0.0,0.0,0.0,0.0,0.0,0.0,0.0,0.0,0.0,0.0,0.0,0.0,0.0,0.0,0.0,0.0,0.0,0.0,0.0,0.0,0.0,0.0,0.0,0.2448,0.2327,0.2151,0.0,0.0,0.0,0.0,0.0,0.0,0.0,0.0,0.0,0.0,0.0,0.0,0.0,0.0,0.0,0.0,0.0,0.0,0.0,0.0,0.0,0.0,0.0,0.0,0.0,0.0,0.0,0.0,0.0,0.0,0.0,0.0,0.0,0.0,0.0,0.0,0.0,0.0,0.0,0.0,0.0,0.0,0.0,0.0,0.0,0.0,0.0,0.0,0.0,0.0,0.0,0.0,0.0,0.0,0.0,0.0,0.0,0.0,0.0,0.0,0.0,0.0,0.0,0.0,0.0,0.0,0.0,0.0,0.0,0.0,0.0,0.0,0.0,0.0,0.0,0.0,0.0,0.0,0.0,0.0,0.0,0.0,0.0,0.0,0.0,0.0,0.0,0.0,0.0,0.0,0.0,0.0,0.0,0.0,0.0,0.0,0.0,0.0,0.0,0.0,0.0,0.0,0.0,0.0,0.0,0.0,0.0,0.0,0.0,0.0,0.2585,0.2262,0.2177,0.0,0.1621,0.0,0.0,0.0,0.0,0.0,0.0,0.0,0.0,0.0,0.0,0.0,0.0,0.0,0.0,0.0,0.0,0.0,0.0,0.0,0.0,0.0,0.0,0.0,0.0,0.0,0.0,0.0,0.0,0.0,0.0,0.0,0.0,0.0,0.0,0.0,0.0,0.0,0.0,0.0,0.0,0.0,0.0,0.0,0.0,0.0,0.0,0.0,0.0,0.0,0.0,0.0,0.0,0.0,0.0,0.0,0.0,0.0,0.0,0.0,0.0,0.0,0.0,0.0,0.0,0.0,0.0,0.0,0.0,0.0,0.0,0.0,0.0,0.0,0.0,0.0,0.0,0.0,0.0,0.0,0.0,0.0,0.0,0.0,0.0,0.0,0.0,0.0,0.0,0.0,0.0,0.0,0.0,0.0,0.0,0.0,0.0,0.0,0.0,0.0,0.0,0.0,0.0,0.0,0.0,0.0,0.0,0.0,0.0,0.0,0.0,0.2323,0.1952,0.1825,0.1618,0.0,0.0,0.0,0.0,0.0,0.0,0.0,0.0,0.0,0.0,0.0,0.0,0.0,0.0,0.0,0.0,0.0,0.0,0.0,0.0,0.0,0.0,0.0,0.0,0.0,0.0,0.0,0.0,0.0,0.0,0.0,0.0,0.0,0.0,0.0,0.0,0.0,0.0,0.0,0.0,0.0,0.0,0.0,0.0,0.0,0.0,0.0,0.0,0.0,0.0,0.0,0.0,0.0,0.0,0.0,0.0,0.0,0.0,0.0,0.0,0.0,0.0,0.0,0.0,0.0,0.0,0.0,0.0,0.0,0.0,0.0,0.0,0.0,0.0,0.0,0.0,0.0,0.0,0.0,0.0,0.0,0.0,0.0,0.0,0.0,0.0,0.0,0.0,0.0,0.0,0.0,0.0,0.0,0.0,0.0,0.0,0.0,0.0,0.0,0.0,0.0,0.0,0.0,0.0,0.0,0.0,0.0,0.0,0.0,0.0,0.2304,0.2132,0.1632,0.1515,0.1361,0.1233,0.0,0.0,0.0,0.0,0.0,0.0,0.0,0.0,0.0,0.0,0.0,0.0,0.0,0.0,0.0,0.0,0.0,0.0,0.0,0.0,0.0,0.0,0.0,0.0,0.0,0.0,0.0,0.0,0.0,0.0,0.0,0.0,0.0,0.0,0.0,0.0,0.0,0.0,0.0,0.0,0.0,0.0,0.0,0.0,0.0,0.0,0.0,0.0,0.0,0.0,0.0,0.0,0.0,0.0,0.0,0.0,0.0,0.0,0.0,0.0,0.0,0.0,0.0,0.0,0.0,0.0,0.0,0.0,0.0,0.0,0.0,0.0,0.0,0.0,0.0,0.0,0.0,0.0,0.0,0.0,0.0,0.0,0.0,0.0,0.0,0.0,0.0,0.0,0.0,0.0,0.0,0.0,0.0,0.0,0.0,0.0,0.0,0.0,0.0,0.0,0.0,0.0,0.0,0.0,0.0,0.0,0.0,0.0,0.1904,0.2242,0.1973,0.1165,0.1239,0.1308,0.0,0.0,0.0,0.0,0.0,0.0,0.0,0.0,0.0,0.0,0.0,0.0,0.0,0.0,0.0,0.0,0.0,0.0,0.0,0.0,0.0,0.0,0.0,0.0,0.0,0.0,0.0,0.0,0.0,0.0,0.0,0.0,0.0,0.0,0.0,0.0,0.0,0.0,0.0,0.0,0.0,0.0,0.0,0.0,0.0,0.0,0.0,0.0,0.0,0.0,0.0,0.0,0.0,0.0,0.0,0.0,0.0,0.0,0.0,0.0,0.0,0.0,0.0,0.0,0.0,0.0,0.0,0.0,0.0,0.0,0.0,0.0,0.0,0.0,0.0,0.0,0.0,0.0,0.0,0.0,0.0,0.0,0.0,0.0,0.0,0.0,0.0,0.0,0.0,0.0,0.0,0.0,0.0,0.0,0.0,0.0,0.0,0.0,0.0,0.0,0.0,0.0,0.0,0.0,0.0,0.0,0.0,0.0,0.0,0.164,0.1682,0.1447,0.0942,0.1078,0.1111,0.0,0.0,0.0,0.0,0.0,0.0,0.0,0.0,0.0,0.0,0.0,0.0,0.0,0.0,0.0,0.0,0.0,0.0,0.0,0.0,0.0,0.0,0.0,0.0,0.0,0.0,0.0,0.0,0.0,0.0,0.0,0.0,0.0,0.0,0.0,0.0,0.0,0.0,0.0,0.0,0.0,0.0,0.0,0.0,0.0,0.0,0.0,0.0,0.0,0.0,0.0,0.0,0.0,0.0,0.0,0.0,0.0,0.0,0.0,0.0,0.0,0.0,0.0,0.0,0.0,0.0,0.0,0.0,0.0,0.0,0.0,0.0,0.0,0.0,0.0,0.0,0.0,0.0,0.0,0.0,0.0,0.0,0.0,0.0,0.0,0.0,0.0,0.0,0.0,0.0,0.0,0.0,0.0,0.0,0.0,0.0,0.0,0.0,0.0,0.0,0.0,0.0,0.0,0.0,0.0,0.0,0.0,0.0,0.0,0.1274,0.0,0.1044,0.074,0.0908,0.0875,0.0,0.0,0.0,0.0,0.0,0.0,0.0,0.0,0.0,0.0,0.0,0.0,0.0,0.0,0.0,0.0,0.0,0.0,0.0,0.0,0.0,0.0,0.0,0.0,0.0,0.0,0.0,0.0,0.0,0.0,0.0,0.0,0.0,0.0,0.0,0.0,0.0,0.0,0.0,0.0,0.0,0.0,0.0,0.0,0.0,0.0,0.0,0.0,0.0,0.0,0.0,0.0,0.0,0.0,0.0,0.0,0.0,0.0,0.0,0.0,0.0,0.0,0.0,0.0,0.0,0.0,0.0,0.0,0.0,0.0,0.0,0.0,0.0,0.0,0.0,0.0,0.0,0.0,0.0,0.0,0.0,0.0,0.0,0.0,0.0,0.0,0.0,0.0,0.0,0.0,0.0,0.0,0.0,0.0,0.0,0.0,0.0,0.0,0.0,0.0,0.0,0.0,0.0,0.0,0.0,0.0,0.0,0.0,0.0978,0.0809,0.0876,0.0777,0.0538,0.0708,0.0708,0.0,0.0,0.0,0.0,0.0,0.0,0.0,0.0,0.0,0.0,0.0,0.0,0.0,0.0,0.0,0.0,0.0,0.0,0.0,0.0,0.0,0.0,0.0,0.0,0.0,0.0,0.0,0.0,0.0,0.0,0.0,0.0,0.0,0.0,0.0,0.0,0.0,0.0,0.0,0.0,0.0,0.0,0.0,0.0,0.0,0.0,0.0,0.0,0.0,0.0,0.0,0.0,0.0,0.0,0.0,0.0,0.0,0.0,0.0,0.0,0.0,0.0,0.0,0.0,0.0,0.0,0.0,0.0,0.0,0.0,0.0,0.0,0.0,0.0,0.0,0.0,0.0,0.0,0.0,0.0,0.0,0.0,0.0,0.0,0.0,0.0,0.0,0.0,0.0,0.0,0.0,0.0,0.0,0.0,0.0,0.0,0.0,0.0,0.0,0.0,0.0,0.0,0.0,0.0,0.0,0.0,0.0,0.0,0.0,0.0605,0.0747,0.0711,0.0498,0.0568,0.0455,0.0,0.0,0.0,0.0,0.0,0.0,0.0,0.0,0.0,0.0,0.0,0.0,0.0,0.0,0.0,0.0,0.0,0.0,0.0,0.0,0.0,0.0,0.0,0.0,0.0,0.0,0.0,0.0,0.0,0.0,0.0,0.0,0.0,0.0,0.0,0.0,0.0,0.0,0.0,0.0,0.0,0.0,0.0,0.0,0.0,0.0,0.0,0.0,0.0,0.0,0.0,0.0,0.0,0.0,0.0,0.0,0.0,0.0,0.0,0.0,0.0,0.0,0.0,0.0,0.0,0.0,0.0,0.0,0.0,0.0,0.0,0.0,0.0,0.0,0.0,0.0,0.0,0.0,0.0,0.0,0.0,0.0,0.0,0.0,0.0,0.0,0.0,0.0,0.0,0.0,0.0,0.0,0.0,0.0,0.0,0.0,0.0,0.0,0.0,0.0,0.0,0.0,0.0,0.0,0.0,0.0,0.0,0.0,0.0,-0.0,0.0285,0.0357,0.0277,0.0238,0.0076,-0.0174,0.0,0.0,0.0,0.0,0.0,0.0,0.0,0.0,0.0,0.0,0.0,0.0,0.0,0.0,0.0,0.0,0.0,0.0,0.0,0.0,0.0,0.0,0.0,0.0,0.0,0.0,0.0,0.0,0.0,0.0,0.0,0.0,0.0,0.0,0.0,0.0,0.0,0.0,0.0,0.0,0.0,0.0,0.0,0.0,0.0,0.0,0.0,0.0,0.0,0.0,0.0,0.0,0.0,0.0,0.0,0.0,0.0,0.0,0.0,0.0,0.0,0.0,0.0,0.0,0.0,0.0,0.0,0.0,0.0,0.0,0.0,0.0,0.0,0.0,0.0,0.0,0.0,0.0,0.0,0.0,0.0,0.0,0.0,0.0,0.0,0.0,0.0,0.0,0.0,0.0,0.0,0.0,0.0,0.0,0.0,0.0,0.0,0.0,0.0,0.0,0.0,0.0,0.0,0.0,0.0,0.0,0.0,0.0,-0.0912,-0.0489,-0.0277,-0.0183,-0.0273,-0.0427,0.0,0.0,0.0,0.0,0.0,0.0,0.0,0.0,0.0,0.0,0.0,0.0,0.0,0.0,0.0,0.0,0.0,0.0,0.0,0.0,0.0,0.0,0.0,0.0,0.0,0.0,0.0,0.0,0.0,0.0,0.0,0.0,0.0,0.0,0.0,0.0,0.0,0.0,0.0,0.0,0.0,0.0,0.0,0.0,0.0,0.0,0.0,0.0,0.0,0.0,0.0,0.0,0.0,0.0,0.0,0.0,0.0,0.0,0.0,0.0,0.0,0.0,0.0,0.0,0.0,0.0,0.0,0.0,0.0,0.0,0.0,0.0,0.0,0.0,0.0,0.0,0.0,0.0,0.0,0.0,0.0,0.0,0.0,0.0,0.0,0.0,0.0,0.0,0.0,0.0,0.0,0.0,0.0,0.0,0.0,0.0,0.0,0.0,0.0,0.0,0.0,0.0,0.0,0.0,0.0,0.0,0.0,0.0,0.0,-0.1185,-0.1305,-0.134,-0.1221,-0.0999,-0.0969,0.0,0.0,0.0,0.0,0.0,0.0,0.0,0.0,0.0,0.0,0.0,0.0,0.0,0.0,0.0,0.0,0.0,0.0,0.0,0.0,0.0,0.0,0.0,0.0,0.0,0.0,0.0,0.0,0.0,0.0,0.0,0.0,0.0,0.0,0.0,0.0,0.0,0.0,0.0,0.0,0.0,0.0,0.0,0.0,0.0,0.0,0.0,0.0,0.0,0.0,0.0,0.0,0.0,0.0,0.0,0.0,0.0,0.0,0.0,0.0,0.0,0.0,0.0,0.0,0.0,0.0,0.0,0.0,0.0,0.0,0.0,0.0,0.0,0.0,0.0,0.0,0.0,0.0,0.0,0.0,0.0,0.0,0.0,0.0,0.0,0.0,0.0,0.0,0.0,0.0,0.0,0.0,0.0,0.0,0.0,0.0,0.0,0.0,0.0,0.0,0.0,0.0,0.0,0.0,0.0,0.0,0.0,0.0,-0.126,-0.1525,-0.1725,-0.189,-0.1849,-0.154,-0.1364,0.0,0.0,0.0,0.0,0.0,0.0,0.0,0.0,0.0,0.0,0.0,0.0,0.0,0.0,0.0,0.0,0.0,0.0,0.0,0.0,0.0,0.0,0.0,0.0,0.0,0.0,0.0,0.0,0.0,0.0,0.0,0.0,0.0,0.0,0.0,0.0,0.0,0.0,0.0,0.0,0.0,0.0,0.0,0.0,0.0,0.0,0.0,0.0,0.0,0.0,0.0,0.0,0.0,0.0,0.0,0.0,0.0,0.0,0.0,0.0,0.0,0.0,0.0,0.0,0.0,0.0,0.0,0.0,0.0,0.0,0.0,0.0,0.0,0.0,0.0,0.0,0.0,0.0,0.0,0.0,0.0,0.0,0.0,0.0,0.0,0.0,0.0,0.0,0.0,0.0,0.0,0.0,0.0,0.0,0.0,0.0,0.0,0.0,0.0,0.0,0.0,0.0,0.0,0.0,0.0,0.0,0.0,0.0,-0.1502,-0.1832,-0.1974,-0.2125,-0.2194,-0.1989,-0.1709,0.0,0.0,0.0,0.0,0.0,0.0,0.0,0.0,0.0,0.0,0.0,0.0,0.0,0.0,0.0,0.0,0.0,0.0,0.0,0.0,0.0,0.0,0.0,0.0,0.0,0.0,0.0,0.0,0.0,0.0,0.0,0.0,0.0,0.0,0.0,0.0,0.0,0.0,0.0,0.0,0.0,0.0,0.0,0.0,0.0,0.0,0.0,0.0,0.0,0.0,0.0,0.0,0.0,0.0,0.0,0.0,0.0,0.0,0.0,0.0,0.0,0.0,0.0,0.0,0.0,0.0,0.0,0.0,0.0,0.0,0.0,0.0,0.0,0.0,0.0,0.0,0.0,0.0,0.0,0.0,0.0,0.0,0.0,0.0,0.0,0.0,0.0,0.0,0.0,0.0,0.0,0.0,0.0,0.0,0.0,0.0,0.0,0.0,0.0,0.0,0.0,0.0,0.0,0.0,0.0,0.0,0.0,0.0,-0.193,-0.2235,-0.2486,-0.2636,-0.2588,-0.2189,-0.1954,0.0,0.0,0.0,0.0,0.0,0.0,0.0,0.0,0.0,0.0,0.0,0.0,0.0,0.0,0.0,0.0,0.0,0.0,0.0,0.0,0.0,0.0,0.0,0.0,0.0,0.0,0.0,0.0,0.0,0.0,0.0,0.0,0.0,0.0,0.0,0.0,0.0,0.0,0.0,0.0,0.0,0.0,0.0,0.0,0.0,0.0,0.0,0.0,0.143,0.0,0.0,0.0,0.0,0.0,0.0,0.0,0.0,0.0,0.0,0.0,0.0,0.0,0.0,0.0,0.0,0.0,0.0,0.0,0.0,0.0,0.0,0.0,0.0,0.0,0.0,0.0,0.0,0.0,0.0,0.0,0.0,0.0,0.0,0.0,0.0,0.0,0.0,0.0,0.0,0.0,0.0,0.0,0.0,0.0,0.0,0.0,0.0,0.0,0.0,0.0,0.0,0.0,0.0,0.0,0.0,0.0,0.0,0.0,-0.214,-0.2466,-0.2704,-0.2755,-0.2691,-0.2488,-0.2276,0.0,0.0,0.0,0.0,0.0,0.0,0.0,0.0,0.0,0.0,0.0,0.0,0.0,0.0,0.0,0.0,0.0,0.0,0.0,0.0,0.0,0.0,0.0,0.0,0.0,0.0,0.0,0.0,0.0,0.0,0.0,0.0,0.0,0.0,0.0,0.0,0.0,0.0,0.0,0.0,0.0,0.0,0.0,0.0,0.0,0.0,0.0,0.0,0.0,0.0,0.0,0.0,0.0,0.0,0.0,0.0,0.0,0.0,0.0,0.0,0.0,0.0,0.0,0.0,0.0,0.0,0.0,0.0,0.0,0.0,0.0,0.0,0.0,0.0,0.0,0.0,0.0,0.0,0.0,0.0,0.0,0.0,0.0,0.0,0.0,0.0,0.0,0.0,0.0,0.0,0.0,0.0,0.0,0.0,0.0,0.0,0.0,0.0,0.0,0.0,0.0,0.0,0.0,0.0,0.0,0.0,0.0,-0.1935,-0.225,-0.2604,-0.2725,-0.2758,-0.2707,-0.2688,-0.2495,-0.2108,0.0,0.0,0.0,0.0,0.0,0.0,0.0,0.0,0.0,0.0,0.0,0.0,0.0,0.0,0.0,0.0,0.0,0.0,0.0,0.0,0.0,0.0,0.0,0.0,0.0,0.0,0.0,0.0,0.0,0.0,0.0,0.0,0.0,0.0,0.0,0.0,0.0,0.0,0.0865,0.0534,0.0,0.0,0.0,0.0,0.0,0.0,0.0,0.0,-0.0,0.0,0.0,0.0,0.0,0.0,0.0,0.0,0.0,0.0,0.0,0.0,0.0,0.0,0.0,0.0,0.0,0.0,0.0,0.0,0.0,0.0,0.0,0.0,0.0,0.0,0.0,0.0,0.0,0.0,0.0,0.0,0.0,0.0,0.0,0.0,0.0,0.0,0.0,0.0,0.0,0.0,0.0,0.0,0.0,0.0,0.0,0.0,0.0,0.0,0.0,0.0,0.0,0.0,0.0,0.0,0.0,-0.2015,-0.2207,-0.2426,-0.267,-0.2747,-0.2778,-0.2766,-0.2669,-0.2489,-0.2226,0.0,0.0,0.0,0.0,0.0,0.0,0.0,0.0,0.0,0.0,0.0,0.0,0.0,0.0,0.0,0.0,0.0,0.0,0.0,0.0,0.0,0.0,0.0,0.0,0.0,0.0,0.0,0.0,0.0,0.0,0.0,0.0,0.0,0.0,0.0,0.0,0.0,0.0,0.0,-0.0715,-0.0403,0.0,0.0,0.0,0.0,0.0,0.0,0.0,0.0,-0.1532,0.0,0.0,0.0,0.0,0.0,0.0,0.0,0.0,0.0,0.0,0.0,0.0,0.0,0.0,0.0,0.0,0.0,0.0,0.0,0.0,0.0,0.0,0.0,0.0,0.0,0.0,0.0,0.0,0.0,0.0,0.0,0.0,0.0,0.0,0.0,0.0,0.0,0.0,0.0,0.0,0.0,0.0,0.0,0.0,0.0,0.0,0.0,0.0,0.0,0.0,0.0,0.0,0.0,0.0,0.0,-0.2172,-0.2317,-0.2527,-0.2732,-0.2798,-0.2815,-0.2782,-0.2695,-0.2522,0.0,0.0,0.0,0.0,0.0,0.0,0.0,0.0,0.0,0.0,0.0,0.0,0.0,0.0,0.0,0.0,0.0,0.0,0.0,0.0,0.0,0.0,0.0,0.0,0.0,0.0,0.0,0.0,0.0,0.0,0.0,0.0,0.0,0.0,0.0,0.0,0.0,0.0,0.0,0.0,-0.1825,-0.1864,-0.2202,0.0,0.0,0.0,0.0,0.0,0.0,-0.2871,-0.2361,0.0,0.0,0.0,0.0,0.0,0.0,0.0,0.0,0.0,0.0,0.0,0.0,0.0,0.0,0.0,0.0,0.0,0.0,0.0,0.0,0.0,0.0,0.0,0.0,0.0,0.0,0.0,0.0,0.0,0.0,0.0,0.0,0.0,0.0,0.0,0.0,0.0,0.0,0.0,0.0,0.0,0.0,0.0,0.0,0.0,0.0,0.0,0.0,0.0,0.0,0.0,0.0,0.0,0.0,0.0,-0.2273,-0.2432,-0.2635,-0.2811,-0.2865,-0.2873,-0.2837,-0.273,-0.255,0.0,0.0,0.0,0.0,0.0,0.0,0.0,0.0,0.0,0.0,0.0,0.0,0.0,0.0,0.0,0.0,0.0,0.0,0.0,0.0,0.0,0.0,0.0,0.0,0.0,0.0,0.0,0.0,0.0,0.0,0.0,0.0,0.0,0.0,0.0,0.0,0.0,0.0,0.0,0.0,0.0,-0.3164,-0.3509,-0.3335,0.0,0.0,0.0,0.0,-0.3773,-0.3597,0.0,0.0,0.0,0.0,0.0,0.0,0.0,0.0,0.0,0.0,0.0,0.0,0.0,0.0,0.0,0.0,0.0,0.0,0.0,0.0,0.0,0.0,0.0,0.0,0.0,0.0,0.0,0.0,0.0,0.0,0.0,0.0,0.0,0.0,0.0,0.0,0.0,0.0,0.0,0.0,0.0,0.0,0.0,0.0,0.0,0.0,0.0,0.0,0.0,0.0,0.0,0.0,0.0,0.0,0.0,0.0,-0.2386,-0.2575,-0.2759,-0.2926,-0.2946,-0.297,-0.3108,-0.2755,-0.2545,0.0,0.0,0.0,0.0,0.0,0.0,0.0,0.0,0.0,0.0,0.0,0.0,0.0,0.0,0.0,0.0,0.0,0.0,0.0,0.0,0.0,0.0,0.0,0.0,0.0,0.0,0.0,0.0,0.0,0.0,0.0,0.0,0.0,0.0,0.0,0.0,0.0,0.0,0.0,0.0,0.0,-0.3287,-0.406,-0.4147,-0.3998,0.0,0.0,-0.5075,-0.4607,-0.4857,0.0,0.0,0.0,0.0,0.0,0.0,0.0,0.0,0.0,0.0,0.0,0.0,0.0,0.0,0.0,0.0,0.0,0.0,0.0,0.0,0.0,0.0,0.0,0.0,0.0,0.0,0.0,0.0,0.0,0.0,0.0,0.0,0.0,0.0,0.0,0.0,0.0,0.0,0.0,0.0,0.0,0.0,0.0,0.0,0.0,0.0,0.0,0.0,0.0,0.0,0.0,0.0,0.0,0.0,0.0,-0.2267,-0.2471,-0.2717,-0.2898,-0.3098,-0.301,-0.3022,-0.3048,-0.2879,-0.266,0.0,0.0,0.0,0.0,0.0,0.0,0.0,0.0,0.0,0.0,0.0,0.0,0.0,0.0,0.0,0.0,0.0,0.0,0.0,0.0,0.0,0.0,0.0,0.0,0.0,0.0,0.0,0.0,0.0,0.0,0.0,0.0,0.0,0.0,0.0,0.0,0.0,0.0,0.0,0.0,0.0,0.0,-0.4708,-0.491,0.0,0.0,0.0,-0.5767,-0.5274,0.0,0.0,0.0,0.0,0.0,0.0,0.0,0.0,0.0,0.0,0.0,0.0,0.0,0.0,0.0,0.0,0.0,0.0,0.0,0.0,0.0,0.0,0.0,0.0,0.0,0.0,0.0,0.0,0.0,0.0,0.0,0.0,0.0,0.0,0.0,0.0,0.0,0.0,0.0,0.0,0.0,0.0,0.0,0.0,0.0,0.0,0.0,0.0,0.0,0.0,0.0,0.0,0.0,0.0,0.0,0.0,0.0,-0.2557,-0.2852,-0.3033,-0.3093,-0.3094,-0.3094,-0.3091,-0.3057,0.0,0.0,0.0,0.0,0.0,0.0,0.0,0.0,0.0,0.0,0.0,0.0,0.0,0.0,0.0,0.0,0.0,0.0,0.0,0.0,0.0,0.0,0.0,0.0,0.0,0.0,0.0,-0.3996,0.0,0.0,0.0,0.0,0.0,0.0,0.0,0.0,0.0,0.0,0.0,0.0,0.0,0.0,-0.4862,-0.5415,-0.5718,-0.5909,0.0,0.0,-0.6241,-0.6043,-0.6401,-0.6452,0.0,0.0,0.0,0.0,0.0,0.0,0.0,0.0,0.0,0.0,0.0,0.0,0.0,0.0,0.0,0.0,0.0,0.0,0.0,0.0,0.0,0.0,0.0,0.0,0.0,0.0,0.0,0.0,0.0,0.0,0.0,0.0,0.0,0.0,0.0,0.0,0.0,0.0,0.0,0.0,0.0,0.0,0.0,0.0,0.0,0.0,0.0,0.0,0.0,0.0,0.0,0.0,0.0,0.0,-0.2497,-0.2683,-0.2976,-0.3157,-0.3215,-0.3218,-0.3218,-0.3215,-0.3133,-0.3098,0.0,0.0,0.0,0.0,0.0,0.0,0.0,0.0,0.0,0.0,0.0,0.0,0.0,0.0,0.0,0.0,0.0,0.0,0.0,0.0,0.0,0.0,0.0,0.0,0.0,0.0,0.0,0.0,0.0,0.0,0.0,0.0,0.0,0.0,0.0,0.0,0.0,0.0,0.0,0.0,0.0,-0.5345,-0.6013,-0.6247,-0.6428,0.0,-0.6727,-0.6737,-0.6992,-0.7254,-0.7262,-0.6437,0.0,0.0,0.0,0.0,0.0,0.0,0.0,0.0,0.0,0.0,0.0,0.0,0.0,0.0,0.0,0.0,0.0,0.0,0.0,0.0,0.0,0.0,0.0,0.0,0.0,0.0,0.0,0.0,0.0,0.0,0.0,0.0,0.0,0.0,0.0,0.0,0.0,0.0,0.0,0.0,0.0,0.0,0.0,0.0,0.0,0.0,0.0,0.0,0.0,0.0,0.0,0.0,0.0,-0.2565,-0.2749,-0.3042,-0.3225,-0.3283,-0.3184,-0.3201,-0.3341,-0.3699,-0.3765,0.0,0.0,0.0,0.0,0.0,0.0,0.0,0.0,0.0,0.0,0.0,0.0,0.0,0.0,0.0,0.0,0.0,0.0,0.0,0.0,0.0,0.0,0.0,0.0,0.0,0.0,0.0,0.0,-0.6156,-0.5538,-0.5372,0.0,0.0,0.0,0.0,0.0,0.0,0.0,0.0,0.0,0.0,-0.5885,-0.6502,-0.6843,0.0,0.0,-0.7222,-0.7252,-0.7272,-0.7417,-0.7319,-0.682,-0.6267,0.0,0.0,0.0,0.0,0.0,0.0,0.0,0.0,0.0,0.0,0.0,0.0,0.0,0.0,0.0,0.0,0.0,0.0,0.0,0.0,0.0,0.0,0.0,0.0,0.0,0.0,0.0,0.0,0.0,0.0,0.0,0.0,0.0,0.0,0.0,0.0,0.0,0.0,0.0,0.0,0.0,0.0,0.0,0.0,0.0,0.0,0.0,0.0,0.0,0.0,0.0,0.0,-0.2608,-0.2896,-0.3105,-0.3286,-0.3347,-0.3243,-0.3368,-0.3514,-0.4055,-0.427,0.0,0.0,0.0,0.0,0.0,0.0,0.0,0.0,0.0,0.0,0.0,0.0,0.0,0.0,0.0,0.0,0.0,0.0,0.0,0.0,0.0,0.0,0.0,0.0,0.0,0.0,0.0,0.0,-0.707,-0.6149,-0.5656,0.0,0.0,0.0,0.0,0.0,0.0,0.0,0.0,0.0,0.0,-0.6454,-0.7021,-0.7278,-0.7552,-0.7556,-0.7608,-0.7625,-0.7563,-0.7517,-0.741,-0.7118,0.0,0.0,0.0,0.0,0.0,0.0,0.0,0.0,0.0,0.0,0.0,0.0,0.0,0.0,0.0,0.0,0.0,0.0,0.0,0.0,0.0,0.0,0.0,0.0,0.0,0.0,0.0,-0.1808,0.0,0.0,-0.1809,0.0,0.0,0.0,0.0,0.0,0.0,0.0,0.0,0.0,0.0,0.0,0.0,0.0,0.0,0.0,0.0,0.0,0.0,0.0,0.0,0.0,0.0,-0.2713,-0.3133,-0.3265,-0.3349,-0.3409,-0.3412,-0.3517,-0.3837,-0.4259,-0.4667,-0.5189,0.0,0.0,0.0,0.0,0.0,0.0,0.0,0.0,0.0,0.0,0.0,0.0,0.0,0.0,0.0,0.0,0.0,0.0,0.0,0.0,0.0,0.0,0.0,0.0,0.0,0.0,-0.7591,-0.7579,-0.7134,0.0,0.0,0.0,0.0,0.0,0.0,0.0,0.0,0.0,-0.5922,-0.6508,-0.7051,-0.7418,-0.7635,-0.7825,-0.8113,-0.7975,-0.7834,-0.7993,-0.7875,-0.768,0.0,0.0,0.0,0.0,0.0,0.0,0.0,0.0,0.0,0.0,0.0,0.0,0.0,0.0,0.0,0.0,0.0,0.0,0.0,0.0,0.0,0.0,0.0,0.0,0.0,0.0,0.0,-0.2025,-0.2271,0.0,0.0,0.0,0.0,0.0,0.0,0.0,0.0,0.0,0.0,0.0,-0.2865,-0.2827,0.0,0.0,0.0,0.0,0.0,0.0,0.0,0.0,0.0,0.0,0.0,0.0,-0.3238,-0.3482,-0.383,-0.4047,-0.401,-0.3682,-0.3811,-0.4515,-0.5288,-0.5803,-0.6106,0.0,0.0,0.0,0.0,0.0,0.0,0.0,0.0,0.0,0.0,0.0,0.0,0.0,0.0,0.0,0.0,0.0,0.0,0.0,0.0,0.0,0.0,0.0,0.0,0.0,-0.8189,0.0,0.0,0.0,0.0,0.0,0.0,0.0,0.0,0.0,0.0,0.0,-0.6813,-0.6986,-0.7371,-0.7627,-0.7998,-0.8061,-0.8444,0.0,0.0,0.0,0.0,0.0,0.0,0.0,0.0,0.0,0.0,0.0,0.0,0.0,0.0,-0.907,-0.8084,-0.8349,-0.8762,-0.8974,0.0,0.0,0.0,0.0,0.0,0.0,0.0,0.0,0.0,0.0,0.0,0.0,0.0,0.0,-0.2394,0.0,-0.2606,0.0,0.0,0.0,0.0,0.0,0.0,0.0,0.0,-0.3025,-0.3121,-0.3174,-0.3135,-0.3116,0.0,-0.3037,-0.2935,0.0,0.0,0.0,0.0,0.0,0.0,0.0,0.0,-0.3875,-0.4156,-0.4635,-0.4889,-0.4886,-0.4218,-0.4362,-0.569,-0.6606,-0.7133,-0.7446,-0.7805,-0.7907,0.0,0.0,0.0,0.0,0.0,0.0,0.0,0.0,0.0,0.0,0.0,0.0,0.0,0.0,0.0,0.0,0.0,0.0,0.0,0.0,0.0,0.0,0.0,-0.9792,0.0,0.0,0.0,0.0,0.0,0.0,0.0,0.0,0.0,-0.7281,-0.7765,-0.8305,-0.8352,-0.8663,-0.8806,-0.8733,0.0,0.0,0.0,0.0,0.0,0.0,0.0,-0.9103,-0.9152,-0.9424,-0.9745,-0.9881,-1.0412,-1.0939,-1.1546,0.0,0.0,-1.0157,-1.0315,-1.0668,-1.081,-1.0767,-1.0787,-1.0701,-1.0721,-1.0724,0.0,0.0,0.0,0.0,0.0,0.0,0.0,0.0,-0.2588,-0.2676,0.0,-0.292,0.0,0.0,0.0,0.0,-0.2632,-0.2856,0.0,0.0,-0.3353,-0.3467,-0.3417,-0.3414,-0.3417,-0.341,-0.3399,-0.3509,-0.4015,-0.3282,0.0,0.0,0.0,0.0,0.0,0.0,-0.4624,-0.5099,-0.5593,-0.5883,-0.6061,-0.5152,-0.5537,-0.7153,-0.809,-0.8654,-0.8823,-0.9179,-0.9484,-0.9715,-0.8979,0.0,0.0,0.0,0.0,0.0,0.0,0.0,0.0,0.0,0.0,0.0,0.0,0.0,0.0,0.0,0.0,0.0,0.0,0.0,0.0,-1.079,0.0,0.0,0.0,0.0,0.0,0.0,0.0,0.0,0.0,0.0,-0.8968,-0.9513,-1.0001,-0.9996,0.0,0.0,0.0,0.0,-1.112,-1.0539,-1.0404,-1.0348,-1.0224,-1.0636,-1.0906,-1.0784,0.0,0.0,-1.2377,-1.2551,-1.271,-1.2734,-1.3664,-1.3819,-1.1935,-1.1754,-1.1822,-1.1817,-1.2021,-1.2086,-1.2064,-1.2306,-1.247,0.0883,0.0,0.0,0.0,0.0,-0.1906,-0.2294,-0.291,-0.2925,-0.297,-0.3232,-0.3221,0.0,0.0,0.0,0.0,0.0,0.0,-0.3209,-0.3312,-0.3439,-0.3621,-0.3869,-0.4088,-0.4309,-0.4416,-0.47,-0.4882,-0.496,-0.4974,-0.4598,-0.3974,0.0,0.0,0.0,0.0,-0.5646,-0.6318,-0.6663,-0.6927,-0.6989,-0.7182,-0.7588,-0.8451,-0.8681,-0.8826,-0.8758,-0.9116,-0.9366,-0.9532,-0.9296,0.0,0.0,0.0,0.0,0.0,0.0,0.0,0.0,0.0,0.0,0.0,0.0,0.0,0.0,0.0,0.0,0.0,0.0,0.0,-1.1387,-1.2227,-1.2128,0.0,0.0,0.0,0.0,0.0,0.0,0.0,0.0,0.0,-1.1796,-1.101,-1.0409,0.0,0.0,-1.0582,-1.0338,-1.1111,-1.2003,-1.2604,-1.2177,0.0,-1.2792,-1.245,-1.2101,-1.23,-1.2662,-1.3214,-1.3882,-1.3984,-1.4283,-1.5035,-1.5493,-1.5646,-1.5257,-1.4718,-1.4416,-1.4344,-1.4294,-1.4323,-1.4442,-1.4545,-1.4661,0.0608,0.0568,-0.0266,-0.1241,-0.2217,-0.2404,-0.2824,-0.3265,-0.3265,-0.3295,-0.3446,-0.3432,-0.3347,-0.3207,-0.311,0.0,0.0,0.0,-0.3577,-0.3701,-0.3957,-0.4216,-0.4369,-0.4702,-0.5039,-0.5264,-0.5485,-0.5708,-0.5929,-0.6003,-0.5898,-0.5494,0.0,0.0,-0.5748,-0.614,-0.6651,-0.7287,-0.7695,-0.7952,-0.8174,-0.8892,-0.9412,-0.9593,-0.9877,-1.004,-1.0049,-1.0266,-1.0496,-1.0759,-1.0514,-1.0347,0.0,0.0,0.0,0.0,0.0,0.0,0.0,0.0,0.0,0.0,0.0,-0.9433,-0.9339,0.0,0.0,0.0,-1.1472,-1.2099,-1.2939,-1.317,0.0,0.0,0.0,0.0,0.0,0.0,0.0,-1.0852,-1.2231,-1.3325,-1.3521,-1.2637,-1.1957,-1.2081,-1.2099,-1.2077,-1.1754,0.0,-1.3312,-1.3806,-1.336,-1.332,-1.3969,-1.386,-1.3912,-1.436,-1.4527,-1.4803,-1.5416,-1.5417,-1.5713,-1.6299,-1.653,-1.6749,-1.6849,-1.6456,-1.6087,-1.589,-1.5747,-1.5797,-1.5788,-1.5912,-1.6,-0.0112,-0.0222,-0.0097,-0.105,-0.2644,-0.2851,-0.3171,-0.3585,-0.3586,-0.3556,-0.351,-0.3563,-0.3496,-0.3339,-0.3387,0.0,-0.3532,-0.3849,-0.4024,-0.4148,-0.4706,-0.4929,-0.5041,-0.5262,-0.5594,-0.5933,-0.5933,-0.6267,-0.671,-0.6717,-0.6827,-0.7249,-0.67,-0.6524,-0.6902,-0.7021,-0.7482,-0.7967,-0.8562,-0.8961,-0.937,-1.035,-1.0718,-1.0706,-1.1435,-1.1836,-1.2077,-1.2051,-1.2297,-1.2758,-1.2205,-1.2001,-1.2139,0.0,0.0,0.0,0.0,0.0,0.0,0.0,0.0,0.0,0.0,0.0,0.0,0.0,0.0,0.0,-1.3338,0.0,-1.431,-1.3912,0.0,0.0,0.0,-1.2319,-1.2348,-1.2338,-1.2444,-1.3051,0.0,0.0,-1.4388,-1.4252,-1.4288,-1.4485,-1.4497,-1.4188,-1.3522,-1.4366,-1.4962,-1.4314,-1.4431,-1.4431,-1.446,-1.4965,-1.5673,-1.6323,-1.6643,-1.6617,-1.6605,-1.6605,-1.6717,-1.673,-1.6961,-1.7173,-1.7285,-1.7153,-1.7088,-1.6497,-1.6539,-1.6641,-1.6418,-1.652,-1.6714,-0.1121,-0.2798,-0.3688,-0.3239,-0.208,-0.3064,-0.3534,-0.3586,-0.3587,-0.3579,-0.3567,-0.358,-0.3785,-0.4181,-0.4383,-0.4614,-0.4977,-0.4977,-0.5111,-0.5037,-0.5262,-0.5373,-0.5599,-0.5931,-0.6265,-0.6492,-0.6712,-0.7046,-0.7382,-0.7572,-0.7868,-0.816,-0.792,-0.7722,-0.7664,-0.7715,-0.8046,-0.8659,-0.9395,-0.9928,-1.0474,-1.0649,-1.0528,-1.0016,-1.1129,-1.1535,-1.0977,-1.1657,-1.2201,-1.2655,-1.2822,-1.3011,-1.342,-1.2265,0.0,0.0,0.0,0.0,0.0,0.0,0.0,0.0,0.0,-1.1152,-1.1449,0.0,-1.3297,0.0,-1.4493,-1.498,-1.4648,-1.4684,0.0,0.0,-1.3596,-1.3496,-1.3367,-1.3782,-1.4039,-1.3759,-1.4441,-1.4987,-1.4921,-1.5239,-1.5548,-1.5755,-1.4987,-1.4459,-1.4433,-1.5172,-1.5785,-1.575,-1.5856,-1.6122,-1.5994,-1.6223,-1.646,-1.6711,-1.6736,-1.6736,-1.673,-1.6723,-1.6829,-1.706,-1.7173,-1.7279,-1.7483,-1.7483,-1.7463,-1.7285,-1.7009,-1.6723,-1.6976,-1.7022,-1.714,-0.2292,-0.3785,-0.5051,-0.4936,-0.3891,-0.4286,-0.437,-0.4367,-0.4369,-0.4367,-0.4367,-0.4369,-0.4592,-0.4925,-0.5039,-0.5262,-0.5371,-0.5483,-0.5594,-0.5594,-0.5819,-0.6042,-0.6267,-0.6487,-0.6932,-0.7271,-0.749,-0.7712,-0.8048,-0.8156,-0.8374,-0.8481,-0.841,-0.8402,-0.8348,-0.8157,-0.8418,-0.9165,-1.0081,-1.0597,-1.0767,-1.139,-1.1435,-1.1047,-1.1908,-1.209,-1.1594,-1.1975,-1.2209,-1.2631,-1.2834,-1.3195,-1.3814,-1.2758,-1.2126,0.0,0.0,0.0,0.0,0.0,0.0,0.0,0.0,0.0,0.0,0.0,-1.4136,-1.4279,-1.4999,-1.533,-1.4932,-1.5022,-1.4974,-1.4648,-1.4646,-1.4624,-1.4588,-1.4981,-1.5233,-1.4844,-1.5299,-1.562,-1.5475,-1.5688,-1.594,-1.6299,-1.5732,-1.5336,-1.5654,-1.5909,-1.6206,-1.6409,-1.6634,-1.673,-1.6849,-1.6955,-1.6948,-1.7054,-1.716,-1.7054,-1.7054,-1.7047,-1.716,-1.7384,-1.7378,-1.7384,-1.7582,-1.7589,-1.7589,-1.7582,-1.7371,-1.716,-1.7378,-1.7378,-1.7378,-0.3764,-0.4351,-0.5534,-0.6124,-0.6341,-0.5823,-0.5518,-0.539,-0.5375,-0.5369,-0.5369,-0.5481,-0.5483,-0.5483,-0.5594,-0.5594,-0.5706,-0.5933,-0.5933,-0.6044,-0.6492,-0.6826,-0.6824,-0.7154,-0.7487,-0.7934,-0.7937,-0.8156,-0.8488,-0.8484,-0.8484,-0.8595,-0.8598,-0.8813,-0.9003,-0.8727,-0.9017,-0.9813,-1.0791,-1.1168,-1.0985,-1.2154,-1.2565,-1.2461,-1.28,-1.2949,-1.2785,-1.2485,-1.244,-1.2615,-1.2746,-1.3157,-1.3939,-1.307,-1.2689,0.0,-1.2011,0.0,0.0,0.0,0.0,0.0,0.0,0.0,0.0,-1.4358,-1.4781,-1.4811,-1.5228,-1.5421,-1.5221,-1.5209,-1.5294,-1.5517,-1.5553,-1.5644,-1.5855,-1.5885,-1.5885,-1.5885,-1.5885,-1.5885,-1.5974,-1.5998,-1.6105,-1.643,-1.6405,-1.6449,-1.6711,-1.6605,-1.6511,-1.673,-1.6842,-1.6948,-1.7166,-1.7279,-1.7272,-1.7589,-1.7589,-1.7589,-1.7589,-1.7589,-1.7589,-1.7589,-1.7582,-1.7589,-1.7589,-1.7589,-1.7589,-1.7589,-1.7582,-1.7582,-1.7589,-1.7582,-1.7589,-0.6122,-0.6001,-0.6593,-0.671,-0.6579,-0.6655,-0.6355,-0.5591,-0.5404,-0.5369,-0.5369,-0.5596,-0.5817,-0.6151,-0.6376,-0.6601,-0.6821,-0.6932,-0.6932,-0.6932,-0.7268,-0.7382,-0.7493,-0.7712,-0.7826,-0.7715,-0.7934,-0.8042,-0.8156,-0.8374,-0.8598,-0.8823,-0.9379,-0.9749,-0.9831,0.0,0.0,0.0,-1.1608,-1.182,-1.209,-1.2391,-1.2434,-1.2257,-1.2673,0.0,-1.2124,-1.2719,-1.3105,-1.3219,-1.3892,0.0,0.0,0.0,0.0,0.0,0.0,0.0,0.0,0.0,0.0,0.0,-1.4159,-1.4262,-1.425,-1.4721,-1.5119,-1.533,-1.5445,-1.5565,-1.5728,-1.5741,-1.5765,-1.5807,-1.5819,-1.5843,-1.5885,-1.5891,-1.5885,-1.5885,-1.5891,-1.6004,-1.623,-1.6424,-1.6636,-1.6967,-1.7067,-1.7173,-1.7371,-1.7166,-1.7166,-1.7371,-1.7371,-1.7477,-1.7483,-1.7483,-1.7483,-1.7589,-1.7589,-1.7589,-1.7589,-1.7589,-1.7589,-1.7589,-1.7589,-1.7589,-1.7589,-1.7589,-1.7589,-1.7589,-1.7589,-1.7589,-1.7589,-1.7589,-1.7589,-0.6621,-0.6861,-0.7105,-0.722,0.0,-0.7393,-0.71,-0.6691,-0.6467,-0.6391,-0.6346,-0.6514,-0.6734,-0.6797,-0.6969,-0.722,-0.7334,-0.7271,-0.7277,-0.7328,-0.7435,-0.7524,-0.7694,-0.7744,-0.7973,-0.8146,-0.8258,-0.8517,-0.8697,-0.9147,-0.949,-0.9606,-1.0284,-1.0727,-1.1056,-1.2046,-1.2342,-1.2041,-1.3008,-1.3306,-1.3108,-1.3761,-1.3903,-1.3345,-1.3696,0.0,0.0,0.0,0.0,0.0,0.0,0.0,0.0,-1.4847,0.0,-1.4778,-1.443,-1.4316,-1.4469,-1.46,-1.4885,-1.527,-1.5541,-1.5523,-1.5113,-1.5578,-1.5952,-1.6079,-1.6091,-1.6145,-1.6272,-1.629,-1.629,-1.629,-1.629,-1.6399,-1.6502,-1.6508,-1.6611,-1.6727,-1.6727,-1.6786,-1.675,-1.6839,-1.6989,-1.7199,-1.7179,-1.7279,-1.7483,-1.7384,-1.7279,-1.7582,-1.7589,-1.7589,-1.7589,-1.7589,-1.7589,-1.7589,-1.7589,-1.7589,-1.7589,-1.7589,-1.7589,-1.7589,-1.7589,-1.7589,-1.7589,-1.7589,-1.7589,-1.7589,-1.7589,-1.7589,-1.7589,-1.7589,-1.7589,-0.6766,-0.7508,-0.7508,-0.763,-0.7864,-0.7771,-0.7733,-0.7722,0.0,0.0,0.0,-0.7472,-0.7462,-0.7375,-0.7472,-0.7519,-0.751,-0.7391,-0.7402,-0.7621,-0.7403,-0.759,-0.7929,-0.7945,-0.8176,-0.8736,-0.8739,-0.903,-0.9378,-0.9957,-1.0304,-1.042,-1.1141,-1.182,-1.2587,-1.3817,-1.4005,-1.3168,-1.4411,-1.4766,-1.403,-1.5077,-1.5451,-1.5153,-1.4983,-1.4968,-1.4775,-1.4624,-1.4599,-1.4802,-1.4844,-1.4993,-1.524,-1.5288,-1.5336,-1.5384,-1.539,-1.5578,-1.6,-1.5797,-1.5982,-1.667,-1.6742,-1.6561,-1.6072,-1.6441,-1.67,-1.67,-1.67,-1.6694,-1.67,-1.67,-1.67,-1.67,-1.67,-1.6806,-1.7024,-1.7142,-1.7111,-1.7372,-1.7346,-1.7369,-1.7194,-1.715,-1.727,-1.7244,-1.7279,-1.7378,-1.7483,-1.7384,-1.7384,-1.7582,-1.7589,-1.7589,-1.7589,-1.7589,-1.7589,-1.7589,-1.7589,-1.7589,-1.7589,-1.7589,-1.7589,-1.7589,-1.7589,-1.7589,-1.7589,-1.7589,-1.7589,-1.7589,-1.7589,-1.7589,-1.7589,-1.7589,-1.7589,-0.7747,-0.7872,-0.7872,-0.7869,-0.7872,-0.7853,-0.7847,-0.7828,-0.7614,-0.7508,-0.7494,-0.751,-0.751,-0.7494,-0.751,-0.7519,-0.751,-0.7391,-0.7514,-0.7974,-0.8064,-0.841,-0.8768,-0.898,-0.9099,-0.8887,-0.9116,-0.9129,-0.9033,-0.9613,-1.0189,-1.0786,-1.1841,-1.3067,-1.4569,-1.5445,-1.5891,-1.5904,-1.5737,-1.5561,-1.5378,-1.5451,-1.6034,-1.6919,-1.5618,-1.4844,-1.4763,-1.475,-1.4802,-1.4808,-1.5221,-1.5547,-1.5771,-1.5988,-1.6223,-1.6453,-1.6477,-1.6513,-1.6579,-1.6579,-1.6616,-1.67,-1.6905,-1.6905,-1.6622,-1.6652,-1.67,-1.67,-1.6724,-1.67,-1.67,-1.6718,-1.673,-1.6718,-1.6706,-1.6706,-1.6837,-1.6843,-1.6961,-1.6961,-1.6812,-1.7067,-1.7174,-1.7194,-1.7302,-1.747,-1.7496,-1.7589,-1.7582,-1.7582,-1.7582,-1.7582,-1.7589,-1.7589,-1.7589,-1.7589,-1.7589,-1.7589,-1.7589,-1.7589,-1.7589,-1.7589,-1.7589,-1.7589,-1.7589,-1.7589,-1.7589,-1.7589,-1.7589,-1.7589,-1.7589,-1.7589,-1.7589,-1.7589,-1.7589,-0.7872,-0.7872,-0.7872,-0.7872,-0.7872,-0.7872,-0.7872,-0.7861,-0.7758,-0.7674,-0.7625,-0.7682,-0.7676,-0.7625,-0.7682,-0.7831,-0.7948,-0.7825,-0.8069,-0.8408,-0.8454,-0.8659,-0.9013,-0.9072,-0.9312,-0.95,-0.9742,-0.9776,-0.9968,-1.0921,-1.1512,-1.1871,-1.3372,-1.4652,-1.5575,-1.6301,-1.6661,-1.6773,-1.6663,-1.6716,-1.6594,-1.6603,-1.6846,-1.7477,-1.6718,-1.6239,-1.6239,-1.6238,-1.6288,-1.6282,-1.6368,-1.6423,-1.6537,-1.6652,-1.6779,-1.6905,-1.7044,-1.7123,-1.7123,-1.7123,-1.7123,-1.7129,-1.7237,-1.7255,-1.7141,-1.7123,-1.7123,-1.7123,-1.7123,-1.7129,-1.7123,-1.7123,-1.7123,-1.7123,-1.7129,-1.7244,-1.7582,-1.7582,-1.7811,-1.8046,-1.8167,-1.8172,-1.8112,-1.7942,-1.7843,-1.7883,-1.7716,-1.7595,-1.7589,-1.7589,-1.7589,-1.7589,-1.7589,-1.7589,-1.7589,-1.7589,-1.7589,-1.7589,-1.7589,-1.7589,-1.7589,-1.7589,-1.7589,-1.7589,-1.7589,-1.7589,-1.7589,-1.7589,-1.7589,-1.7589,-1.7589,-1.7589,-1.7589,-1.7589,-1.7589,-0.7872,-0.7872,-0.7872,-0.7872,-0.7872,-0.7872,-0.7872,-0.7872,-0.7869,-0.7823,-0.7758,-0.7834,-0.7823,-0.7878,-0.7955,-0.8244,-0.8471,-0.8357,-0.8603,-0.9061,-0.8838,-0.9032,-0.9506,-0.9412,-0.9658,-1.0242,-1.0372,-1.0673,-1.114,-1.2354,-1.3075,-1.3555,-1.4992,-1.5946,-1.6295,-1.6785,-1.7026,-1.7138,-1.7373,-1.7485,-1.7485,-1.7485,-1.7479,-1.7485,-1.7539,-1.7569,-1.7575,-1.763,-1.766,-1.766,-1.7473,-1.7364,-1.7364,-1.7358,-1.7334,-1.7298,-1.7455,-1.7545,-1.7491,-1.7485,-1.7485,-1.7608,-1.7485,-1.7602,-1.7713,-1.7602,-1.7602,-1.7602,-1.7584,-1.7584,-1.7695,-1.7701,-1.7713,-1.7719,-1.7713,-1.7923,-1.8298,-1.8421,-1.8538,-1.9133,-1.9127,-1.9008,-1.8851,-1.8612,-1.8326,-1.7975,-1.7836,-1.7682,-1.7609,-1.7589,-1.7589,-1.7589,-1.7589,-1.7589,-1.7589,-1.7589,-1.7589,-1.7589,-1.7589,-1.7589,-1.7589,-1.7589,-1.7589,-1.7589,-1.7589,-1.7589,-1.7589,-1.7589,-1.7589,-1.7589,-1.7589,-1.7589,-1.7589,-1.7589,-1.7589,-0.7872,-0.7872,-0.7875,-0.7872,-0.7875,-0.7875,-0.7875,-0.7872,-0.7872,-0.7867,-0.7853,-0.7867,-0.8113,-0.8355,-0.8363,-0.8491,-0.8845,-0.8711,-0.9083,-0.9674,-0.953,-0.9891,-1.0507,-1.062,-1.0631,-1.088,-1.1362,-1.1727,-1.1872,-1.3066,-1.4143,-1.5219,-1.6059,-1.6543,-1.6903,-1.7026,-1.7138,-1.7485,-1.7485,-1.7485,-1.7485,-1.7485,-1.7485,-1.7485,-1.772,-1.7835,-1.7847,-1.8088,-1.8215,-1.8215,-1.8167,-1.8167,-1.8167,-1.8167,-1.8052,-1.7811,-1.7811,-1.7738,-1.7515,-1.7485,-1.7608,-1.7849,-1.7608,-1.7713,-1.8188,-1.8077,-1.7966,-1.7972,-1.7972,-1.8077,-1.8305,-1.8305,-1.8188,-1.8188,-1.8305,-1.8305,-1.8415,-1.8421,-1.8421,-1.8421,-1.8655,-1.8436,-1.8535,-1.8531,-1.8295,-1.8054,-1.8056,-1.7923,-1.7729,-1.7649,-1.7629,-1.7609,-1.7589,-1.7589,-1.7589,-1.7589,-1.7589,-1.7589,-1.7589,-1.7589,-1.7589,-1.7589,-1.7589,-1.7589,-1.7589,-1.7589,-1.7589,-1.7589,-1.7589,-1.7589,-1.7589,-1.7589,-1.7589,-1.7589,-1.7589,-0.7872,-0.788,-0.7948,-0.7981,-0.7978,-0.7978,-0.7937,-0.7872,-0.7872,-0.7872,-0.7994,-0.8241,-0.8363,-0.8119,-0.8488,-0.8854,-0.9214,-0.9519,-0.9882,-1.0418,-1.0353,-1.0485,-1.0781,-1.1273,-1.1514,-1.1993,-1.259,-1.3071,-1.355,-1.4386,-1.5337,-1.6301,-1.6661,-1.7015,-1.7256,-1.7256,-1.7439,-1.7708,-1.7714,-1.7787,-1.7787,-1.7793,-1.7805,-1.8082,-1.8076,-1.8125,-1.8131,-1.8239,-1.83,-1.8281,-1.8137,-1.8118,-1.8281,-1.7986,-1.7829,-1.7853,-1.772,-1.7593,-1.7491,-1.7485,-1.7602,-1.7719,-1.7602,-1.7602,-1.783,-1.7726,-1.7849,-1.7972,-1.7972,-1.8206,-1.8466,-1.8336,-1.8188,-1.8421,-1.8421,-1.8532,-1.8648,-1.8655,-1.8765,-1.8894,-1.901,-1.8971,-1.8955,-1.879,-1.8639,-1.8397,-1.831,-1.8237,-1.8116,-1.7969,-1.7862,-1.7836,-1.7716,-1.7595,-1.7595,-1.7589,-1.7589,-1.7589,-1.7589,-1.7589,-1.7582,-1.7589,-1.7589,-1.7589,-1.7589,-1.7589,-1.7589,-1.7589,-1.7589,-1.7589,-1.7589,-1.7589,-1.7589,-1.7589,-1.7589,-0.7891,-0.7932,-0.8019,-0.8057,-0.8051,-0.8016,-0.7954,-0.7877,-0.8116,-0.8116,-0.8238,-0.8848,-0.8851,-0.8482,-0.897,-0.9335,-0.97,-1.0183,-1.0789,-1.1273,-1.1269,-1.1511,-1.1868,-1.2354,-1.2835,-1.3315,-1.3909,-1.4619,-1.5229,-1.5704,-1.6419,-1.702,-1.7138,-1.725,-1.7485,-1.7485,-1.7575,-1.7738,-1.7768,-1.7895,-1.7967,-1.7968,-1.8137,-1.8404,-1.8489,-1.8396,-1.8402,-1.8475,-1.8505,-1.8499,-1.8245,-1.8185,-1.8366,-1.7962,-1.7756,-1.7835,-1.763,-1.7485,-1.7485,-1.7485,-1.7602,-1.7602,-1.7602,-1.7596,-1.7713,-1.7719,-1.7843,-1.8206,-1.82,-1.833,-1.8472,-1.8336,-1.8194,-1.8538,-1.8532,-1.8648,-1.9004,-1.8997,-1.912,-1.9366,-1.9366,-1.9366,-1.9339,-1.9178,-1.8945,-1.8684,-1.8611,-1.8557,-1.849,-1.8297,-1.817,-1.8265,-1.807,-1.7929,-1.7729,-1.7629,-1.7622,-1.7695,-1.7709,-1.7687,-1.7687,-1.7687,-1.7799,-1.7905,-1.7793,-1.7793,-1.7898,-1.7898,-1.7799,-1.7793,-1.7793,-1.7799,-1.7898,-1.7799,-1.7793,-0.794,-0.8038,-0.8054,-0.8193,-0.8049,-0.8066,-0.8005,-0.8116,-0.8485,-0.8729,-0.8851,-0.9457,-0.97,-0.9819,-1.0183,-1.0425,-1.0664,-1.0785,-1.1511,-1.2599,-1.2595,-1.3195,-1.4386,-1.4505,-1.451,-1.451,-1.51,-1.5935,-1.6779,-1.6903,-1.7138,-1.7485,-1.7485,-1.7479,-1.7485,-1.7485,-1.7491,-1.7557,-1.7557,-1.7654,-1.7883,-1.7895,-1.8155,-1.8441,-1.8659,-1.8625,-1.8662,-1.8891,-1.9012,-1.9024,-1.8734,-1.8632,-1.8644,-1.8532,-1.8277,-1.8015,-1.7766,-1.7497,-1.7503,-1.7521,-1.7651,-1.7874,-1.7793,-1.7738,-1.8225,-1.8121,-1.8232,-1.8564,-1.8428,-1.8428,-1.8428,-1.8428,-1.8532,-1.8881,-1.8874,-1.9004,-1.9366,-1.9366,-1.9366,-1.9366,-1.9366,-1.9366,-1.9366,-1.9359,-1.9192,-1.8985,-1.8905,-1.8831,-1.8631,-1.8517,-1.8581,-1.8789,-1.8727,-1.8659,-1.807,-1.7929,-1.7922,-1.7936,-1.7928,-1.7694,-1.7786,-1.7891,-1.8003,-1.8115,-1.801,-1.801,-1.8318,-1.8318,-1.8318,-1.8213,-1.8213,-1.8213,-1.8422,-1.8422,-1.8318,-0.811,-0.8554,-0.8893,-0.9006,-0.9046,-0.912,-0.9128,-0.9098,-0.9332,-0.9457,-0.9579,-1.0183,-1.0781,-1.1378,-1.1868,-1.1989,-1.174,-1.2113,-1.2955,-1.3794,-1.3913,-1.4147,-1.4629,-1.4981,-1.5337,-1.558,-1.6183,-1.6773,-1.725,-1.7367,-1.7373,-1.7485,-1.7485,-1.7485,-1.7485,-1.7485,-1.7563,-1.7714,-1.7732,-1.7865,-1.8088,-1.827,-1.8404,-1.8647,-1.8469,-1.8438,-1.8432,-1.8529,-1.865,-1.8819,-1.8577,-1.8589,-1.8867,-1.8692,-1.8465,-1.8076,-1.7956,-1.8046,-1.8031,-1.8261,-1.848,-1.8721,-1.8715,-1.8615,-1.8726,-1.857,-1.8625,-1.8478,-1.8428,-1.8421,-1.8415,-1.8532,-1.8881,-1.9127,-1.9243,-1.9243,-1.9366,-1.9366,-1.9366,-1.9366,-1.9366,-1.9366,-1.9366,-1.9366,-1.9325,-1.9232,-1.9205,-1.9145,-1.9172,-1.9124,-1.9101,-1.9166,-1.9258,-1.9098,-1.9022,-1.8603,-1.8431,-1.8448,-1.8344,-1.8261,-1.8227,-1.8213,-1.8422,-1.8736,-1.8534,-1.8534,-1.8833,-1.8833,-1.8833,-1.8729,-1.8729,-1.9146,-1.9146,-1.9146,-1.9049,-0.8548,-0.9121,-0.9478,-0.972,-0.9882,-0.9833,-0.9804,-0.9832,-1.0061,-1.0061,-1.0304,-1.1152,-1.1989,-1.2586,-1.3315,-1.3712,-1.35,-1.3707,-1.4191,-1.5215,-1.5215,-1.5329,-1.5693,-1.617,-1.6363,-1.6543,-1.6897,-1.7256,-1.7479,-1.7485,-1.7485,-1.7485,-1.7485,-1.7485,-1.7485,-1.7485,-1.7581,-1.772,-1.7744,-1.7847,-1.8022,-1.8118,-1.8233,-1.8384,-1.8336,-1.8384,-1.8529,-1.8547,-1.8619,-1.8746,-1.8559,-1.8547,-1.8776,-1.8656,-1.8538,-1.8356,-1.8319,-1.8343,-1.8555,-1.8679,-1.8888,-1.9254,-1.9248,-1.9165,-1.8987,-1.8892,-1.8858,-1.8704,-1.857,-1.8532,-1.8771,-1.8887,-1.912,-1.9243,-1.9243,-1.9249,-1.9366,-1.9366,-1.9366,-1.9366,-1.9366,-1.9366,-1.9366,-1.9366,-1.9359,-1.9366,-1.9482,-1.9591,-1.9557,-1.9665,-1.9735,-1.9835,-1.9808,-2.0165,-2.0301,-2.0413,-1.9505,-1.9276,-1.8929,-1.8801,-1.8988,-1.8966,-1.9042,-1.925,-1.9354,-1.925,-1.9354,-1.9346,-1.945,-1.9346,-1.9761,-2.0285,-2.0181,-1.9968,-2.0078,-0.9381,-0.9751,-0.9885,-1.0012,-1.0352,-1.0246,-1.0095,-1.02,-1.0668,-1.1039,-1.1421,-1.2487,-1.3209,-1.3458,-1.4311,-1.5236,-1.5959,-1.5246,-1.5398,-1.6409,-1.6546,-1.6903,-1.7637,-1.7601,-1.7577,-1.7373,-1.7485,-1.7485,-1.7485,-1.7485,-1.7485,-1.7485,-1.7485,-1.7485,-1.7485,-1.7485,-1.7497,-1.7539,-1.7551,-1.7539,-1.7527,-1.7655,-1.769,-1.801,-1.8343,-1.8684,-1.9006,-1.8994,-1.8951,-1.8988,-1.8794,-1.8559,-1.845,-1.8408,-1.8594,-1.8859,-1.8588,-1.8563,-1.8778,-1.8938,-1.9233,-1.9479,-1.9427,-1.9569,-1.9485,-1.9298,-1.9144,-1.9292,-1.9109,-1.9063,-1.9322,-1.9452,-1.9303,-1.8997,-1.8997,-1.912,-1.9366,-1.9366,-1.9366,-1.9488,-1.9482,-1.9366,-1.9488,-1.9482,-1.9482,-1.9597,-1.9707,-1.9815,-1.9924,-2.0106,-2.0472,-2.0687,-2.1028,-2.1369,-2.193,-2.2123,-2.0989,-2.0068,-1.9614,-1.9305,-1.9956,-2.0185,-2.03,-2.049,-2.0585,-2.0483,-2.0483,-2.0585,-2.0798,-2.0901,-2.1208,-2.131,-2.131,-2.12,-2.1302,-1.0256,-1.051,-1.0651,-1.0836,-1.1117,-1.1061,-1.1436,-1.2126,-1.2359,-1.291,-1.3593,-1.3976,-1.4595,-1.5429,-1.5822,-1.6462,-1.7396,-1.7236,-1.7352,-1.7661,-1.7672,-1.7789,-1.8131,-1.7962,-1.7732,-1.7521,-1.7485,-1.7485,-1.7485,-1.7485,-1.7485,-1.7485,-1.7485,-1.7485,-1.7485,-1.7485,-1.7557,-1.7714,-1.7569,-1.7648,-1.7974,-1.7661,-1.7786,-1.8396,-1.879,-1.9004,-1.903,-1.8728,-1.8638,-1.8807,-1.8728,-1.8722,-1.8801,-1.9083,-1.9249,-1.9243,-1.9387,-1.9619,-1.9728,-2.0099,-2.0434,-2.0822,-2.0815,-2.0839,-2.0561,-2.0318,-2.0044,-1.9886,-1.988,-1.9834,-1.996,-1.996,-1.9786,-1.9289,-1.9236,-1.9256,-1.9366,-1.9591,-1.97,-1.97,-1.9822,-2.0053,-2.0046,-2.0046,-1.9931,-2.0046,-2.0155,-2.0155,-2.027,-2.106,-2.1509,-2.1623,-2.2281,-2.2686,-2.3007,-2.3156,-2.2585,-2.1713,-2.1064,-2.0499,-2.1042,-2.1234,-2.146,-2.1615,-2.1717,-2.181,-2.1717,-2.1818,-2.203,-2.1928,-2.1725,-2.203,-2.2333,-2.2434,-2.2325,-1.0794,-1.1058,-1.1195,-1.1639,-1.2275,-1.2271,-1.2773,-1.3698,-1.3679,-1.411,-1.4781,-1.5054,-1.5536,-1.6281,-1.6857,-1.7443,-1.8052,-1.8318,-1.8487,-1.8547,-1.8463,-1.8444,-1.8378,-1.804,-1.7738,-1.7527,-1.7485,-1.7485,-1.7485,-1.7485,-1.7485,-1.7485,-1.7485,-1.7485,-1.7497,-1.7587,-1.772,-1.7841,-1.7823,-1.795,-1.8203,-1.7946,-1.8066,-1.8644,-1.8921,-1.9048,-1.9042,-1.8746,-1.8662,-1.8794,-1.8951,-1.9169,-1.9322,-1.9699,-1.989,-2.0055,-2.0232,-2.0517,-2.0757,-2.0989,-2.1362,-2.1614,-2.1607,-2.1413,-2.1223,-2.0893,-2.0575,-2.0441,-2.0281,-2.0234,-2.0221,-2.0348,-2.0167,-1.9983,-1.971,-1.9603,-1.9638,-1.9707,-1.9815,-1.9815,-2.0046,-2.0155,-2.0155,-2.027,-2.0493,-2.0723,-2.0952,-2.1174,-2.1517,-2.2191,-2.2531,-2.2869,-2.3199,-2.3558,-2.3963,-2.4031,-2.4031,-2.3428,-2.2773,-2.2355,-2.222,-2.2214,-2.2232,-2.2736,-2.2929,-2.3029,-2.2937,-2.2937,-2.2937,-2.2636,-2.2434,-2.2937,-2.3347,-2.3138,-2.3138,-1.1134,-1.1649,-1.1646,-1.2377,-1.3342,-1.3337,-1.3718,-1.4525,-1.4505,-1.465,-1.5147,-1.5844,-1.6222,-1.6527,-1.7332,-1.7889,-1.8294,-1.8535,-1.871,-1.8813,-1.8746,-1.8644,-1.8577,-1.8203,-1.7883,-1.7636,-1.7587,-1.7575,-1.7624,-1.7618,-1.7527,-1.7593,-1.7612,-1.7551,-1.7642,-1.7787,-1.7919,-1.8016,-1.8167,-1.8269,-1.8372,-1.8256,-1.8399,-1.8728,-1.8933,-1.9182,-1.9188,-1.9273,-1.9158,-1.9194,-1.9546,-1.968,-1.9973,-2.0354,-2.0742,-2.0982,-2.1122,-2.1235,-2.1475,-2.1587,-2.1607,-2.1614,-2.1607,-2.1488,-2.1294,-2.1125,-2.099,-2.0812,-2.0617,-2.0463,-2.0469,-2.072,-2.078,-2.067,-2.0257,-2.0006,-1.9856,-1.9931,-2.004,-2.0155,-2.027,-2.0385,-2.0493,-2.0723,-2.106,-2.1623,-2.2078,-2.2418,-2.2974,-2.3432,-2.388,-2.4103,-2.4223,-2.4633,-2.5064,-2.5173,-2.5138,-2.4762,-2.4236,-2.3878,-2.3462,-2.3329,-2.3195,-2.3681,-2.3936,-2.4008,-2.3954,-2.3746,-2.3746,-2.3646,-2.3755,-2.4152,-2.4053,-2.3746,-2.3646,-1.2109,-1.2983,-1.2856,-1.2919,-1.3282,-1.3277,-1.3851,-1.451,-1.4624,-1.5552,-1.6726,-1.7085,-1.7327,-1.767,-1.7793,-1.8028,-1.8287,-1.8553,-1.8577,-1.8529,-1.865,-1.868,-1.868,-1.8541,-1.8312,-1.8082,-1.8022,-1.8082,-1.8082,-1.804,-1.8046,-1.8082,-1.804,-1.8058,-1.8106,-1.8131,-1.8287,-1.8414,-1.833,-1.8511,-1.8782,-1.8447,-1.8512,-1.8963,-1.917,-1.9194,-1.9456,-1.9966,-2.0094,-1.9833,-2.0221,-2.0482,-2.0736,-2.1109,-2.1369,-2.1502,-2.174,-2.1734,-2.1734,-2.1859,-2.1859,-2.1607,-2.1859,-2.1992,-2.1853,-2.179,-2.1735,-2.1728,-2.1652,-2.1596,-2.1603,-2.1714,-2.154,-2.1115,-2.0963,-2.0655,-2.0354,-2.0378,-2.0716,-2.1395,-2.1729,-2.207,-2.241,-2.2644,-2.2862,-2.3199,-2.3311,-2.3544,-2.3991,-2.4445,-2.4898,-2.5119,-2.5348,-2.5798,-2.6118,-2.6227,-2.6091,-2.5854,-2.5448,-2.5249,-2.4923,-2.4699,-2.4536,-2.4675,-2.4446,-2.45,-2.428,-2.4053,-2.4161,-2.4161,-2.4161,-2.4161,-2.4161,-2.4053,-2.4053,-1.279,-1.3359,-1.3606,-1.3799,-1.3799,-1.4277,-1.4981,-1.5693,-1.5817,-1.6487,-1.7535,-1.7557,-1.7654,-1.7919,-1.7895,-1.7956,-1.8143,-1.8396,-1.8426,-1.8372,-1.8565,-1.8613,-1.8547,-1.8517,-1.8432,-1.8318,-1.83,-1.8287,-1.8281,-1.83,-1.83,-1.8275,-1.83,-1.83,-1.8275,-1.8414,-1.8523,-1.8644,-1.8625,-1.8915,-1.9407,-1.8879,-1.9271,-1.968,-1.9966,-1.9966,-2.0094,-2.0475,-2.0602,-2.0469,-2.0602,-2.0856,-2.0989,-2.1481,-2.174,-2.1614,-2.2111,-2.2355,-2.2104,-2.2362,-2.2355,-2.2104,-2.2237,-2.2237,-2.2104,-2.2104,-2.2104,-2.209,-2.2104,-2.2104,-2.223,-2.2598,-2.2733,-2.2568,-2.2647,-2.2288,-2.1262,-2.1509,-2.207,-2.2523,-2.2974,-2.3191,-2.376,-2.388,-2.4103,-2.4326,-2.4326,-2.4667,-2.5119,-2.5459,-2.5798,-2.5907,-2.6017,-2.6245,-2.6473,-2.6473,-2.6473,-2.6252,-2.6114,-2.601,-2.5697,-2.5496,-2.5301,-2.5078,-2.4913,-2.4721,-2.4491,-2.4271,-2.4161,-2.4161,-2.4161,-2.4161,-2.4161,-2.4161,-2.4161,-1.3338,-1.3472,-1.4401,-1.4748,-1.4867,-1.5698,-1.6295,-1.7126,-1.712,-1.7274,-1.7545,-1.7509,-1.7581,-1.7575,-1.7787,-1.7865,-1.7962,-1.8233,-1.833,-1.8402,-1.8523,-1.8535,-1.8444,-1.8511,-1.8499,-1.8456,-1.839,-1.842,-1.8463,-1.8432,-1.8402,-1.8456,-1.8438,-1.8396,-1.8493,-1.8625,-1.8716,-1.8782,-1.9163,-1.9491,-1.9814,-1.9618,-2.0011,-2.0696,-2.0982,-2.0982,-2.0856,-2.1109,-2.1229,-2.0862,-2.1109,-2.1109,-2.0982,-2.1734,-2.1985,-2.1985,-2.2613,-2.2856,-2.2731,-2.2738,-2.2863,-2.2487,-2.2487,-2.2487,-2.2237,-2.223,-2.2355,-2.2362,-2.2362,-2.2606,-2.2973,-2.3713,-2.4155,-2.4217,-2.4987,-2.4525,-2.3217,-2.3143,-2.3576,-2.3648,-2.3871,-2.3871,-2.3871,-2.3983,-2.4437,-2.5229,-2.534,-2.5569,-2.5798,-2.6136,-2.6245,-2.6364,-2.6473,-2.6582,-2.6582,-2.6582,-2.6582,-2.6481,-2.6454,-2.6279,-2.5968,-2.572,-2.5637,-2.5518,-2.5362,-2.5078,-2.4721,-2.451,-2.4317,-2.4161,-2.4161,-2.4161,-2.4161,-2.4161,-2.4161,-1.437,-1.4625,-1.5422,-1.5822,-1.5822,-1.6059,-1.6295,-1.6414,-1.6414,-1.6984,-1.7577,-1.7575,-1.7714,-1.8058,-1.775,-1.7781,-1.8125,-1.8263,-1.8396,-1.8577,-1.8414,-1.8499,-1.8595,-1.877,-1.8879,-1.8873,-1.8897,-1.8891,-1.8879,-1.8843,-1.8903,-1.8879,-1.8831,-1.8897,-1.8897,-1.9024,-1.8988,-1.9127,-1.9553,-1.9947,-2.0208,-2.0576,-2.0829,-2.1235,-2.1481,-2.1614,-2.1859,-2.2104,-2.2237,-2.2111,-2.1985,-2.1859,-2.2104,-2.248,-2.2731,-2.2731,-2.2856,-2.2981,-2.2731,-2.2731,-2.2606,-2.2355,-2.2613,-2.2606,-2.2606,-2.2856,-2.2856,-2.2988,-2.3604,-2.4224,-2.4841,-2.5325,-2.553,-2.5542,-2.6024,-2.6308,-2.521,-2.4536,-2.4515,-2.4744,-2.488,-2.5119,-2.5688,-2.5679,-2.6017,-2.6245,-2.6254,-2.6364,-2.6473,-2.6591,-2.6591,-2.6591,-2.6591,-2.6591,-2.6591,-2.6591,-2.6591,-2.6591,-2.6591,-2.6573,-2.6261,-2.6142,-2.6059,-2.5949,-2.5821,-2.5472,-2.5078,-2.4748,-2.4546,-2.4363,-2.418,-2.4161,-2.4161,-2.4161,-2.4161,-1.5576,-1.5777,-1.651,-1.6532,-1.6172,-1.6532,-1.6773,-1.6773,-1.6773,-1.7079,-1.7636,-1.7527,-1.7654,-1.7889,-1.7642,-1.7726,-1.8052,-1.8245,-1.8438,-1.8607,-1.8547,-1.8632,-1.8837,-1.8988,-1.9072,-1.9072,-1.906,-1.9072,-1.9072,-1.9072,-1.9048,-1.9072,-1.9072,-1.9291,-1.9584,-1.9577,-1.9826,-2.0081,-2.0342,-2.0716,-2.1089,-2.1215,-2.1727,-2.1985,-2.223,-2.2362,-2.2362,-2.2487,-2.248,-2.2362,-2.2362,-2.2355,-2.2355,-2.2731,-2.2724,-2.2591,-2.2973,-2.2856,-2.2731,-2.2731,-2.2731,-2.2606,-2.3113,-2.3113,-2.3355,-2.3728,-2.4224,-2.41,-2.4726,-2.5586,-2.6075,-2.6554,-2.6532,-2.6696,-2.7335,-2.7543,-2.7018,-2.6267,-2.5786,-2.5913,-2.5898,-2.6017,-2.6473,-2.6664,-2.6619,-2.6518,-2.6528,-2.6518,-2.6482,-2.6591,-2.6591,-2.6591,-2.6591,-2.6591,-2.6591,-2.6591,-2.6591,-2.6591,-2.6591,-2.6591,-2.6463,-2.6444,-2.6472,-2.6298,-2.6105,-2.5876,-2.55,-2.5161,-2.4803,-2.4583,-2.4409,-2.4262,-2.4161,-2.4161,-2.4161,-1.6661,-1.6524,-1.7233,-1.7009,-1.6532,-1.7126,-1.7485,-1.7485,-1.7485,-1.7409,-1.7533,-1.7509,-1.7545,-1.7551,-1.7521,-1.7654,-1.798,-1.8324,-1.8632,-1.8752,-1.8764,-1.8855,-1.9018,-1.906,-1.9072,-1.9072,-1.9072,-1.9072,-1.9072,-1.9194,-1.9328,-1.9328,-1.9462,-1.9839,-2.0208,-2.0342,-2.0469,-2.0856,-2.1109,-2.1481,-2.1853,-2.1964,-2.2341,-2.2731,-2.2981,-2.2981,-2.2981,-2.3106,-2.2856,-2.248,-2.2731,-2.2606,-2.2487,-2.2487,-2.248,-2.2083,-2.2724,-2.2856,-2.2856,-2.3098,-2.3347,-2.3216,-2.4224,-2.4494,-2.4371,-2.4972,-2.521,-2.5464,-2.5709,-2.6432,-2.6554,-2.728,-2.7642,-2.7855,-2.848,-2.8792,-2.8388,-2.7746,-2.7212,-2.6838,-2.6718,-2.6865,-2.6885,-2.6866,-2.6765,-2.6701,-2.6719,-2.6738,-2.6729,-2.6683,-2.6729,-2.6664,-2.6674,-2.66,-2.6591,-2.6591,-2.6591,-2.6591,-2.6591,-2.6591,-2.6591,-2.6573,-2.6545,-2.6499,-2.6316,-2.6096,-2.5848,-2.5509,-2.5179,-2.4876,-2.4601,-2.4409,-2.428,-2.418,-2.4161,-1.715,-1.6403,-1.7233,-1.7361,-1.7244,-1.7479,-1.7485,-1.7485,-1.7485,-1.7612,-1.7744,-1.7587,-1.7599,-1.7684,-1.7557,-1.7762,-1.8191,-1.8619,-1.8909,-1.8976,-1.8976,-1.9164,-1.9054,-1.9072,-1.9072,-1.9072,-1.92,-1.92,-1.9322,-1.9577,-1.996,-2.0087,-2.0348,-2.0729,-2.0856,-2.0982,-2.0976,-2.1355,-2.174,-2.2111,-2.2237,-2.2731,-2.2981,-2.3362,-2.3362,-2.3728,-2.4108,-2.4232,-2.4232,-2.4239,-2.4232,-2.3728,-2.323,-2.3106,-2.2981,-2.3106,-2.323,-2.3479,-2.3487,-2.386,-2.3792,-2.3739,-2.477,-2.5994,-2.6149,-2.6239,-2.6319,-2.6319,-2.6796,-2.7521,-2.8489,-2.8489,-2.8618,-2.8737,-2.871,-2.8838,-2.8498,-2.8242,-2.7994,-2.7646,-2.7563,-2.7416,-2.727,-2.7187,-2.7187,-2.7178,-2.7215,-2.726,-2.7306,-2.716,-2.7022,-2.6921,-2.6784,-2.6683,-2.6591,-2.6591,-2.6591,-2.6591,-2.6591,-2.6591,-2.6591,-2.6591,-2.6564,-2.6527,-2.6481,-2.6334,-2.6078,-2.5812,-2.5427,-2.5041,-2.4785,-2.4556,-2.4335,-2.4161,-2.4161,-1.7631,-1.7121,-1.7357,-1.7485,-1.7485,-1.7485,-1.7485,-1.7485,-1.7485,-1.7551,-1.7605,-1.7545,-1.7545,-1.7618,-1.7557,-1.7787,-1.8318,-1.9083,-1.9182,-1.92,-1.92,-1.9194,-1.92,-1.9072,-1.9322,-1.9577,-1.9577,-1.9577,-1.9705,-2.0342,-2.0596,-2.0722,-2.0982,-2.1235,-2.1614,-2.1607,-2.1859,-2.2111,-2.2362,-2.2606,-2.2731,-2.3362,-2.3867,-2.4131,-2.4487,-2.4972,-2.521,-2.5341,-2.5095,-2.4734,-2.461,-2.4355,-2.3984,-2.3984,-2.3991,-2.4131,-2.4363,-2.4741,-2.4881,-2.5373,-2.4909,-2.4561,-2.5863,-2.6717,-2.715,-2.7237,-2.7418,-2.765,-2.7891,-2.8489,-2.8865,-2.8984,-2.8984,-2.8984,-2.8984,-2.8883,-2.8755,-2.87,-2.8526,-2.8278,-2.7957,-2.7728,-2.7591,-2.7554,-2.7609,-2.7655,-2.7691,-2.7765,-2.7847,-2.76,-2.7343,-2.704,-2.6857,-2.6683,-2.6591,-2.6591,-2.6591,-2.6591,-2.6591,-2.6591,-2.6591,-2.6591,-2.6591,-2.6573,-2.6518,-2.6472,-2.6344,-2.6078,-2.5637,-2.5234,-2.4986,-2.4721,-2.4363,-2.4161,-2.4207,-1.7895,-1.7781,-1.763,-1.7533,-1.7491,-1.7485,-1.7485,-1.7491,-1.7545,-1.7539,-1.7491,-1.7545,-1.7575,-1.7605,-1.7863,-1.8119,-1.8661,-1.9385,-1.9565,-1.9456,-1.9584,-1.9584,-1.9462,-1.9456,-1.9705,-2.0214,-2.0583,-2.0462,-2.0462,-2.0976,-2.1235,-2.1355,-2.1355,-2.1734,-2.2237,-2.2355,-2.2731,-2.2856,-2.3106,-2.3106,-2.3325,-2.4224,-2.5135,-2.5429,-2.5872,-2.6075,-2.6311,-2.6432,-2.6067,-2.5578,-2.5341,-2.5095,-2.4972,-2.5087,-2.5357,-2.5635,-2.5978,-2.6377,-2.6516,-2.6604,-2.6009,-2.5392,-2.6841,-2.7435,-2.7729,-2.8304,-2.8865,-2.8984,-2.8984,-2.8856,-2.8984,-2.8984,-2.8984,-2.8984,-2.8984,-2.8975,-2.8948,-2.892,-2.8902,-2.8618,-2.826,-2.8058,-2.7957,-2.8095,-2.8187,-2.8086,-2.8122,-2.8251,-2.8269,-2.7893,-2.7581,-2.7187,-2.6903,-2.6683,-2.6591,-2.6591,-2.6591,-2.6591,-2.6591,-2.6591,-2.6591,-2.6591,-2.6591,-2.6591,-2.6582,-2.6527,-2.6435,-2.6334,-2.5986,-2.5619,-2.5252,-2.4977,-2.4776,-2.4519,-2.4427,-1.7968,-1.7545,-1.7738,-1.7696,-1.7503,-1.7491,-1.7491,-1.7509,-1.7708,-1.769,-1.7503,-1.7714,-1.7924,-1.8034,-1.8674,-1.9144,-1.9575,-1.9796,-1.9966,-1.9973,-2.01,-2.0227,-2.0354,-2.0482,-2.0602,-2.0976,-2.1475,-2.1481,-2.1355,-2.1734,-2.1985,-2.2111,-2.2487,-2.2863,-2.2856,-2.2856,-2.2981,-2.3106,-2.323,-2.3179,-2.36,-2.5032,-2.6116,-2.6541,-2.6499,-2.6675,-2.728,-2.7401,-2.7151,-2.703,-2.7039,-2.6675,-2.6189,-2.6796,-2.7039,-2.6918,-2.6675,-2.6205,-2.6579,-2.7047,-2.7099,-2.6644,-2.7683,-2.8609,-2.8645,-2.8645,-2.8984,-2.8984,-2.8984,-2.8984,-2.8984,-2.8984,-2.8984,-2.8984,-2.8984,-2.8984,-2.8984,-2.8984,-2.8984,-2.8966,-2.8608,-2.848,-2.8379,-2.859,-2.8755,-2.8627,-2.8553,-2.8663,-2.8627,-2.8232,-2.7701,-2.726,-2.6995,-2.6774,-2.6591,-2.6591,-2.6591,-2.6591,-2.6591,-2.6591,-2.6591,-2.6591,-2.6591,-2.6591,-2.6591,-2.6591,-2.6527,-2.6417,-2.6261,-2.5986,-2.561,-2.5436,-2.5326,-2.5051,-2.4721,-1.8329,-1.7497,-1.7605,-1.7593,-1.7509,-1.7642,-1.7618,-1.7557,-1.7756,-1.7851,-1.7811,-1.8007,-1.8317,-1.8776,-1.9261,-1.953,-1.9856,-2.0226,-2.0354,-2.0482,-2.0609,-2.0736,-2.0862,-2.0862,-2.1109,-2.1607,-2.1978,-2.223,-2.2237,-2.248,-2.2606,-2.2738,-2.2856,-2.2981,-2.3106,-2.3106,-2.3479,-2.3976,-2.4463,-2.4802,-2.5138,-2.6147,-2.7228,-2.8103,-2.7841,-2.79,-2.8131,-2.837,-2.8011,-2.7642,-2.7521,-2.7401,-2.7039,-2.728,-2.7642,-2.825,-2.8011,-2.7771,-2.7891,-2.8131,-2.7958,-2.7922,-2.8444,-2.8856,-2.8984,-2.8984,-2.8984,-2.8984,-2.8984,-2.8984,-2.8984,-2.8984,-2.8984,-2.8984,-2.8984,-2.8984,-2.8984,-2.8984,-2.8984,-2.8984,-2.8975,-2.881,-2.8691,-2.8792,-2.8893,-2.8828,-2.8755,-2.8819,-2.8755,-2.8498,-2.7902,-2.7251,-2.7059,-2.6894,-2.6701,-2.6591,-2.66,-2.66,-2.6591,-2.6591,-2.6591,-2.6591,-2.6591,-2.6591,-2.6591,-2.6591,-2.6591,-2.6509,-2.638,-2.6178,-2.5958,-2.5793,-2.5628,-2.5381,-2.5078,-1.8564,-1.7626,-1.7742,-1.773,-1.7503,-1.7815,-1.7833,-1.7748,-1.8111,-1.8357,-1.8401,-1.8588,-1.9069,-1.9504,-1.9767,-2.0058,-2.0177,-2.0631,-2.0836,-2.0982,-2.1235,-2.1355,-2.1488,-2.1614,-2.1859,-2.2362,-2.2362,-2.2606,-2.2856,-2.3106,-2.2981,-2.3106,-2.3106,-2.3106,-2.3238,-2.3487,-2.3976,-2.4972,-2.5945,-2.6156,-2.6244,-2.7246,-2.8202,-2.8745,-2.8957,-2.8984,-2.8984,-2.8984,-2.8498,-2.8131,-2.8002,-2.8002,-2.7882,-2.8011,-2.825,-2.8737,-2.8746,-2.8746,-2.8737,-2.8865,-2.8984,-2.8984,-2.8984,-2.8984,-2.8984,-2.8984,-2.8984,-2.8984,-2.8984,-2.8984,-2.8984,-2.8984,-2.8984,-2.8984,-2.8984,-2.8984,-2.8984,-2.8984,-2.8984,-2.8984,-2.8984,-2.8984,-2.8911,-2.8948,-2.8975,-2.8975,-2.8984,-2.8984,-2.8838,-2.8645,-2.8242,-2.7609,-2.7398,-2.7215,-2.693,-2.6765,-2.6719,-2.6637,-2.6628,-2.6591,-2.6591,-2.6591,-2.6591,-2.6591,-2.6591,-2.6591,-2.6591,-2.6554,-2.6509,-2.6362,-2.6215,-2.605,-2.5858,-2.5647,-2.5408,-1.8225,-1.8009,-1.8493,-1.8274,-1.7608,-1.7861,-1.814,-1.8288,-1.8955,-1.9191,-1.9203,-1.9445,-1.9814,-2.0086,-2.0387,-2.0657,-2.0936,-2.1342,-2.1481,-2.1614,-2.1859,-2.2111,-2.2237,-2.2362,-2.2613,-2.2856,-2.2856,-2.2988,-2.3113,-2.3362,-2.323,-2.3106,-2.3355,-2.323,-2.3604,-2.4348,-2.5087,-2.6067,-2.6918,-2.6961,-2.7048,-2.7794,-2.8764,-2.8884,-2.9003,-2.8984,-2.8984,-2.8984,-2.8984,-2.8737,-2.8618,-2.8737,-2.8618,-2.8618,-2.8856,-2.8865,-2.8984,-2.8984,-2.8984,-2.8984,-2.8984,-2.8984,-2.8984,-2.8984,-2.8984,-2.8984,-2.8984,-2.8984,-2.8984,-2.8984,-2.8984,-2.8984,-2.8984,-2.8984,-2.8984,-2.8984,-2.8984,-2.8984,-2.8984,-2.8984,-2.8984,-2.8984,-2.8984,-2.8984,-2.8984,-2.8984,-2.8984,-2.8984,-2.8902,-2.8728,-2.8535,-2.815,-2.7884,-2.7609,-2.7242,-2.7105,-2.705,-2.6875,-2.6765,-2.6674,-2.66,-2.6591,-2.6591,-2.6591,-2.6591,-2.6591,-2.6582,-2.6564,-2.6554,-2.6573,-2.6481,-2.6298,-2.6197,-2.6068,-2.5766,-1.9037,-1.8813,-1.9024,-1.8658,-1.7855,-1.8258,-1.8407,-1.8551,-1.9057,-1.9485,-1.9898,-2.0133,-2.0519,-2.081,-2.1022,-2.1235,-2.1481,-2.1734,-2.1985,-2.2237,-2.2362,-2.2613,-2.2856,-2.2856,-2.2988,-2.3113,-2.3106,-2.3106,-2.3106,-2.3728,-2.3984,-2.3984,-2.41,-2.3976,-2.4479,-2.5456,-2.6424,-2.7039,-2.7891,-2.8077,-2.8197,-2.8435,-2.8984,-2.8984,-2.8984,-2.8984,-2.8984,-2.8984,-2.8984,-2.8984,-2.8984,-2.8984,-2.8984,-2.8984,-2.8984,-2.8984,-2.8984,-2.8984,-2.8984,-2.8984,-2.8984,-2.8984,-2.8984,-2.8984,-2.8984,-2.8984,-2.8984,-2.8984,-2.8984,-2.8984,-2.8984,-2.8984,-2.8984,-2.8984,-2.8984,-2.8984,-2.8984,-2.8984,-2.8984,-2.8984,-2.8984,-2.8984,-2.8984,-2.8984,-2.8984,-2.8984,-2.8984,-2.8975,-2.8902,-2.8847,-2.8673,-2.8526,-2.8278,-2.7994,-2.7636,-2.749,-2.7389,-2.7169,-2.694,-2.6848,-2.6756,-2.66,-2.6591,-2.6591,-2.6591,-2.6591,-2.6591,-2.6591,-2.6582,-2.6582,-2.6582,-2.6536,-2.6472,-2.6417,-2.6142,-1.9424,-1.9174,-1.9299,-1.8835,-1.8244,-1.872,-1.889,-1.9015,-1.9542,-2.0158,-2.0677,-2.094,-2.1027,-2.1321,-2.1614,-2.1734,-2.1853,-2.2104,-2.2362,-2.2487,-2.2738,-2.2863,-2.3106,-2.3355,-2.3611,-2.3611,-2.3976,-2.41,-2.4216,-2.4718,-2.4972,-2.5095,-2.5333,-2.5333,-2.5456,-2.6545,-2.7642,-2.8131,-2.8498,-2.8984,-2.8975,-2.8984,-2.8984,-2.8984,-2.8984,-2.8984,-2.8984,-2.8984,-2.8984,-2.8984,-2.8984,-2.8984,-2.8984,-2.8984,-2.8984,-2.8984,-2.8984,-2.8984,-2.8984,-2.8984,-2.8984,-2.8984,-2.8984,-2.8984,-2.8984,-2.8984,-2.8984,-2.8984,-2.8984,-2.8984,-2.8984,-2.8984,-2.8984,-2.8984,-2.8984,-2.8984,-2.8984,-2.8984,-2.8984,-2.8984,-2.8984,-2.8984,-2.8984,-2.8984,-2.8984,-2.8984,-2.8984,-2.8984,-2.8966,-2.8911,-2.8847,-2.8728,-2.8608,-2.8324,-2.804,-2.7948,-2.782,-2.7517,-2.7306,-2.7123,-2.6995,-2.6802,-2.6619,-2.6591,-2.6591,-2.6591,-2.6591,-2.6591,-2.6591,-2.6582,-2.6591,-2.6591,-2.6573,-2.649,-2.6435,-1.9263,-1.9004,-1.9263,-1.903,-1.8564,-1.9056,-1.9422,-1.9859,-2.0597,-2.1162,-2.14,-2.156,-2.1566,-2.1607,-2.1985,-2.2111,-2.2237,-2.248,-2.2606,-2.2738,-2.2863,-2.3113,-2.3355,-2.3852,-2.4232,-2.4734,-2.5095,-2.5456,-2.57,-2.5945,-2.6067,-2.6311,-2.6675,-2.6918,-2.6311,-2.7039,-2.8002,-2.8856,-2.8975,-2.8984,-2.8984,-2.8984,-2.8984,-2.8984,-2.8984,-2.8984,-2.8984,-2.8984,-2.8984,-2.8984,-2.8984,-2.8984,-2.8984,-2.8984,-2.8984,-2.8984,-2.8984,-2.8984,-2.8984,-2.8984,-2.9012,-2.8993,-2.8984,-2.8984,-2.8984,-2.8984,-2.8984,-2.8984,-2.8984,-2.8984,-2.8984,-2.8984,-2.8984,-2.8984,-2.8984,-2.8984,-2.8984,-2.8984,-2.8984,-2.8984,-2.8984,-2.8984,-2.8984,-2.8984,-2.8984,-2.8984,-2.8984,-2.8984,-2.8984,-2.8966,-2.892,-2.8883,-2.8792,-2.8673,-2.8443,-2.8407,-2.8251,-2.793,-2.7618,-2.7389,-2.7169,-2.6949,-2.6793,-2.6646,-2.6591,-2.6591,-2.6591,-2.6591,-2.6591,-2.6591,-2.6591,-2.6591,-2.6591,-2.6573,-2.6509,-1.9366,-1.9243,-1.9584,-1.9584,-1.9359,-1.9569,-1.9902,-2.0472,-2.1181,-2.1576,-2.1685,-2.1859,-2.1985,-2.1985,-2.2362,-2.2487,-2.248,-2.2731,-2.2981,-2.2981,-2.323,-2.3106,-2.3479,-2.4232,-2.4734,-2.4857,-2.5586,-2.6197,-2.6075,-2.6675,-2.7039,-2.728,-2.7944,-2.825,-2.8131,-2.8379,-2.8737,-2.8984,-2.8984,-2.8984,-2.8984,-2.8984,-2.8984,-2.8984,-2.8984,-2.8984,-2.8984,-2.8984,-2.8984,-2.8984,-2.8984,-2.8984,-2.8984,-2.8984,-2.8984,-2.8984,-2.8984,-2.8984,-2.9048,-2.8993,-2.9048,-2.9104,-2.9058,-2.9076,-2.8993,-2.8984,-2.8984,-2.8984,-2.8984,-2.8984,-2.8984,-2.8984,-2.8984,-2.8984,-2.8984,-2.8984,-2.8984,-2.8984,-2.8984,-2.8984,-2.8984,-2.8984,-2.8984,-2.8984,-2.8984,-2.8984,-2.8984,-2.8984,-2.8984,-2.8984,-2.8957,-2.8966,-2.892,-2.8893,-2.8819,-2.87,-2.8563,-2.8287,-2.7893,-2.7536,-2.7315,-2.7114,-2.6839,-2.6637,-2.6609,-2.6591,-2.6591,-2.6591,-2.6591,-2.6591,-2.6591,-2.6591,-2.6591,-2.6591,-2.6573,-1.9591,-1.9707,-1.9931,-2.004,-2.0053,-2.015,-2.0496,-2.1047,-2.1448,-2.1498,-2.1651,-2.2004,-2.2061,-2.2338,-2.293,-2.3238,-2.3355,-2.3969,-2.4216,-2.4092,-2.4216,-2.434,-2.4595,-2.4964,-2.5823,-2.5823,-2.6432,-2.7168,-2.7289,-2.7762,-2.8099,-2.8447,-2.8817,-2.8983,-2.9066,-2.8993,-2.8984,-2.8984,-2.8984,-2.8984,-2.8984,-2.8984,-2.8984,-2.8984,-2.8984,-2.8984,-2.8984,-2.8984,-2.8984,-2.8984,-2.8984,-2.8984,-2.8984,-2.8984,-2.8984,-2.8984,-2.9131,-2.9084,-2.9025,-2.8994,-2.9207,-2.9981,-2.9573,-2.9333,-2.9241,-2.9232,-2.9104,-2.9048,-2.9003,-2.9003,-2.9012,-2.9012,-2.9012,-2.9021,-2.8993,-2.8993,-2.8984,-2.8984,-2.8984,-2.8984,-2.8984,-2.8984,-2.8984,-2.8984,-2.8984,-2.8984,-2.8984,-2.8984,-2.8984,-2.8984,-2.8984,-2.8984,-2.8984,-2.8948,-2.8938,-2.892,-2.8773,-2.8618,-2.826,-2.7875,-2.7621,-2.7418,-2.7078,-2.6655,-2.6619,-2.6591,-2.6591,-2.6591,-2.6591,-2.6591,-2.6591,-2.6591,-2.6591,-2.6591,-2.6591,-2.0046,-2.027,-2.0277,-2.05,-2.0651,-2.0646,-2.1081,-2.1625,-2.1428,-2.1456,-2.1718,-2.2062,-2.2436,-2.2602,-2.3832,-2.4595,-2.4595,-2.5464,-2.57,-2.5823,-2.5578,-2.57,-2.6067,-2.6667,-2.6788,-2.7521,-2.8131,-2.8379,-2.8856,-2.8737,-2.8919,-2.9249,-2.9221,-2.9342,-2.9259,-2.914,-2.8993,-2.8984,-2.8984,-2.8984,-2.8984,-2.8984,-2.8984,-2.8984,-2.8984,-2.8984,-2.8984,-2.8984,-2.8984,-2.8984,-2.8984,-2.8984,-2.8984,-2.8984,-2.8984,-2.9113,-2.9388,-2.941,-2.9355,-2.9304,-2.9874,-3.0584,-3.0442,-3.0098,-2.9654,-2.9443,-2.9287,-2.9131,-2.9058,-2.9058,-2.9058,-2.9067,-2.9085,-2.9058,-2.9012,-2.9003,-2.8984,-2.8984,-2.8984,-2.8984,-2.8984,-2.8984,-2.8984,-2.8984,-2.8984,-2.8984,-2.8984,-2.8984,-2.8984,-2.8984,-2.8984,-2.8984,-2.8984,-2.8984,-2.8984,-2.8984,-2.8948,-2.8773,-2.8673,-2.8333,-2.8054,-2.7602,-2.7253,-2.6866,-2.6674,-2.66,-2.6591,-2.6591,-2.6591,-2.6591,-2.6591,-2.6591,-2.6591,-2.6591,-2.6591,-2.0155,-2.027,-2.0493,-2.0608,-2.0737,-2.0946,-2.1176,-2.1353,-2.1701,-2.1802,-2.1809,-2.2968,-2.3278,-2.3635,-2.5059,-2.5538,-2.5815,-2.5953,-2.5953,-2.6197,-2.6441,-2.6197,-2.6432,-2.7159,-2.7401,-2.7882,-2.837,-2.8984,-2.8993,-2.8993,-2.9048,-2.9122,-2.9314,-2.9259,-2.9186,-2.9058,-2.9021,-2.8984,-2.8984,-2.8984,-2.8984,-2.8984,-2.8984,-2.8984,-2.8984,-2.8984,-2.8984,-2.8984,-2.8984,-2.8984,-2.8984,-2.8984,-2.8984,-2.8993,-2.9048,-2.9424,-2.9755,-3.0075,-3.0071,-2.9976,-3.0274,-3.0904,-3.0589,-3.0034,-2.9678,-2.9571,-2.9434,-2.9269,-2.9305,-2.9388,-2.9369,-2.9351,-2.9324,-2.9278,-2.9168,-2.8993,-2.8984,-2.8984,-2.8984,-2.8984,-2.8984,-2.8984,-2.8984,-2.8984,-2.8984,-2.8984,-2.8984,-2.8984,-2.8984,-2.8984,-2.8984,-2.8984,-2.8984,-2.8984,-2.8984,-2.8984,-2.8984,-2.8938,-2.8819,-2.8663,-2.8162,-2.7715,-2.738,-2.7013,-2.6729,-2.6619,-2.6591,-2.6591,-2.6591,-2.6591,-2.6591,-2.6591,-2.6591,-2.6591,-2.6591,-2.05,-2.0622,-2.0845,-2.0845,-2.0967,-2.1089,-2.1328,-2.1743,-2.1825,-2.1781,-2.2149,-2.3142,-2.3921,-2.4443,-2.5683,-2.6439,-2.6456,-2.7099,-2.7409,-2.7409,-2.7159,-2.7401,-2.753,-2.7771,-2.8131,-2.837,-2.8618,-2.8984,-2.9039,-2.9333,-2.9461,-2.9278,-2.9324,-2.9314,-2.9287,-2.9259,-2.914,-2.9048,-2.8984,-2.8984,-2.8984,-2.8984,-2.8984,-2.8984,-2.8984,-2.8984,-2.8984,-2.8984,-2.8993,-2.8984,-2.8984,-2.9085,-2.9204,-2.9369,-2.9663,-3.003,-3.0259,-3.0552,-3.0736,-3.0737,-3.0901,-3.0837,-3.0609,-3.0253,-2.9961,-2.9865,-2.9617,-2.9424,-2.9644,-2.981,-2.9745,-2.969,-2.9617,-2.9553,-2.9287,-2.9003,-2.8984,-2.8984,-2.8984,-2.8984,-2.8984,-2.8984,-2.8984,-2.8984,-2.8984,-2.8984,-2.8984,-2.8984,-2.8984,-2.8984,-2.8984,-2.8984,-2.8984,-2.8984,-2.8984,-2.8984,-2.8984,-2.8966,-2.8902,-2.8718,-2.8246,-2.7934,-2.749,-2.7077,-2.6719,-2.6646,-2.66,-2.6591,-2.6591,-2.6591,-2.6591,-2.6591,-2.6591,-2.6591,-2.6591,-2.1074,-2.1432,-2.1318,-2.1318,-2.1318,-2.131,-2.1881,-2.2523,-2.1926,-2.1888,-2.264,-2.3142,-2.3964,-2.5053,-2.6385,-2.7077,-2.7463,-2.8152,-2.8498,-2.8984,-2.8618,-2.8498,-2.8618,-2.8984,-2.8737,-2.8865,-2.8984,-2.8993,-2.9177,-2.9379,-2.9525,-2.9553,-2.9727,-2.9681,-2.9489,-2.9479,-2.936,-2.9186,-2.9122,-2.9104,-2.9003,-2.8984,-2.8984,-2.8984,-2.8984,-2.8984,-2.8993,-2.9012,-2.903,-2.9039,-2.9149,-2.9342,-2.9599,-2.9984,-3.0369,-3.0598,-3.0736,-3.0937,-3.1121,-3.1222,-3.1093,-3.081,-3.0329,-3.0283,-3.0199,-3.0103,-2.9846,-2.9791,-2.9993,-3.0195,-3.0195,-3.0103,-3.002,-2.9901,-2.969,-2.9489,-2.9406,-2.9305,-2.9122,-2.9085,-2.8984,-2.8984,-2.8984,-2.8984,-2.8984,-2.8984,-2.8984,-2.8984,-2.8984,-2.8984,-2.8984,-2.8984,-2.8984,-2.8984,-2.8984,-2.8984,-2.8984,-2.8966,-2.8929,-2.8801,-2.8445,-2.8095,-2.7563,-2.7196,-2.6866,-2.6692,-2.6619,-2.6609,-2.6591,-2.6591,-2.6591,-2.6591,-2.6591,-2.6591,-2.6591,-2.2531,-2.3215,-2.2531,-2.2191,-2.2191,-2.2191,-2.2757,-2.3544,-2.332,-2.332,-2.3713,-2.4582,-2.5349,-2.595,-2.724,-2.7957,-2.8373,-2.861,-2.8957,-2.8984,-2.8984,-2.8984,-2.8984,-2.8984,-2.8984,-2.8984,-2.8984,-2.8984,-2.9076,-2.9223,-2.9287,-2.9159,-2.9406,-2.9498,-2.9534,-2.9544,-2.9534,-2.9296,-2.9351,-2.9195,-2.9003,-2.8984,-2.8984,-2.8984,-2.8984,-2.9003,-2.9085,-2.9278,-2.936,-2.9452,-2.9773,-2.9797,-2.9747,-3.0299,-3.0653,-3.0664,-3.1038,-3.1222,-3.1313,-3.1368,-3.1249,-3.0975,-3.0656,-3.0628,-3.0436,-3.0341,-3.0222,-3.0231,-3.0332,-3.0525,-3.0616,-3.0516,-3.0396,-3.025,-3.0085,-2.9956,-2.9819,-2.9553,-2.9287,-2.9131,-2.9012,-2.8984,-2.8984,-2.8984,-2.8984,-2.8984,-2.8984,-2.8984,-2.8984,-2.8984,-2.8984,-2.8984,-2.8984,-2.8984,-2.8984,-2.8984,-2.8984,-2.8984,-2.8966,-2.8819,-2.8636,-2.8196,-2.7728,-2.7361,-2.704,-2.6885,-2.6729,-2.6609,-2.6591,-2.6591,-2.6591,-2.6591,-2.6591,-2.6591,-2.6591,-2.3432,-2.3768,-2.3311,-2.3087,-2.3087,-2.3087,-2.3648,-2.4326,-2.4437,-2.4778,-2.5017,-2.5456,-2.5907,-2.6581,-2.7609,-2.8251,-2.8572,-2.8847,-2.8938,-2.8984,-2.8984,-2.8984,-2.8984,-2.8984,-2.8984,-2.8984,-2.8984,-2.8984,-2.8993,-2.9204,-2.9278,-2.9104,-2.9214,-2.9434,-2.9498,-2.958,-2.9644,-2.9314,-2.9489,-2.9342,-2.903,-2.8984,-2.8984,-2.8984,-2.8993,-2.9058,-2.9278,-2.9498,-2.9644,-2.9892,-3.0222,-3.0387,-3.039,-3.0827,-3.1011,-3.1102,-3.1231,-3.1377,-3.1377,-3.1359,-3.1304,-3.0984,-3.1138,-3.0935,-3.0591,-3.0525,-3.0525,-3.0561,-3.0837,-3.1038,-3.0947,-3.0855,-3.0699,-3.0543,-3.025,-3.002,-2.9819,-2.9571,-2.9296,-2.9058,-2.8984,-2.8984,-2.8984,-2.8984,-2.8984,-2.8984,-2.8984,-2.8984,-2.8984,-2.8984,-2.8984,-2.8984,-2.8984,-2.8984,-2.8984,-2.8984,-2.8984,-2.8984,-2.8984,-2.8792,-2.8581,-2.8269,-2.7911,-2.7609,-2.7325,-2.7086,-2.693,-2.6765,-2.6619,-2.6591,-2.6591,-2.6591,-2.66,-2.6655,-2.6738,-2.4103,-2.4103,-2.4103,-2.4103,-2.4103,-2.4103,-2.4548,-2.534,-2.534,-2.5798,-2.6254,-2.5697,-2.5943,-2.6764,-2.738,-2.7701,-2.8132,-2.8755,-2.8948,-2.8984,-2.8984,-2.8984,-2.8984,-2.8984,-2.8984,-2.8984,-2.8984,-2.8984,-2.8984,-2.9177,-2.9259,-2.9232,-2.9479,-2.98,-2.9544,-2.9654,-2.9883,-2.9461,-2.9369,-2.9314,-2.914,-2.8984,-2.8984,-2.8984,-2.9186,-2.9379,-2.9479,-2.9755,-2.9938,-3.025,-3.0626,-3.0791,-3.0901,-3.1121,-3.1222,-3.1322,-3.1313,-3.1377,-3.1377,-3.1368,-3.1194,-3.1011,-3.1219,-3.1182,-3.0855,-3.0846,-3.0846,-3.0965,-3.1231,-3.1304,-3.1212,-3.1139,-3.0974,-3.0846,-3.0516,-3.0222,-2.9984,-2.9755,-2.9489,-2.9195,-2.9076,-2.9076,-2.8984,-2.8984,-2.8984,-2.8984,-2.8984,-2.8984,-2.8984,-2.8984,-2.8984,-2.8984,-2.8984,-2.8984,-2.8984,-2.8984,-2.8984,-2.8984,-2.8957,-2.8755,-2.859,-2.848,-2.8269,-2.7939,-2.7664,-2.7453,-2.715,-2.6921,-2.6784,-2.6674,-2.6591,-2.6619,-2.6802,-2.6866,-2.6976,-2.5,-2.4889,-2.5,-2.5008,-2.5,-2.5,-2.545,-2.6245,-2.6354,-2.6473,-2.6473,-2.6537,-2.6774,-2.7536,-2.7646,-2.7967,-2.8498,-2.8902,-2.8948,-2.8984,-2.8984,-2.8984,-2.8984,-2.8984,-2.8984,-2.8984,-2.8984,-2.8984,-2.9021,-2.9104,-2.925,-2.9415,-2.9525,-2.9819,-3.0057,-3.0103,-2.9965,-2.9571,-2.9369,-2.9333,-2.914,-2.9021,-2.8984,-2.9232,-2.9601,-2.973,-2.9849,-3.0241,-3.0506,-3.0772,-3.0992,-3.1157,-3.124,-3.1295,-3.135,-3.1377,-3.1377,-3.1377,-3.1377,-3.1377,-3.1203,-3.1222,-3.134,-3.135,-3.1176,-3.1185,-3.1185,-3.1185,-3.1359,-3.1359,-3.1304,-3.1304,-3.1203,-3.1203,-3.1011,-3.0781,-3.0543,-3.036,-3.0149,-2.9745,-2.9397,-2.9232,-2.8984,-2.8984,-2.8984,-2.8984,-2.8984,-2.8984,-2.8984,-2.8984,-2.8984,-2.8984,-2.8984,-2.8984,-2.8984,-2.8984,-2.8984,-2.8984,-2.8966,-2.8856,-2.8819,-2.8874,-2.8654,-2.8324,-2.8104,-2.7911,-2.7581,-2.7242,-2.7004,-2.6875,-2.6664,-2.6655,-2.6894,-2.7132,-2.7288]},{"header":{"parameterUnit":"m.s-1","parameterCategory":1,"la1":31.0,"la2":29.5877,"lo1":-88.7671,"lo2":-86.6584,"dy":0.0162,"dx":0.0185,"nx":115,"ny":88,"refTime":"2023-06-10T00:00:00:Z","depth":0,"parameterNumber":3,"parameterNumberName":"V-component_of_WINDS"},"data":[0.0,0.0,0.0,0.0,0.0,0.0,0.0,0.0,0.0,0.0,0.0,0.0,0.0,0.0,0.0,0.0,0.0,0.0,0.0,0.0,0.0,0.0,0.0,0.0,0.0,0.0,0.0,0.0,0.0,0.0,0.0,0.0,0.0,0.0,0.0,0.0,0.0,0.0,0.0,0.0,0.0,0.0,0.0,0.0,0.0,0.0,0.0,0.0,0.0,0.0,0.0,0.0,0.0,0.0,0.0,0.0,0.0,0.0,0.0,0.0,0.0,0.0,0.0,0.0,0.0,0.0,0.0,0.0,0.0,0.0,0.0,0.0,0.0,0.0,0.0,0.0,0.0,0.0,0.0,0.0,0.0,0.0,0.0,0.0,0.0,0.0,0.0,0.0,0.0,0.0,0.0,0.0,0.0,0.0,0.0,0.0,0.0,0.0,0.0,0.0,0.0,0.0,0.0,0.0,0.0,0.0,0.0,0.0,0.0,0.0,0.0,0.0,0.0,0.0,0.0,0.0,0.0,0.0,0.0,0.0,0.0,0.0,0.0,0.0,0.0,0.0,0.0,0.0,0.0,0.0,0.0,0.0,0.0,0.0,0.0,0.0,0.0,0.0,0.0,0.0,0.0,0.0,0.0,0.0,0.0,0.0,0.0,0.0,0.0,0.0,0.0,0.0,0.0,0.0,0.0,0.0,0.0,0.0,0.0,0.0,0.0,0.0,0.0,0.0,0.0,0.0,0.0,0.0,0.0,0.0,0.0,0.0,0.0,0.0,0.0,0.0,0.0,0.0,0.0,0.0,0.0,0.0,0.0,0.0,0.0,0.0,0.0,0.0,0.0,0.0,0.0,0.0,0.0,0.0,0.0,0.0,0.0,0.0,0.0,0.0,0.0,0.0,0.0,0.0,0.0,0.0,0.0,0.0,0.0,0.0,0.0,0.0,0.0,0.0,0.0,0.0,0.0,0.0,0.0,0.0,0.0,0.0,0.0,0.0,0.0,0.0,0.0,0.0,0.0,0.0,0.0,0.0,0.0,0.0,0.0,0.0,0.0,0.0,0.0,0.0,0.0,0.0,0.0,0.0,0.0,0.0,0.0,0.0,0.0,0.0,0.0,0.0,0.0,0.0,0.0,0.0,0.0,0.0,0.0,0.0,0.0,0.0,0.0,0.0,0.0,0.0,0.0,0.0,0.0,0.0,0.0,0.0,0.0,0.0,0.0,0.0,0.0,0.0,0.0,0.0,0.0,0.0,0.0,0.0,0.0,0.0,0.0,0.0,0.0,0.0,0.0,0.0,0.0,0.0,0.0,0.0,0.0,0.0,0.0,0.0,0.0,0.0,0.0,0.0,0.0,0.0,0.0,0.0,0.0,0.0,0.0,0.0,0.0,0.0,0.0,0.0,0.0,0.0,0.0,0.0,0.0,0.0,0.0,0.0,0.0,0.0,0.0,0.0,0.0,0.0,0.0,0.0,0.0,0.0,0.0,0.0,0.0,0.0,0.0,0.0,0.0,0.0,0.0,0.0,0.0,0.0,0.0,0.0,0.0,0.0,0.0,0.0,0.0,0.0,0.0,0.0,0.0,0.0,0.0,0.0,0.0,0.0,0.0,0.0,0.0,0.0,0.0,0.0,0.0,0.0,0.0,0.0,0.0,0.0,0.0,0.0,0.0,0.0,0.0,0.0,0.0,0.0,0.0,0.0,0.0,0.0,0.0,0.0,0.0,0.0,0.0,0.0,0.0,0.0,0.0,0.0,0.0,0.0,0.0,0.0,0.0,0.0,0.0,0.0,0.0,0.0,0.0,0.0,0.0,0.0,0.0,0.0,0.0,0.0,0.0,0.0,0.0,0.0,0.0,0.0,0.0,0.0,0.0,0.0,0.0,0.0,0.0,0.0,0.0,0.0,0.0,0.0,0.0,0.0,0.0,0.0,0.0,0.0,0.0,0.0,0.0,0.0,0.0,0.0,0.0,0.0,0.0,0.0,0.0,0.0,0.0,0.0,0.0,0.0,0.0,0.0,0.0,0.0,0.0,0.0,0.0,0.0,0.0,0.0,0.0,0.0,0.0,0.0,0.0,0.0,0.0,0.0,0.0,0.0,0.0,0.0,0.0,0.0,0.0,0.0,0.0,0.0,0.0,0.0,0.0,0.0,0.0,0.0,0.0,0.0,0.0,0.0,0.0,0.0,0.0,0.0,0.0,0.0,0.0,0.0,0.0,0.0,0.0,0.0,0.0,0.0,0.0,0.0,0.0,0.0,0.0,0.0,0.0,0.0,0.0,0.0,0.0,0.0,0.0,0.0,0.0,0.0,0.0,0.0,0.0,0.0,0.0,0.0,0.0,0.0,0.0,0.0,0.0,0.0,0.0,0.0,0.0,0.0,0.0,0.0,0.0,0.0,0.0,0.0,0.0,0.0,0.0,0.0,0.0,0.0,0.0,0.0,0.0,0.0,0.0,0.0,0.0,0.0,0.0,0.0,0.0,0.0,0.0,0.0,0.0,0.0,0.0,0.0,0.0,0.0,0.0,0.0,0.0,0.0,0.0,0.0,0.0,0.0,0.0,0.0,0.0,0.0,0.0,0.0,0.0,0.0,0.0,0.0,0.0,0.0,0.0,0.0,0.0,0.0,0.0,0.0,0.0,0.0,0.0,0.0,0.0,0.0,0.0,0.0,0.0,0.0,0.0,0.0,0.0,0.0,0.0,0.0,0.0,0.0,0.0,0.0,0.0,0.0,0.0,0.0,0.0,0.0,0.0,0.0,0.0,0.0,0.0,0.0,0.0,0.0,0.0,0.0,0.0,0.0,0.0,0.0,0.0,0.0,0.0,0.0,0.0,0.0,0.0,0.0,0.0,0.0,0.0,0.0,0.0,0.0,0.0,0.0,0.0,0.0,0.0,0.0,0.0,0.0,0.0,0.0,0.0,0.0,0.0,0.0,0.0,0.0,0.0,0.0,0.0,0.0,0.0,0.0,0.0,0.0,0.0,0.0,0.0,0.0,0.0,0.0,0.0,0.0,0.0,0.0,0.0,0.0,0.0,0.0,0.0,0.0,0.0,0.0,0.0,0.0,0.0,0.0,0.0,0.0,0.0,0.0,0.0,0.0,0.0,0.0,0.0,0.0,0.0,0.0,0.0,0.0,0.0,0.0,0.0,0.0,0.0,0.0,0.0,0.0,0.0,0.0,0.0,0.0,0.0,0.0,0.0,0.0,0.0,0.0,0.0,0.0,0.0,0.0,0.0,0.0,0.0,0.0,0.0,0.0,0.0,0.0,0.0,0.0,0.0,0.0,0.0,0.0,0.0,0.0,0.0,0.0,0.0,0.0,0.0,0.0,0.0,0.0,0.0,0.0,0.0,0.0,0.0,0.0,0.0,0.0,0.0,0.0,0.0,0.0,0.0,0.0,0.0,0.0,0.0,0.0,0.0,0.0,0.0,0.0,0.0,0.0,0.0,0.0,0.0,0.0,0.0,0.0,0.0,0.0,0.0,0.0,0.0,0.0,0.0,0.0,0.0,0.0,0.0,0.0,0.0,0.0,0.0,0.0,0.0,0.0,0.0,0.0,0.0,0.0,0.0,0.0,0.0,0.0,0.0,0.0,0.0,0.0,0.0,0.0,0.0,0.0,0.0,0.0,0.0,0.0,0.0,0.0,0.0,0.0,0.0,0.0,0.0,0.0,0.0,0.0,0.0,0.0,0.0,0.0,0.0,0.0,0.0,0.0,0.0,0.0,0.0,0.0,0.0,0.0,0.0,0.0,0.0,0.0,0.0,0.0,0.0,0.0,0.0,0.0,0.0,0.0,0.0,0.0,0.0,0.0,0.0,0.0,0.0,0.0,0.0,0.0,0.0,0.0,0.0,0.0,0.0,0.0,0.0,0.0,0.0,0.0,0.0,0.0,0.0,0.0,0.0,0.0,0.0,0.0,0.0,0.0,0.0,0.0,0.0,0.0,0.0,0.0,0.0,0.0,0.0,0.0,0.0,0.0,0.0,0.0,0.0,0.0,0.0,0.0,0.0,0.0,0.0,0.0,0.0,0.0,0.0,0.0,0.0,0.0,0.0,0.0,0.0,0.0,0.0,0.0,0.0,0.0,0.0,0.0,0.0,0.0,0.0,0.0,0.0,0.0,0.0,0.0,0.0,0.0,0.0,0.0,0.0,0.0,0.0,0.0,0.0,0.0,0.0,0.0,0.0,0.0,0.0,0.0,0.0,0.0,0.0,0.0,0.0,0.0,0.0,0.0,0.0,0.0,0.0,0.0,0.0,0.0,-0.9862,0.0,0.0,0.0,0.0,0.0,0.0,0.0,0.0,0.0,0.0,0.0,0.0,0.0,0.0,0.0,0.0,0.0,0.0,0.0,0.0,0.0,0.0,0.0,0.0,0.0,0.0,0.0,0.0,0.0,0.0,0.0,0.0,0.0,0.0,0.0,0.0,0.0,0.0,0.0,0.0,0.0,0.0,0.0,0.0,0.0,0.0,0.0,0.0,0.0,0.0,0.0,0.0,0.0,0.0,0.0,0.0,0.0,0.0,0.0,0.0,0.0,0.0,0.0,0.0,0.0,0.0,0.0,0.0,0.0,0.0,0.0,0.0,0.0,0.0,0.0,0.0,0.0,0.0,0.0,0.0,0.0,0.0,0.0,0.0,0.0,0.0,0.0,0.0,0.0,0.0,0.0,0.0,0.0,0.0,0.0,0.0,0.0,0.0,0.0,0.0,0.0,0.0,0.0,0.0,0.0,0.0,0.0,0.0,0.0,0.0,-1.03,-0.9863,-0.9825,-1.0068,-1.0662,0.0,0.0,0.0,0.0,0.0,0.0,0.0,0.0,0.0,0.0,0.0,0.0,0.0,0.0,0.0,0.0,0.0,0.0,0.0,0.0,0.0,0.0,0.0,0.0,0.0,0.0,0.0,0.0,0.0,0.0,0.0,0.0,0.0,0.0,0.0,0.0,0.0,0.0,0.0,0.0,0.0,0.0,0.0,0.0,0.0,0.0,0.0,0.0,0.0,0.0,0.0,0.0,0.0,0.0,0.0,0.0,0.0,0.0,0.0,0.0,0.0,0.0,0.0,0.0,0.0,0.0,0.0,0.0,0.0,0.0,0.0,0.0,0.0,0.0,0.0,0.0,0.0,0.0,0.0,0.0,0.0,0.0,0.0,0.0,0.0,0.0,0.0,0.0,0.0,0.0,0.0,0.0,0.0,0.0,0.0,0.0,0.0,0.0,0.0,0.0,0.0,0.0,0.0,0.0,0.0,0.0,0.0,0.0,0.0,0.0,0.0,0.0,-1.05,-1.0947,-1.1897,0.0,0.0,0.0,0.0,0.0,0.0,0.0,0.0,0.0,0.0,0.0,0.0,0.0,0.0,0.0,0.0,0.0,0.0,0.0,0.0,0.0,0.0,0.0,0.0,0.0,0.0,0.0,0.0,0.0,0.0,0.0,0.0,0.0,0.0,0.0,0.0,0.0,0.0,0.0,0.0,0.0,0.0,0.0,0.0,0.0,0.0,0.0,0.0,0.0,0.0,0.0,0.0,0.0,0.0,0.0,0.0,0.0,0.0,0.0,0.0,0.0,0.0,0.0,0.0,0.0,0.0,0.0,0.0,0.0,0.0,0.0,0.0,0.0,0.0,0.0,0.0,0.0,0.0,0.0,0.0,0.0,0.0,0.0,0.0,0.0,0.0,0.0,0.0,0.0,0.0,0.0,0.0,0.0,0.0,0.0,0.0,0.0,0.0,0.0,0.0,0.0,0.0,0.0,0.0,0.0,0.0,0.0,0.0,0.0,0.0,-1.2429,-1.2353,-1.2349,0.0,-1.3693,0.0,0.0,0.0,0.0,0.0,0.0,0.0,0.0,0.0,0.0,0.0,0.0,0.0,0.0,0.0,0.0,0.0,0.0,0.0,0.0,0.0,0.0,0.0,0.0,0.0,0.0,0.0,0.0,0.0,0.0,0.0,0.0,0.0,0.0,0.0,0.0,0.0,0.0,0.0,0.0,0.0,0.0,0.0,0.0,0.0,0.0,0.0,0.0,0.0,0.0,0.0,0.0,0.0,0.0,0.0,0.0,0.0,0.0,0.0,0.0,0.0,0.0,0.0,0.0,0.0,0.0,0.0,0.0,0.0,0.0,0.0,0.0,0.0,0.0,0.0,0.0,0.0,0.0,0.0,0.0,0.0,0.0,0.0,0.0,0.0,0.0,0.0,0.0,0.0,0.0,0.0,0.0,0.0,0.0,0.0,0.0,0.0,0.0,0.0,0.0,0.0,0.0,0.0,0.0,0.0,0.0,0.0,0.0,0.0,0.0,-1.3176,-1.2683,-1.3195,-1.3674,0.0,0.0,0.0,0.0,0.0,0.0,0.0,0.0,0.0,0.0,0.0,0.0,0.0,0.0,0.0,0.0,0.0,0.0,0.0,0.0,0.0,0.0,0.0,0.0,0.0,0.0,0.0,0.0,0.0,0.0,0.0,0.0,0.0,0.0,0.0,0.0,0.0,0.0,0.0,0.0,0.0,0.0,0.0,0.0,0.0,0.0,0.0,0.0,0.0,0.0,0.0,0.0,0.0,0.0,0.0,0.0,0.0,0.0,0.0,0.0,0.0,0.0,0.0,0.0,0.0,0.0,0.0,0.0,0.0,0.0,0.0,0.0,0.0,0.0,0.0,0.0,0.0,0.0,0.0,0.0,0.0,0.0,0.0,0.0,0.0,0.0,0.0,0.0,0.0,0.0,0.0,0.0,0.0,0.0,0.0,0.0,0.0,0.0,0.0,0.0,0.0,0.0,0.0,0.0,0.0,0.0,0.0,0.0,0.0,0.0,-1.4347,-1.4058,-1.3535,-1.4118,-1.4467,-1.4459,0.0,0.0,0.0,0.0,0.0,0.0,0.0,0.0,0.0,0.0,0.0,0.0,0.0,0.0,0.0,0.0,0.0,0.0,0.0,0.0,0.0,0.0,0.0,0.0,0.0,0.0,0.0,0.0,0.0,0.0,0.0,0.0,0.0,0.0,0.0,0.0,0.0,0.0,0.0,0.0,0.0,0.0,0.0,0.0,0.0,0.0,0.0,0.0,0.0,0.0,0.0,0.0,0.0,0.0,0.0,0.0,0.0,0.0,0.0,0.0,0.0,0.0,0.0,0.0,0.0,0.0,0.0,0.0,0.0,0.0,0.0,0.0,0.0,0.0,0.0,0.0,0.0,0.0,0.0,0.0,0.0,0.0,0.0,0.0,0.0,0.0,0.0,0.0,0.0,0.0,0.0,0.0,0.0,0.0,0.0,0.0,0.0,0.0,0.0,0.0,0.0,0.0,0.0,0.0,0.0,0.0,0.0,0.0,-1.5233,-1.5226,-1.5244,-1.5229,-1.5321,-1.5335,0.0,0.0,0.0,0.0,0.0,0.0,0.0,0.0,0.0,0.0,0.0,0.0,0.0,0.0,0.0,0.0,0.0,0.0,0.0,0.0,0.0,0.0,0.0,0.0,0.0,0.0,0.0,0.0,0.0,0.0,0.0,0.0,0.0,0.0,0.0,0.0,0.0,0.0,0.0,0.0,0.0,0.0,0.0,0.0,0.0,0.0,0.0,0.0,0.0,0.0,0.0,0.0,0.0,0.0,0.0,0.0,0.0,0.0,0.0,0.0,0.0,0.0,0.0,0.0,0.0,0.0,0.0,0.0,0.0,0.0,0.0,0.0,0.0,0.0,0.0,0.0,0.0,0.0,0.0,0.0,0.0,0.0,0.0,0.0,0.0,0.0,0.0,0.0,0.0,0.0,0.0,0.0,0.0,0.0,0.0,0.0,0.0,0.0,0.0,0.0,0.0,0.0,0.0,0.0,0.0,0.0,0.0,0.0,0.0,-1.5283,-1.5357,-1.5381,-1.5401,-1.5412,-1.5409,0.0,0.0,0.0,0.0,0.0,0.0,0.0,0.0,0.0,0.0,0.0,0.0,0.0,0.0,0.0,0.0,0.0,0.0,0.0,0.0,0.0,0.0,0.0,0.0,0.0,0.0,0.0,0.0,0.0,0.0,0.0,0.0,0.0,0.0,0.0,0.0,0.0,0.0,0.0,0.0,0.0,0.0,0.0,0.0,0.0,0.0,0.0,0.0,0.0,0.0,0.0,0.0,0.0,0.0,0.0,0.0,0.0,0.0,0.0,0.0,0.0,0.0,0.0,0.0,0.0,0.0,0.0,0.0,0.0,0.0,0.0,0.0,0.0,0.0,0.0,0.0,0.0,0.0,0.0,0.0,0.0,0.0,0.0,0.0,0.0,0.0,0.0,0.0,0.0,0.0,0.0,0.0,0.0,0.0,0.0,0.0,0.0,0.0,0.0,0.0,0.0,0.0,0.0,0.0,0.0,0.0,0.0,0.0,0.0,-1.5338,0.0,-1.5414,-1.5412,-1.5403,-1.5405,0.0,0.0,0.0,0.0,0.0,0.0,0.0,0.0,0.0,0.0,0.0,0.0,0.0,0.0,0.0,0.0,0.0,0.0,0.0,0.0,0.0,0.0,0.0,0.0,0.0,0.0,0.0,0.0,0.0,0.0,0.0,0.0,0.0,0.0,0.0,0.0,0.0,0.0,0.0,0.0,0.0,0.0,0.0,0.0,0.0,0.0,0.0,0.0,0.0,0.0,0.0,0.0,0.0,0.0,0.0,0.0,0.0,0.0,0.0,0.0,0.0,0.0,0.0,0.0,0.0,0.0,0.0,0.0,0.0,0.0,0.0,0.0,0.0,0.0,0.0,0.0,0.0,0.0,0.0,0.0,0.0,0.0,0.0,0.0,0.0,0.0,0.0,0.0,0.0,0.0,0.0,0.0,0.0,0.0,0.0,0.0,0.0,0.0,0.0,0.0,0.0,0.0,0.0,0.0,0.0,0.0,0.0,0.0,-1.5438,-1.5428,-1.5424,-1.5469,-1.542,-1.5452,-1.5433,0.0,0.0,0.0,0.0,0.0,0.0,0.0,0.0,0.0,0.0,0.0,0.0,0.0,0.0,0.0,0.0,0.0,0.0,0.0,0.0,0.0,0.0,0.0,0.0,0.0,0.0,0.0,0.0,0.0,0.0,0.0,0.0,0.0,0.0,0.0,0.0,0.0,0.0,0.0,0.0,0.0,0.0,0.0,0.0,0.0,0.0,0.0,0.0,0.0,0.0,0.0,0.0,0.0,0.0,0.0,0.0,0.0,0.0,0.0,0.0,0.0,0.0,0.0,0.0,0.0,0.0,0.0,0.0,0.0,0.0,0.0,0.0,0.0,0.0,0.0,0.0,0.0,0.0,0.0,0.0,0.0,0.0,0.0,0.0,0.0,0.0,0.0,0.0,0.0,0.0,0.0,0.0,0.0,0.0,0.0,0.0,0.0,0.0,0.0,0.0,0.0,0.0,0.0,0.0,0.0,0.0,0.0,0.0,0.0,-1.6297,-1.6291,-1.6293,-1.6301,-1.6279,-1.6029,0.0,0.0,0.0,0.0,0.0,0.0,0.0,0.0,0.0,0.0,0.0,0.0,0.0,0.0,0.0,0.0,0.0,0.0,0.0,0.0,0.0,0.0,0.0,0.0,0.0,0.0,0.0,0.0,0.0,0.0,0.0,0.0,0.0,0.0,0.0,0.0,0.0,0.0,0.0,0.0,0.0,0.0,0.0,0.0,0.0,0.0,0.0,0.0,0.0,0.0,0.0,0.0,0.0,0.0,0.0,0.0,0.0,0.0,0.0,0.0,0.0,0.0,0.0,0.0,0.0,0.0,0.0,0.0,0.0,0.0,0.0,0.0,0.0,0.0,0.0,0.0,0.0,0.0,0.0,0.0,0.0,0.0,0.0,0.0,0.0,0.0,0.0,0.0,0.0,0.0,0.0,0.0,0.0,0.0,0.0,0.0,0.0,0.0,0.0,0.0,0.0,0.0,0.0,0.0,0.0,0.0,0.0,0.0,0.0,-1.9473,-1.8631,-1.8161,-1.8142,-1.8143,-1.7441,-1.5956,0.0,0.0,0.0,0.0,0.0,0.0,0.0,0.0,0.0,0.0,0.0,0.0,0.0,0.0,0.0,0.0,0.0,0.0,0.0,0.0,0.0,0.0,0.0,0.0,0.0,0.0,0.0,0.0,0.0,0.0,0.0,0.0,0.0,0.0,0.0,0.0,0.0,0.0,0.0,0.0,0.0,0.0,0.0,0.0,0.0,0.0,0.0,0.0,0.0,0.0,0.0,0.0,0.0,0.0,0.0,0.0,0.0,0.0,0.0,0.0,0.0,0.0,0.0,0.0,0.0,0.0,0.0,0.0,0.0,0.0,0.0,0.0,0.0,0.0,0.0,0.0,0.0,0.0,0.0,0.0,0.0,0.0,0.0,0.0,0.0,0.0,0.0,0.0,0.0,0.0,0.0,0.0,0.0,0.0,0.0,0.0,0.0,0.0,0.0,0.0,0.0,0.0,0.0,0.0,0.0,0.0,0.0,0.0,-2.4573,-2.2397,-2.119,-2.0976,-2.0877,-1.9585,0.0,0.0,0.0,0.0,0.0,0.0,0.0,0.0,0.0,0.0,0.0,0.0,0.0,0.0,0.0,0.0,0.0,0.0,0.0,0.0,0.0,0.0,0.0,0.0,0.0,0.0,0.0,0.0,0.0,0.0,0.0,0.0,0.0,0.0,0.0,0.0,0.0,0.0,0.0,0.0,0.0,0.0,0.0,0.0,0.0,0.0,0.0,0.0,0.0,0.0,0.0,0.0,0.0,0.0,0.0,0.0,0.0,0.0,0.0,0.0,0.0,0.0,0.0,0.0,0.0,0.0,0.0,0.0,0.0,0.0,0.0,0.0,0.0,0.0,0.0,0.0,0.0,0.0,0.0,0.0,0.0,0.0,0.0,0.0,0.0,0.0,0.0,0.0,0.0,0.0,0.0,0.0,0.0,0.0,0.0,0.0,0.0,0.0,0.0,0.0,0.0,0.0,0.0,0.0,0.0,0.0,0.0,0.0,0.0,-2.7142,-2.8466,-2.7897,-2.542,-2.4081,-2.2186,0.0,0.0,0.0,0.0,0.0,0.0,0.0,0.0,0.0,0.0,0.0,0.0,0.0,0.0,0.0,0.0,0.0,0.0,0.0,0.0,0.0,0.0,0.0,0.0,0.0,0.0,0.0,0.0,0.0,0.0,0.0,0.0,0.0,0.0,0.0,0.0,0.0,0.0,0.0,0.0,0.0,0.0,0.0,0.0,0.0,0.0,0.0,0.0,0.0,0.0,0.0,0.0,0.0,0.0,0.0,0.0,0.0,0.0,0.0,0.0,0.0,0.0,0.0,0.0,0.0,0.0,0.0,0.0,0.0,0.0,0.0,0.0,0.0,0.0,0.0,0.0,0.0,0.0,0.0,0.0,0.0,0.0,0.0,0.0,0.0,0.0,0.0,0.0,0.0,0.0,0.0,0.0,0.0,0.0,0.0,0.0,0.0,0.0,0.0,0.0,0.0,0.0,0.0,0.0,0.0,0.0,0.0,0.0,-2.6239,-3.0372,-3.2923,-3.3286,-3.1352,-2.82,-2.4982,0.0,0.0,0.0,0.0,0.0,0.0,0.0,0.0,0.0,0.0,0.0,0.0,0.0,0.0,0.0,0.0,0.0,0.0,0.0,0.0,0.0,0.0,0.0,0.0,0.0,0.0,0.0,0.0,0.0,0.0,0.0,0.0,0.0,0.0,0.0,0.0,0.0,0.0,0.0,0.0,0.0,0.0,0.0,0.0,0.0,0.0,0.0,0.0,0.0,0.0,0.0,0.0,0.0,0.0,0.0,0.0,0.0,0.0,0.0,0.0,0.0,0.0,0.0,0.0,0.0,0.0,0.0,0.0,0.0,0.0,0.0,0.0,0.0,0.0,0.0,0.0,0.0,0.0,0.0,0.0,0.0,0.0,0.0,0.0,0.0,0.0,0.0,0.0,0.0,0.0,0.0,0.0,0.0,0.0,0.0,0.0,0.0,0.0,0.0,0.0,0.0,0.0,0.0,0.0,0.0,0.0,0.0,0.0,-2.8652,-3.3563,-3.6157,-3.742,-3.7201,-3.2517,-2.7936,0.0,0.0,0.0,0.0,0.0,0.0,0.0,0.0,0.0,0.0,0.0,0.0,0.0,0.0,0.0,0.0,0.0,0.0,0.0,0.0,0.0,0.0,0.0,0.0,0.0,0.0,0.0,0.0,0.0,0.0,0.0,0.0,0.0,0.0,0.0,0.0,0.0,0.0,0.0,0.0,0.0,0.0,0.0,0.0,0.0,0.0,0.0,0.0,0.0,0.0,0.0,0.0,0.0,0.0,0.0,0.0,0.0,0.0,0.0,0.0,0.0,0.0,0.0,0.0,0.0,0.0,0.0,0.0,0.0,0.0,0.0,0.0,0.0,0.0,0.0,0.0,0.0,0.0,0.0,0.0,0.0,0.0,0.0,0.0,0.0,0.0,0.0,0.0,0.0,0.0,0.0,0.0,0.0,0.0,0.0,0.0,0.0,0.0,0.0,0.0,0.0,0.0,0.0,0.0,0.0,0.0,0.0,0.0,-3.1562,-3.5281,-3.7926,-3.8915,-3.8213,-3.456,-3.0837,0.0,0.0,0.0,0.0,0.0,0.0,0.0,0.0,0.0,0.0,0.0,0.0,0.0,0.0,0.0,0.0,0.0,0.0,0.0,0.0,0.0,0.0,0.0,0.0,0.0,0.0,0.0,0.0,0.0,0.0,0.0,0.0,0.0,0.0,0.0,0.0,0.0,0.0,0.0,0.0,0.0,0.0,0.0,0.0,0.0,0.0,0.0,0.0,-1.8166,0.0,0.0,0.0,0.0,0.0,0.0,0.0,0.0,0.0,0.0,0.0,0.0,0.0,0.0,0.0,0.0,0.0,0.0,0.0,0.0,0.0,0.0,0.0,0.0,0.0,0.0,0.0,0.0,0.0,0.0,0.0,0.0,0.0,0.0,0.0,0.0,0.0,0.0,0.0,0.0,0.0,0.0,0.0,0.0,0.0,0.0,0.0,0.0,0.0,0.0,0.0,0.0,0.0,0.0,0.0,0.0,0.0,0.0,0.0,-3.2645,-3.6401,-3.8675,-3.9396,-3.848,-3.6732,-3.3595,0.0,0.0,0.0,0.0,0.0,0.0,0.0,0.0,0.0,0.0,0.0,0.0,0.0,0.0,0.0,0.0,0.0,0.0,0.0,0.0,0.0,0.0,0.0,0.0,0.0,0.0,0.0,0.0,0.0,0.0,0.0,0.0,0.0,0.0,0.0,0.0,0.0,0.0,0.0,0.0,0.0,0.0,0.0,0.0,0.0,0.0,0.0,0.0,0.0,0.0,0.0,0.0,0.0,0.0,0.0,0.0,0.0,0.0,0.0,0.0,0.0,0.0,0.0,0.0,0.0,0.0,0.0,0.0,0.0,0.0,0.0,0.0,0.0,0.0,0.0,0.0,0.0,0.0,0.0,0.0,0.0,0.0,0.0,0.0,0.0,0.0,0.0,0.0,0.0,0.0,0.0,0.0,0.0,0.0,0.0,0.0,0.0,0.0,0.0,0.0,0.0,0.0,0.0,0.0,0.0,0.0,0.0,-2.9526,-3.3225,-3.7233,-3.8967,-3.9435,-3.8714,-3.8441,-3.5675,-3.0141,0.0,0.0,0.0,0.0,0.0,0.0,0.0,0.0,0.0,0.0,0.0,0.0,0.0,0.0,0.0,0.0,0.0,0.0,0.0,0.0,0.0,0.0,0.0,0.0,0.0,0.0,0.0,0.0,0.0,0.0,0.0,0.0,0.0,0.0,0.0,0.0,0.0,0.0,-1.7224,-1.884,0.0,0.0,0.0,0.0,0.0,0.0,0.0,0.0,-2.1894,0.0,0.0,0.0,0.0,0.0,0.0,0.0,0.0,0.0,0.0,0.0,0.0,0.0,0.0,0.0,0.0,0.0,0.0,0.0,0.0,0.0,0.0,0.0,0.0,0.0,0.0,0.0,0.0,0.0,0.0,0.0,0.0,0.0,0.0,0.0,0.0,0.0,0.0,0.0,0.0,0.0,0.0,0.0,0.0,0.0,0.0,0.0,0.0,0.0,0.0,0.0,0.0,0.0,0.0,0.0,0.0,-2.8816,-3.1563,-3.47,-3.8188,-3.9279,-3.9727,-3.9552,-3.8168,-3.5597,-3.1836,0.0,0.0,0.0,0.0,0.0,0.0,0.0,0.0,0.0,0.0,0.0,0.0,0.0,0.0,0.0,0.0,0.0,0.0,0.0,0.0,0.0,0.0,0.0,0.0,0.0,0.0,0.0,0.0,0.0,0.0,0.0,0.0,0.0,0.0,0.0,0.0,0.0,0.0,0.0,-2.1844,-2.3102,0.0,0.0,0.0,0.0,0.0,0.0,0.0,0.0,-2.5051,0.0,0.0,0.0,0.0,0.0,0.0,0.0,0.0,0.0,0.0,0.0,0.0,0.0,0.0,0.0,0.0,0.0,0.0,0.0,0.0,0.0,0.0,0.0,0.0,0.0,0.0,0.0,0.0,0.0,0.0,0.0,0.0,0.0,0.0,0.0,0.0,0.0,0.0,0.0,0.0,0.0,0.0,0.0,0.0,0.0,0.0,0.0,0.0,0.0,0.0,0.0,0.0,0.0,0.0,0.0,-3.0117,-3.3142,-3.6142,-3.9065,-4.0019,-4.0253,-3.9786,-3.8539,-3.6064,0.0,0.0,0.0,0.0,0.0,0.0,0.0,0.0,0.0,0.0,0.0,0.0,0.0,0.0,0.0,0.0,0.0,0.0,0.0,0.0,0.0,0.0,0.0,0.0,0.0,0.0,0.0,0.0,0.0,0.0,0.0,0.0,0.0,0.0,0.0,0.0,0.0,0.0,0.0,0.0,-2.4561,-2.5851,-2.798,0.0,0.0,0.0,0.0,0.0,0.0,-2.8508,-2.8418,0.0,0.0,0.0,0.0,0.0,0.0,0.0,0.0,0.0,0.0,0.0,0.0,0.0,0.0,0.0,0.0,0.0,0.0,0.0,0.0,0.0,0.0,0.0,0.0,0.0,0.0,0.0,0.0,0.0,0.0,0.0,0.0,0.0,0.0,0.0,0.0,0.0,0.0,0.0,0.0,0.0,0.0,0.0,0.0,0.0,0.0,0.0,0.0,0.0,0.0,0.0,0.0,0.0,0.0,0.0,-3.152,-3.4778,-3.7681,-4.0195,-4.0974,-4.1091,-4.0565,-3.9045,-3.6473,0.0,0.0,0.0,0.0,0.0,0.0,0.0,0.0,0.0,0.0,0.0,0.0,0.0,0.0,0.0,0.0,0.0,0.0,0.0,0.0,0.0,0.0,0.0,0.0,0.0,0.0,0.0,0.0,0.0,0.0,0.0,0.0,0.0,0.0,0.0,0.0,0.0,0.0,0.0,0.0,0.0,-2.832,-3.0797,-2.9853,0.0,0.0,0.0,0.0,-3.1297,-3.1573,0.0,0.0,0.0,0.0,0.0,0.0,0.0,0.0,0.0,0.0,0.0,0.0,0.0,0.0,0.0,0.0,0.0,0.0,0.0,0.0,0.0,0.0,0.0,0.0,0.0,0.0,0.0,0.0,0.0,0.0,0.0,0.0,0.0,0.0,0.0,0.0,0.0,0.0,0.0,0.0,0.0,0.0,0.0,0.0,0.0,0.0,0.0,0.0,0.0,0.0,0.0,0.0,0.0,0.0,0.0,0.0,-3.4116,-3.6824,-3.9454,-4.1851,-4.2124,-4.2474,-4.3091,-3.9396,-3.6395,0.0,0.0,0.0,0.0,0.0,0.0,0.0,0.0,0.0,0.0,0.0,0.0,0.0,0.0,0.0,0.0,0.0,0.0,0.0,0.0,0.0,0.0,0.0,0.0,0.0,0.0,0.0,0.0,0.0,0.0,0.0,0.0,0.0,0.0,0.0,0.0,0.0,0.0,0.0,0.0,0.0,-3.0016,-3.2482,-3.2037,-3.1426,0.0,0.0,-3.2971,-3.3848,-3.4563,0.0,0.0,0.0,0.0,0.0,0.0,0.0,0.0,0.0,0.0,0.0,0.0,0.0,0.0,0.0,0.0,0.0,0.0,0.0,0.0,0.0,0.0,0.0,0.0,0.0,0.0,0.0,0.0,0.0,0.0,0.0,0.0,0.0,0.0,0.0,0.0,0.0,0.0,0.0,0.0,0.0,0.0,0.0,0.0,0.0,0.0,0.0,0.0,0.0,0.0,0.0,0.0,0.0,0.0,0.0,-3.2421,-3.5343,-3.885,-4.1442,-4.2955,-4.3039,-4.3215,-4.3585,-3.9916,-3.6877,0.0,0.0,0.0,0.0,0.0,0.0,0.0,0.0,0.0,0.0,0.0,0.0,0.0,0.0,0.0,0.0,0.0,0.0,0.0,0.0,0.0,0.0,0.0,0.0,0.0,0.0,0.0,0.0,0.0,0.0,0.0,0.0,0.0,0.0,0.0,0.0,0.0,0.0,0.0,0.0,0.0,0.0,-3.3499,-3.3865,0.0,0.0,0.0,-3.5907,-3.5825,0.0,0.0,0.0,0.0,0.0,0.0,0.0,0.0,0.0,0.0,0.0,0.0,0.0,0.0,0.0,0.0,0.0,0.0,0.0,0.0,0.0,0.0,0.0,0.0,0.0,0.0,0.0,0.0,0.0,0.0,0.0,0.0,0.0,0.0,0.0,0.0,0.0,0.0,0.0,0.0,0.0,0.0,0.0,0.0,0.0,0.0,0.0,0.0,0.0,0.0,0.0,0.0,0.0,0.0,0.0,0.0,0.0,-3.6571,-4.0779,-4.3371,-4.4228,-4.4247,-4.4247,-4.4208,-4.1136,0.0,0.0,0.0,0.0,0.0,0.0,0.0,0.0,0.0,0.0,0.0,0.0,0.0,0.0,0.0,0.0,0.0,0.0,0.0,0.0,0.0,0.0,0.0,0.0,0.0,0.0,0.0,-2.3253,0.0,0.0,0.0,0.0,0.0,0.0,0.0,0.0,0.0,0.0,0.0,0.0,0.0,0.0,-3.3023,-3.4677,-3.5598,-3.628,0.0,0.0,-3.8323,-3.8157,-3.9306,-3.9615,0.0,0.0,0.0,0.0,0.0,0.0,0.0,0.0,0.0,0.0,0.0,0.0,0.0,0.0,0.0,0.0,0.0,0.0,0.0,0.0,0.0,0.0,0.0,0.0,0.0,0.0,0.0,0.0,0.0,0.0,0.0,0.0,0.0,0.0,0.0,0.0,0.0,0.0,0.0,0.0,0.0,0.0,0.0,0.0,0.0,0.0,0.0,0.0,0.0,0.0,0.0,0.0,0.0,0.0,-3.5713,-3.8363,-4.2552,-4.5144,-4.5981,-4.602,-4.602,-4.5981,-4.3442,-4.0487,0.0,0.0,0.0,0.0,0.0,0.0,0.0,0.0,0.0,0.0,0.0,0.0,0.0,0.0,0.0,0.0,0.0,0.0,0.0,0.0,0.0,0.0,0.0,0.0,0.0,0.0,0.0,0.0,0.0,0.0,0.0,0.0,0.0,0.0,0.0,0.0,0.0,0.0,0.0,0.0,0.0,-3.4728,-3.6421,-3.7332,-3.8411,0.0,-3.9668,-3.9726,-4.1228,-4.2213,-4.1716,-3.8469,0.0,0.0,0.0,0.0,0.0,0.0,0.0,0.0,0.0,0.0,0.0,0.0,0.0,0.0,0.0,0.0,0.0,0.0,0.0,0.0,0.0,0.0,0.0,0.0,0.0,0.0,0.0,0.0,0.0,0.0,0.0,0.0,0.0,0.0,0.0,0.0,0.0,0.0,0.0,0.0,0.0,0.0,0.0,0.0,0.0,0.0,0.0,0.0,0.0,0.0,0.0,0.0,0.0,-3.6688,-3.9318,-4.3507,-4.6118,-4.6956,-4.7002,-4.7255,-4.7774,-4.5729,-4.3039,0.0,0.0,0.0,0.0,0.0,0.0,0.0,0.0,0.0,0.0,0.0,0.0,0.0,0.0,0.0,0.0,0.0,0.0,0.0,0.0,0.0,0.0,0.0,0.0,0.0,0.0,0.0,0.0,-3.0598,-3.1013,-3.0467,0.0,0.0,0.0,0.0,0.0,0.0,0.0,0.0,0.0,0.0,-3.664,-3.8854,-3.9826,0.0,0.0,-4.1485,-4.1659,-4.1774,-4.2066,-4.1508,-3.9176,-3.6953,0.0,0.0,0.0,0.0,0.0,0.0,0.0,0.0,0.0,0.0,0.0,0.0,0.0,0.0,0.0,0.0,0.0,0.0,0.0,0.0,0.0,0.0,0.0,0.0,0.0,0.0,0.0,0.0,0.0,0.0,0.0,0.0,0.0,0.0,0.0,0.0,0.0,0.0,0.0,0.0,0.0,0.0,0.0,0.0,0.0,0.0,0.0,0.0,0.0,0.0,0.0,0.0,-3.7292,-4.015,-4.4403,-4.6995,-4.7871,-4.7878,-4.8164,-4.8721,-4.7542,-4.5385,0.0,0.0,0.0,0.0,0.0,0.0,0.0,0.0,0.0,0.0,0.0,0.0,0.0,0.0,0.0,0.0,0.0,0.0,0.0,0.0,0.0,0.0,0.0,0.0,0.0,0.0,0.0,0.0,-3.2562,-3.239,-3.0893,0.0,0.0,0.0,0.0,0.0,0.0,0.0,0.0,0.0,0.0,-3.8565,-4.0331,-4.1277,-4.1764,-4.1783,-4.2071,-4.2168,-4.1822,-4.1572,-4.0976,-3.9858,0.0,0.0,0.0,0.0,0.0,0.0,0.0,0.0,0.0,0.0,0.0,0.0,0.0,0.0,0.0,0.0,0.0,0.0,0.0,0.0,0.0,0.0,0.0,0.0,0.0,0.0,0.0,-2.5855,0.0,0.0,-2.5874,0.0,0.0,0.0,0.0,0.0,0.0,0.0,0.0,0.0,0.0,0.0,0.0,0.0,0.0,0.0,0.0,0.0,0.0,0.0,0.0,0.0,0.0,-3.7617,-4.0954,-4.5273,-4.7891,-4.8748,-4.8787,-4.876,-4.8755,-4.8681,-4.7388,-4.468,0.0,0.0,0.0,0.0,0.0,0.0,0.0,0.0,0.0,0.0,0.0,0.0,0.0,0.0,0.0,0.0,0.0,0.0,0.0,0.0,0.0,0.0,0.0,0.0,0.0,0.0,-3.132,-3.2828,-3.3207,0.0,0.0,0.0,0.0,0.0,0.0,0.0,0.0,0.0,-3.5387,-3.8378,-4.0504,-4.0518,-4.1193,-4.1714,-4.1738,-4.1029,-4.0778,-4.1602,-4.0989,-4.0449,0.0,0.0,0.0,0.0,0.0,0.0,0.0,0.0,0.0,0.0,0.0,0.0,0.0,0.0,0.0,0.0,0.0,0.0,0.0,0.0,0.0,0.0,0.0,0.0,0.0,0.0,0.0,-3.1967,-3.2479,0.0,0.0,0.0,0.0,0.0,0.0,0.0,0.0,0.0,0.0,0.0,-4.0974,-4.0429,0.0,0.0,0.0,0.0,0.0,0.0,0.0,0.0,0.0,0.0,0.0,0.0,-3.8967,-4.1906,-4.6091,-4.8699,-4.9565,-4.9551,-4.9815,-5.0345,-5.0309,-4.9033,-4.6377,0.0,0.0,0.0,0.0,0.0,0.0,0.0,0.0,0.0,0.0,0.0,0.0,0.0,0.0,0.0,0.0,0.0,0.0,0.0,0.0,0.0,0.0,0.0,0.0,0.0,-3.3466,0.0,0.0,0.0,0.0,0.0,0.0,0.0,0.0,0.0,0.0,0.0,-3.7213,-3.8631,-3.9772,-4.0658,-4.1144,-4.147,-4.1971,0.0,0.0,0.0,0.0,0.0,0.0,0.0,0.0,0.0,0.0,0.0,0.0,0.0,0.0,-3.6044,-3.3351,-3.3486,-3.4188,-3.4698,0.0,0.0,0.0,0.0,0.0,0.0,0.0,0.0,0.0,0.0,0.0,0.0,0.0,0.0,-3.6523,0.0,-3.7272,0.0,0.0,0.0,0.0,0.0,0.0,0.0,0.0,-4.3254,-4.4637,-4.5397,-4.4832,-4.4559,0.0,-4.3429,-4.0695,0.0,0.0,0.0,0.0,0.0,0.0,0.0,0.0,-4.0243,-4.316,-4.7057,-4.9642,-5.0742,-5.0762,-5.1142,-5.1955,-5.1925,-5.0751,-4.8376,-4.6022,-4.3188,0.0,0.0,0.0,0.0,0.0,0.0,0.0,0.0,0.0,0.0,0.0,0.0,0.0,0.0,0.0,0.0,0.0,0.0,0.0,0.0,0.0,0.0,0.0,-3.5308,0.0,0.0,0.0,0.0,0.0,0.0,0.0,0.0,0.0,-3.5392,-3.7745,-3.9927,-4.1053,-4.1648,-4.1877,-4.1533,0.0,0.0,0.0,0.0,0.0,0.0,0.0,-3.9431,-4.0041,-4.0821,-4.1388,-4.1556,-4.2955,-4.3469,-4.1632,0.0,0.0,-3.7577,-3.7514,-3.8146,-3.8329,-3.8179,-3.793,-3.7629,-3.5343,-3.4013,0.0,0.0,0.0,0.0,0.0,0.0,0.0,0.0,-4.0855,-4.083,0.0,-4.1753,0.0,0.0,0.0,0.0,-3.7642,-4.0838,0.0,0.0,-4.7949,-4.9586,-4.8865,-4.8826,-4.8865,-4.8768,-4.7124,-4.5862,-4.4762,-4.1707,0.0,0.0,0.0,0.0,0.0,0.0,-4.1383,-4.4749,-4.8153,-5.0655,-5.2188,-5.2305,-5.2678,-5.3429,-5.3335,-5.2415,-5.0683,-4.8931,-4.7141,-4.5218,-4.0501,0.0,0.0,0.0,0.0,0.0,0.0,0.0,0.0,0.0,0.0,0.0,0.0,0.0,0.0,0.0,0.0,0.0,0.0,0.0,0.0,-3.6138,0.0,0.0,0.0,0.0,0.0,0.0,0.0,0.0,0.0,0.0,-3.7718,-4.0399,-4.2471,-4.2452,0.0,0.0,0.0,0.0,-4.2616,-4.0386,-3.9169,-3.8618,-3.8833,-3.935,-4.0349,-4.2077,0.0,0.0,-4.7011,-4.8096,-4.7852,-4.5153,-4.5043,-4.4505,-4.1623,-4.1675,-4.1919,-4.121,-4.1578,-4.1804,-4.1057,-4.0251,-3.9852,-4.0459,0.0,0.0,0.0,0.0,-3.796,-4.0404,-4.4397,-4.4631,-4.5313,-4.6215,-4.6059,0.0,0.0,0.0,0.0,0.0,0.0,-4.5884,-4.7365,-4.9177,-5.0202,-5.0575,-5.0538,-5.052,-5.0471,-4.9955,-4.9565,-4.9262,-4.8338,-4.4686,-3.8624,0.0,0.0,0.0,0.0,-4.362,-4.6427,-4.9771,-5.1745,-5.221,-5.2775,-5.3152,-5.3358,-5.3302,-5.2743,-5.1645,-5.1048,-4.9333,-4.6334,-4.4209,0.0,0.0,0.0,0.0,0.0,0.0,0.0,0.0,0.0,0.0,0.0,0.0,0.0,0.0,0.0,0.0,0.0,0.0,0.0,-3.7835,-3.9376,-3.9059,0.0,0.0,0.0,0.0,0.0,0.0,0.0,0.0,0.0,-4.148,-4.1453,-4.1749,0.0,0.0,-4.1665,-4.0337,-4.1467,-4.2558,-4.2893,-4.1777,0.0,-4.3184,-4.2715,-4.2551,-4.3611,-4.5659,-4.7249,-4.7627,-4.8371,-4.8609,-4.7686,-4.7683,-4.7448,-4.6609,-4.5635,-4.5034,-4.4811,-4.4991,-4.5084,-4.4779,-4.4766,-4.479,-4.648,-4.3414,-4.0702,-4.0625,-4.2305,-4.2334,-4.4578,-4.821,-4.821,-4.8638,-4.9274,-4.9079,-4.7871,-4.5864,-4.4481,0.0,0.0,0.0,-4.8129,-4.9804,-5.0274,-5.0743,-5.122,-5.1171,-5.1159,-5.1156,-5.1113,-5.1088,-5.1043,-5.072,-4.8038,-4.3187,0.0,0.0,-4.1557,-4.3692,-4.5868,-4.8044,-5.0728,-5.2428,-5.3105,-5.3861,-5.407,-5.372,-5.3947,-5.3519,-5.2305,-5.2203,-5.1021,-4.8529,-4.6942,-4.4376,0.0,0.0,0.0,0.0,0.0,0.0,0.0,0.0,0.0,0.0,0.0,-3.2629,-3.2838,0.0,0.0,0.0,-3.8727,-3.9885,-4.1036,-4.1454,0.0,0.0,0.0,0.0,0.0,0.0,0.0,-3.8804,-4.1293,-4.3247,-4.3882,-4.3006,-4.2754,-4.3936,-4.3627,-4.2822,-4.1675,0.0,-4.3885,-4.4121,-4.3359,-4.3229,-4.4643,-4.4636,-4.4804,-4.5892,-4.7148,-4.8044,-4.8159,-4.8528,-4.872,-4.8713,-4.8697,-4.8642,-4.8587,-4.7793,-4.7052,-4.681,-4.7064,-4.7212,-4.6845,-4.7215,-4.7474,-5.1386,-5.0859,-4.457,-4.3757,-4.6566,-4.6612,-4.8373,-5.1261,-5.1281,-5.0852,-5.019,-5.095,-4.9995,-4.7754,-4.6968,0.0,-4.8974,-4.8911,-4.974,-5.1278,-5.121,-5.1189,-5.1178,-5.1136,-5.1081,-5.1082,-5.1082,-5.1042,-5.0966,-5.0177,-4.9354,-4.8504,-4.7676,-4.6419,-4.4843,-4.6287,-4.7915,-4.9599,-5.1163,-5.2839,-5.4533,-5.517,-5.514,-5.4445,-5.4976,-5.4511,-5.2836,-5.2722,-5.2224,-5.1168,-4.8951,-4.6826,-4.4912,0.0,0.0,0.0,0.0,0.0,0.0,0.0,0.0,0.0,0.0,0.0,0.0,0.0,0.0,0.0,-4.2302,0.0,-4.4042,-4.2816,0.0,0.0,0.0,-3.9981,-4.0707,-4.0996,-4.1678,-4.3025,0.0,0.0,-4.5289,-4.4861,-4.4972,-4.665,-4.6688,-4.6047,-4.4576,-4.5562,-4.6048,-4.4718,-4.4413,-4.4413,-4.4835,-4.5718,-4.6842,-4.8086,-4.8679,-4.8605,-4.8568,-4.8568,-4.855,-4.8587,-4.8569,-4.8494,-4.8475,-4.8439,-4.8255,-4.7572,-4.8033,-4.8328,-4.7682,-4.7978,-4.82,-5.1394,-5.1252,-4.9629,-4.9425,-5.0152,-5.0102,-5.0541,-5.1281,-5.13,-5.1183,-5.1008,-5.1203,-5.0934,-5.0315,-5.0101,-5.0218,-5.0537,-5.0537,-5.0759,-5.1139,-5.1136,-5.1125,-5.112,-5.1063,-5.1023,-5.1034,-5.0986,-5.0941,-5.0913,-5.0668,-5.0385,-5.0102,-4.9309,-4.8075,-4.6422,-4.6731,-4.8081,-5.0394,-5.1315,-5.2924,-5.5167,-5.5431,-5.5455,-5.5391,-5.5317,-5.4855,-5.3953,-5.369,-5.2848,-5.1233,-5.0487,-4.8985,-4.6419,-4.2423,0.0,0.0,0.0,0.0,0.0,0.0,0.0,0.0,0.0,-3.6478,-3.7449,0.0,-4.2172,0.0,-4.5276,-4.6104,-4.5082,-4.5194,0.0,0.0,-4.2794,-4.2805,-4.2396,-4.4046,-4.4867,-4.3972,-4.5456,-4.6471,-4.6267,-4.6554,-4.7151,-4.8131,-4.682,-4.5512,-4.509,-4.6349,-4.7175,-4.6734,-4.7048,-4.7494,-4.7455,-4.779,-4.8143,-4.8532,-4.8605,-4.8605,-4.8587,-4.8569,-4.8532,-4.8513,-4.8494,-4.8457,-4.8363,-4.8363,-4.8307,-4.8143,-4.8366,-4.8569,-4.8274,-4.8403,-4.8402,-5.2489,-5.2481,-5.2453,-5.2463,-5.2356,-5.158,-5.124,-5.1201,-5.122,-5.1201,-5.1201,-5.122,-5.1201,-5.115,-5.1159,-5.1136,-5.1105,-5.1093,-5.1081,-5.1081,-5.1076,-5.105,-5.1042,-5.0995,-5.0937,-5.0929,-5.0877,-5.0844,-5.0812,-5.0775,-5.072,-5.0682,-5.0258,-4.9546,-4.8585,-4.7468,-4.774,-4.9451,-5.1264,-5.3273,-5.5389,-5.5364,-5.4976,-5.4298,-5.3715,-5.2894,-5.1764,-5.0855,-4.9895,-4.8842,-4.8749,-4.7984,-4.6263,-4.3072,-4.0611,0.0,0.0,0.0,0.0,0.0,0.0,0.0,0.0,0.0,0.0,0.0,-4.416,-4.4606,-4.6508,-4.7181,-4.5955,-4.6234,-4.6085,-4.5082,-4.5411,-4.5685,-4.5574,-4.6801,-4.7233,-4.6373,-4.7438,-4.8073,-4.7627,-4.7927,-4.8338,-4.8713,-4.7707,-4.6851,-4.6786,-4.7546,-4.8085,-4.7995,-4.831,-4.8587,-4.8587,-4.855,-4.8532,-4.8495,-4.8458,-4.8495,-4.8495,-4.8476,-4.8458,-4.8419,-4.8401,-4.8419,-4.8306,-4.8324,-4.8324,-4.8306,-4.8382,-4.8458,-4.8401,-4.8401,-4.8401,-5.3833,-5.3789,-5.3778,-5.3754,-5.3571,-5.2117,-5.1423,-5.128,-5.1144,-5.1086,-5.1086,-5.1074,-5.1093,-5.1093,-5.1081,-5.1081,-5.1069,-5.1082,-5.1082,-5.1069,-5.1034,-5.099,-5.0971,-5.0906,-5.0858,-5.081,-5.0829,-5.0775,-5.072,-5.0701,-5.0701,-5.0682,-5.0702,-5.0625,-5.0413,-4.826,-4.7491,-4.8231,-5.1319,-5.3694,-5.5227,-5.4821,-5.3886,-5.2406,-5.1338,-5.0071,-4.856,-4.7003,-4.6024,-4.5875,-4.5961,-4.5885,-4.5592,-4.3427,-4.1829,0.0,-3.8093,0.0,0.0,0.0,0.0,0.0,0.0,0.0,0.0,-4.4519,-4.5491,-4.5584,-4.6865,-4.746,-4.6847,-4.681,-4.707,-4.7757,-4.7868,-4.8147,-4.8797,-4.889,-4.889,-4.889,-4.889,-4.889,-4.88,-4.8874,-4.8839,-4.8751,-4.8677,-4.8456,-4.8532,-4.8568,-4.8641,-4.8587,-4.8569,-4.8532,-4.8476,-4.8457,-4.8438,-4.8324,-4.8324,-4.8324,-4.8324,-4.8324,-4.8324,-4.8324,-4.8306,-4.8324,-4.8324,-4.8324,-4.8324,-4.8324,-4.8306,-4.8306,-4.8324,-4.8306,-4.8324,-5.3734,-5.3709,-5.3698,-5.3684,-5.3582,-5.3238,-5.2704,-5.2103,-5.1416,-5.1086,-5.1086,-5.1101,-5.1056,-5.1017,-5.1009,-5.1,-5.0952,-5.0937,-5.0937,-5.0937,-5.0909,-5.0913,-5.0897,-5.0844,-5.0846,-5.0863,-5.081,-5.0773,-5.0775,-5.072,-5.0702,-5.0683,-5.0603,-5.0155,-4.9422,0.0,0.0,0.0,-5.2361,-5.3875,-5.3975,-5.2623,-5.179,-5.1551,-4.99,0.0,-4.8628,-4.7466,-4.6468,-4.5725,-4.6158,0.0,0.0,0.0,0.0,0.0,0.0,0.0,0.0,0.0,0.0,0.0,-4.3578,-4.4222,-4.3856,-4.5305,-4.6531,-4.7181,-4.7534,-4.7906,-4.8407,-4.8444,-4.8519,-4.8649,-4.8686,-4.876,-4.889,-4.8909,-4.889,-4.889,-4.8909,-4.8892,-4.8859,-4.8732,-4.866,-4.8587,-4.8532,-4.8494,-4.8382,-4.8476,-4.8476,-4.8382,-4.8382,-4.8344,-4.8363,-4.8363,-4.8363,-4.8324,-4.8324,-4.8324,-4.8324,-4.8324,-4.8324,-4.8324,-4.8324,-4.8324,-4.8324,-4.8324,-4.8324,-4.8324,-4.8324,-4.8324,-4.8324,-4.8324,-4.8324,-5.4915,-5.4885,-5.4894,-5.4839,0.0,-5.4323,-5.3929,-5.3529,-5.2671,-5.205,-5.1682,-5.2114,-5.2027,-5.1625,-5.2055,-5.2198,-5.2182,-5.1738,-5.1776,-5.2144,-5.128,-5.1109,-5.1479,-5.1057,-5.1061,-5.1429,-5.1411,-5.1587,-5.1973,-5.1875,-5.1834,-5.1832,-5.1702,-5.1572,-5.1462,-5.1661,-5.141,-5.0639,-5.2172,-5.3366,-5.4078,-5.321,-5.2345,-5.1603,-5.0237,0.0,0.0,0.0,0.0,0.0,0.0,0.0,0.0,-4.5695,0.0,-4.582,-4.4742,-4.4389,-4.5201,-4.5611,-4.6155,-4.6995,-4.7831,-4.7776,-4.6513,-4.7943,-4.9094,-4.9485,-4.9522,-4.9689,-5.0079,-5.0135,-5.0135,-5.0135,-5.0135,-5.0099,-5.0045,-5.0063,-5.0008,-4.9991,-4.9991,-4.9806,-4.9344,-4.9252,-4.8993,-4.8568,-4.8513,-4.8457,-4.8363,-4.8419,-4.8457,-4.8306,-4.8324,-4.8324,-4.8324,-4.8324,-4.8324,-4.8324,-4.8324,-4.8324,-4.8324,-4.8324,-4.8324,-4.8324,-4.8324,-4.8324,-4.8324,-4.8324,-4.8324,-4.8324,-4.8324,-4.8324,-4.8324,-4.8324,-4.8324,-5.6117,-5.6082,-5.6082,-5.6065,-5.5954,-5.5296,-5.5026,-5.4948,0.0,0.0,0.0,-5.3169,-5.3091,-5.2472,-5.3169,-5.3498,-5.344,-5.2589,-5.2666,-5.3384,-5.1857,-5.1554,-5.2273,-5.1619,-5.1622,-5.2204,-5.2223,-5.255,-5.3183,-5.3078,-5.3012,-5.2989,-5.2982,-5.3315,-5.3982,-5.4406,-5.3671,-5.185,-5.1964,-5.2798,-5.425,-5.3908,-5.3009,-5.157,-5.0581,-4.9342,-4.7951,-4.7098,-4.6656,-4.6592,-4.6722,-4.6838,-4.6903,-4.7051,-4.72,-4.7348,-4.7367,-4.7943,-4.9243,-4.935,-4.9926,-5.1305,-5.1528,-5.0971,-4.9466,-5.0599,-5.1398,-5.1398,-5.1398,-5.1379,-5.1398,-5.1398,-5.1398,-5.1398,-5.1398,-5.1343,-5.125,-5.1232,-5.1139,-5.1175,-5.1101,-5.0804,-4.9935,-4.9806,-4.9454,-4.8697,-4.8457,-4.8401,-4.8363,-4.8419,-4.8419,-4.8306,-4.8324,-4.8324,-4.8324,-4.8324,-4.8324,-4.8324,-4.8324,-4.8324,-4.8324,-4.8324,-4.8324,-4.8324,-4.8324,-4.8324,-4.8324,-4.8324,-4.8324,-4.8324,-4.8324,-4.8324,-4.8324,-4.8324,-4.8324,-5.601,-5.6012,-5.6012,-5.5993,-5.6012,-5.5877,-5.5838,-5.5702,-5.4175,-5.342,-5.3323,-5.344,-5.344,-5.3323,-5.344,-5.3498,-5.344,-5.2589,-5.263,-5.3353,-5.2391,-5.2356,-5.3109,-5.2955,-5.2954,-5.3109,-5.3051,-5.3128,-5.3263,-5.3161,-5.3034,-5.3015,-5.341,-5.3908,-5.4371,-5.4311,-5.4081,-5.369,-5.3128,-5.2956,-5.3193,-5.1746,-5.0852,-5.0565,-4.9161,-4.8175,-4.7914,-4.7141,-4.6592,-4.661,-4.7196,-4.785,-4.8537,-4.9206,-4.993,-5.0636,-5.0711,-5.0822,-5.1026,-5.1026,-5.1138,-5.1398,-5.2029,-5.2029,-5.1156,-5.1249,-5.1398,-5.1398,-5.1472,-5.1398,-5.1398,-5.1454,-5.1491,-5.1454,-5.1416,-5.1416,-5.1435,-5.1454,-5.1436,-5.1436,-5.1361,-5.1009,-5.0231,-4.9935,-4.9546,-4.8658,-4.8399,-4.8324,-4.8306,-4.8306,-4.8306,-4.8306,-4.8324,-4.8324,-4.8324,-4.8324,-4.8324,-4.8324,-4.8324,-4.8324,-4.8324,-4.8324,-4.8324,-4.8324,-4.8324,-4.8324,-4.8324,-4.8324,-4.8324,-4.8324,-4.8324,-4.8324,-4.8324,-4.8324,-4.8324,-5.6012,-5.6012,-5.6012,-5.6012,-5.6012,-5.6012,-5.6012,-5.5935,-5.52,-5.46,-5.4252,-5.4658,-5.4619,-5.4252,-5.4658,-5.4854,-5.4817,-5.3967,-5.399,-5.463,-5.3377,-5.3167,-5.386,-5.3494,-5.3492,-5.3876,-5.3872,-5.4064,-5.4446,-5.4283,-5.4161,-5.4104,-5.4135,-5.4207,-5.4315,-5.4163,-5.4073,-5.4018,-5.3664,-5.3422,-5.344,-5.2659,-5.2233,-5.2232,-5.1454,-5.1115,-5.1115,-5.0726,-5.0505,-5.0486,-5.0376,-5.0543,-5.0896,-5.1249,-5.1639,-5.2029,-5.2457,-5.2698,-5.2698,-5.2698,-5.2698,-5.2717,-5.3051,-5.3107,-5.2754,-5.2698,-5.2698,-5.2698,-5.2698,-5.2717,-5.2698,-5.2698,-5.2698,-5.2698,-5.2717,-5.2679,-5.2547,-5.2547,-5.2469,-5.241,-5.2389,-5.2035,-5.1146,-5.0667,-5.0039,-4.9132,-4.8673,-4.8343,-4.8324,-4.8324,-4.8324,-4.8324,-4.8324,-4.8324,-4.8324,-4.8324,-4.8324,-4.8324,-4.8324,-4.8324,-4.8324,-4.8324,-4.8324,-4.8324,-4.8324,-4.8324,-4.8324,-4.8324,-4.8324,-4.8324,-4.8324,-4.8324,-4.8324,-4.8324,-4.8324,-5.6012,-5.6012,-5.6012,-5.6012,-5.6012,-5.6012,-5.6012,-5.6012,-5.5993,-5.5664,-5.52,-5.5741,-5.5664,-5.5183,-5.5724,-5.5998,-5.5845,-5.5092,-5.5094,-5.5634,-5.4265,-5.3976,-5.4608,-5.407,-5.4086,-5.4594,-5.4629,-5.491,-5.5375,-5.5157,-5.499,-5.4874,-5.4519,-5.4268,-5.4144,-5.4055,-5.4,-5.3944,-5.3869,-5.3813,-5.3813,-5.3813,-5.3794,-5.3813,-5.398,-5.4073,-5.4091,-5.4258,-5.4351,-5.4351,-5.3775,-5.3441,-5.3441,-5.3423,-5.3348,-5.3237,-5.372,-5.3998,-5.3831,-5.3813,-5.3813,-5.3793,-5.3813,-5.3774,-5.3717,-5.3774,-5.3774,-5.3774,-5.3719,-5.3719,-5.3662,-5.368,-5.3717,-5.3736,-5.3717,-5.3565,-5.3521,-5.3499,-5.3459,-5.329,-5.3272,-5.2941,-5.2146,-5.1485,-5.0695,-4.9722,-4.9003,-4.8581,-4.8379,-4.8324,-4.8324,-4.8324,-4.8324,-4.8324,-4.8324,-4.8324,-4.8324,-4.8324,-4.8324,-4.8324,-4.8324,-4.8324,-4.8324,-4.8324,-4.8324,-4.8324,-4.8324,-4.8324,-4.8324,-4.8324,-4.8324,-4.8324,-4.8324,-4.8324,-4.8324,-5.6012,-5.6012,-5.6031,-5.6012,-5.6031,-5.6031,-5.6031,-5.6012,-5.6012,-5.5973,-5.5877,-5.5973,-5.5958,-5.5902,-5.596,-5.5981,-5.5847,-5.4998,-5.5017,-5.557,-5.4743,-5.4699,-5.5339,-5.5278,-5.5336,-5.5327,-5.523,-5.5174,-5.5262,-5.4952,-5.4685,-5.4416,-5.4214,-5.411,-5.4019,-5.4,-5.3944,-5.3813,-5.3813,-5.3813,-5.3813,-5.3813,-5.3813,-5.3813,-5.4537,-5.489,-5.4927,-5.567,-5.606,-5.606,-5.5912,-5.5912,-5.5912,-5.5912,-5.5559,-5.4816,-5.4816,-5.4593,-5.3905,-5.3813,-5.3793,-5.3734,-5.3793,-5.3717,-5.3579,-5.3637,-5.3695,-5.3714,-5.3714,-5.3637,-5.3539,-5.3539,-5.3579,-5.3579,-5.3539,-5.3539,-5.3481,-5.3499,-5.3499,-5.3499,-5.3418,-5.3164,-5.2342,-5.1971,-5.1308,-4.9942,-4.9609,-4.9242,-4.871,-4.8489,-4.8434,-4.8379,-4.8324,-4.8324,-4.8324,-4.8324,-4.8324,-4.8324,-4.8324,-4.8324,-4.8324,-4.8324,-4.8324,-4.8324,-4.8324,-4.8324,-4.8324,-4.8324,-4.8324,-4.8324,-4.8324,-4.8324,-4.8324,-4.8324,-4.8324,-5.6012,-5.607,-5.6553,-5.6786,-5.6766,-5.6766,-5.6476,-5.6012,-5.6012,-5.6012,-5.5995,-5.5979,-5.596,-5.5996,-5.5961,-5.5905,-5.5807,-5.5399,-5.5335,-5.5535,-5.5189,-5.5224,-5.5466,-5.5408,-5.5358,-5.5236,-5.5083,-5.4971,-5.4855,-5.4642,-5.4382,-5.4163,-5.4073,-5.3963,-5.3907,-5.3907,-5.4074,-5.45,-5.4518,-5.4741,-5.5152,-5.476,-5.4797,-5.5241,-5.5633,-5.5782,-5.58,-5.6134,-5.632,-5.6265,-5.5819,-5.5763,-5.6265,-5.5354,-5.4871,-5.4946,-5.4537,-5.4147,-5.3831,-5.3813,-5.3774,-5.3736,-5.3774,-5.3774,-5.3678,-5.3754,-5.3734,-5.3714,-5.3714,-5.3635,-5.3629,-5.3632,-5.3579,-5.3499,-5.3499,-5.344,-5.34,-5.3418,-5.3359,-5.3355,-5.3314,-5.3203,-5.2794,-5.2334,-5.1559,-5.0545,-5.0306,-5.0105,-4.9774,-4.937,-4.9077,-4.9003,-4.8673,-4.8343,-4.8343,-4.8324,-4.8324,-4.8324,-4.8324,-4.8324,-4.8306,-4.8324,-4.8324,-4.8324,-4.8324,-4.8324,-4.8324,-4.8324,-4.8324,-4.8324,-4.8324,-4.8324,-4.8324,-4.8324,-4.8324,-5.6147,-5.6437,-5.7056,-5.7327,-5.7288,-5.7037,-5.6592,-5.6051,-5.5977,-5.5977,-5.5959,-5.5866,-5.5885,-5.5923,-5.5847,-5.5787,-5.5724,-5.5618,-5.5504,-5.5408,-5.5389,-5.5339,-5.5243,-5.5157,-5.5047,-5.4933,-5.4765,-5.456,-5.4453,-5.4318,-5.4127,-5.3982,-5.3944,-5.3888,-5.3813,-5.3813,-5.4091,-5.4593,-5.4686,-5.5076,-5.5709,-5.5299,-5.5408,-5.6225,-5.6484,-5.6617,-5.6636,-5.6859,-5.6952,-5.6933,-5.6153,-5.5967,-5.6525,-5.528,-5.4648,-5.489,-5.4258,-5.3813,-5.3813,-5.3813,-5.3774,-5.3774,-5.3774,-5.3756,-5.3717,-5.3736,-5.3716,-5.3635,-5.3616,-5.3613,-5.3647,-5.3632,-5.3598,-5.3459,-5.344,-5.34,-5.3295,-5.3277,-5.3254,-5.3206,-5.3206,-5.3206,-5.3133,-5.2692,-5.205,-5.1334,-5.1132,-5.0986,-5.0802,-5.027,-4.9921,-4.9845,-4.9313,-4.8928,-4.871,-4.8434,-4.8416,-4.8618,-4.8655,-4.8267,-4.8267,-4.8267,-4.8247,-4.8208,-4.8229,-4.8229,-4.819,-4.819,-4.8247,-4.8229,-4.8229,-4.8247,-4.819,-4.8247,-4.8229,-5.6495,-5.7192,-5.7308,-5.7387,-5.7269,-5.6497,-5.6072,-5.5977,-5.5942,-5.5904,-5.5885,-5.5766,-5.5724,-5.5684,-5.5618,-5.5573,-5.5508,-5.5485,-5.5339,-5.5121,-5.5102,-5.4962,-5.4642,-5.461,-5.4629,-5.4629,-5.4449,-5.4231,-5.4037,-5.4019,-5.3944,-5.3813,-5.3813,-5.3794,-5.3813,-5.3813,-5.3831,-5.4035,-5.4035,-5.4333,-5.5039,-5.5076,-5.5463,-5.6336,-5.7004,-5.7323,-5.7435,-5.8141,-5.8512,-5.8549,-5.7658,-5.7342,-5.7379,-5.6614,-5.5835,-5.5037,-5.4275,-5.385,-5.3868,-5.3924,-5.3923,-5.3808,-5.3958,-5.3791,-5.369,-5.3767,-5.3709,-5.3533,-5.3518,-5.3518,-5.3518,-5.3518,-5.344,-5.3318,-5.33,-5.3295,-5.3206,-5.3206,-5.3206,-5.3206,-5.3206,-5.3206,-5.3206,-5.3188,-5.2729,-5.216,-5.194,-5.1738,-5.1187,-5.0875,-5.0707,-5.0588,-5.0424,-5.024,-4.9646,-4.8928,-4.8909,-4.8946,-4.8595,-4.8286,-4.821,-4.8172,-4.8151,-4.813,-4.8169,-4.8169,-4.8032,-4.8032,-4.8032,-4.8072,-4.8072,-4.8072,-4.7992,-4.7992,-4.8032,-5.6807,-5.8104,-5.8626,-5.851,-5.7931,-5.7583,-5.683,-5.5865,-5.5767,-5.5766,-5.5745,-5.5618,-5.5466,-5.5306,-5.5243,-5.5217,-5.5231,-5.521,-5.5019,-5.4814,-5.4784,-5.4704,-5.4597,-5.4482,-5.4382,-5.4334,-5.4198,-5.4018,-5.3888,-5.3851,-5.3869,-5.3813,-5.3813,-5.3813,-5.3813,-5.3813,-5.4054,-5.4518,-5.4574,-5.4983,-5.567,-5.5816,-5.6225,-5.6967,-5.684,-5.6747,-5.6729,-5.7026,-5.7398,-5.7918,-5.7175,-5.7212,-5.8066,-5.7528,-5.641,-5.5222,-5.5261,-5.5129,-5.4682,-5.4976,-5.5232,-5.5151,-5.5133,-5.4837,-5.4386,-5.4315,-5.409,-5.3665,-5.3518,-5.3499,-5.3481,-5.344,-5.3318,-5.3272,-5.323,-5.323,-5.3206,-5.3206,-5.3206,-5.3206,-5.3206,-5.3206,-5.3206,-5.3206,-5.3096,-5.2839,-5.2766,-5.2601,-5.232,-5.1839,-5.1431,-5.1261,-5.083,-5.041,-5.0209,-4.9427,-4.897,-4.8693,-4.8419,-4.82,-4.8108,-4.8072,-4.7992,-4.787,-4.797,-4.797,-4.7811,-4.7811,-4.7811,-4.7852,-4.7852,-4.7687,-4.7687,-4.7687,-4.7747,-5.7197,-5.8413,-5.9009,-5.8871,-5.8269,-5.7981,-5.7054,-5.5761,-5.564,-5.564,-5.5596,-5.5432,-5.5217,-5.5064,-5.4933,-5.4996,-5.5169,-5.4977,-5.4874,-5.4863,-5.4863,-5.4811,-5.4728,-5.4589,-5.4368,-5.411,-5.4,-5.3907,-5.3794,-5.3813,-5.3813,-5.3813,-5.3813,-5.3813,-5.3813,-5.3813,-5.411,-5.4537,-5.4611,-5.4927,-5.5466,-5.5763,-5.6116,-5.658,-5.6432,-5.658,-5.7026,-5.7082,-5.7305,-5.7695,-5.7119,-5.7082,-5.7788,-5.7416,-5.6633,-5.5665,-5.5965,-5.6039,-5.5455,-5.5825,-5.6043,-5.5918,-5.59,-5.566,-5.5143,-5.4866,-5.4382,-5.3939,-5.3551,-5.344,-5.3378,-5.3336,-5.3254,-5.323,-5.323,-5.3248,-5.3206,-5.3206,-5.3206,-5.3206,-5.3206,-5.3206,-5.3206,-5.3206,-5.3188,-5.3206,-5.3164,-5.3103,-5.3011,-5.2596,-5.209,-5.201,-5.1602,-5.1191,-5.0885,-5.0208,-4.9834,-4.9567,-4.8675,-4.8348,-4.7897,-4.7842,-4.7728,-4.7645,-4.7603,-4.7645,-4.7603,-4.7585,-4.7542,-4.7585,-4.7414,-4.7214,-4.7258,-4.7327,-4.7302,-5.76,-5.8272,-5.8289,-5.8267,-5.797,-5.7373,-5.6527,-5.5714,-5.5527,-5.5495,-5.5517,-5.5187,-5.5019,-5.4998,-5.4843,-5.4938,-5.52,-5.4976,-5.5055,-5.5394,-5.5414,-5.5286,-5.5097,-5.4986,-5.4501,-5.3869,-5.3813,-5.3813,-5.3813,-5.3813,-5.3813,-5.3813,-5.3813,-5.3813,-5.3813,-5.3813,-5.385,-5.398,-5.4017,-5.398,-5.3943,-5.4743,-5.5265,-5.5429,-5.6039,-5.7078,-5.8494,-5.8456,-5.8326,-5.8438,-5.7843,-5.7119,-5.6785,-5.6655,-5.6388,-5.6362,-5.637,-5.6296,-5.6121,-5.6191,-5.6256,-5.6172,-5.6024,-5.6037,-5.5797,-5.5262,-5.482,-5.4478,-5.3962,-5.3461,-5.345,-5.3445,-5.3395,-5.3277,-5.3277,-5.3254,-5.3206,-5.3206,-5.3206,-5.3182,-5.3164,-5.3206,-5.3182,-5.3164,-5.3164,-5.3121,-5.306,-5.2999,-5.2937,-5.2722,-5.2644,-5.2518,-5.2045,-5.1589,-5.1353,-5.1185,-5.0985,-5.062,-4.9477,-4.8696,-4.7883,-4.7553,-4.7249,-4.7125,-4.7062,-4.7107,-4.7107,-4.7062,-4.6989,-4.6944,-4.6806,-4.676,-4.676,-4.6788,-4.6742,-5.7431,-5.812,-5.8174,-5.7762,-5.7191,-5.6904,-5.6212,-5.5267,-5.5176,-5.537,-5.5548,-5.503,-5.495,-5.5168,-5.5179,-5.5134,-5.5174,-5.551,-5.5883,-5.6012,-5.6049,-5.5992,-5.58,-5.528,-5.4574,-5.3924,-5.3813,-5.3813,-5.3813,-5.3813,-5.3813,-5.3813,-5.3813,-5.3813,-5.3813,-5.3813,-5.4035,-5.4518,-5.4073,-5.4314,-5.5317,-5.5172,-5.5562,-5.6617,-5.6982,-5.7631,-5.8568,-5.7639,-5.736,-5.7881,-5.7639,-5.7621,-5.7862,-5.7872,-5.7529,-5.7098,-5.7524,-5.7383,-5.6891,-5.7155,-5.7306,-5.7207,-5.7189,-5.6868,-5.6492,-5.6206,-5.5827,-5.5386,-5.4993,-5.4865,-5.484,-5.484,-5.4363,-5.3359,-5.3212,-5.3267,-5.3206,-5.3103,-5.3042,-5.3042,-5.3017,-5.293,-5.2912,-5.2912,-5.2955,-5.2912,-5.285,-5.285,-5.2806,-5.2454,-5.225,-5.2203,-5.1861,-5.1558,-5.1073,-5.0812,-5.0727,-5.0235,-4.9323,-4.8587,-4.7821,-4.7137,-4.682,-4.6619,-4.6572,-4.6507,-4.6572,-4.6525,-4.6447,-4.6495,-4.659,-4.6447,-4.6301,-4.6253,-4.6284,-5.6855,-5.7561,-5.7594,-5.7207,-5.6534,-5.6515,-5.5883,-5.4939,-5.4863,-5.5056,-5.5163,-5.4745,-5.4631,-5.4963,-5.5137,-5.5323,-5.5559,-5.6376,-5.6896,-5.7082,-5.6822,-5.6766,-5.6562,-5.5522,-5.4593,-5.3943,-5.3813,-5.3813,-5.3813,-5.3813,-5.3813,-5.3813,-5.3813,-5.3813,-5.385,-5.4128,-5.4537,-5.4909,-5.4853,-5.5243,-5.6023,-5.6065,-5.6437,-5.7379,-5.7802,-5.8192,-5.8605,-5.7695,-5.7435,-5.7843,-5.7895,-5.8132,-5.8596,-5.8449,-5.8178,-5.7832,-5.7936,-5.7939,-5.7418,-5.7666,-5.7904,-5.781,-5.7792,-5.7656,-5.7143,-5.7015,-5.6528,-5.6161,-5.5721,-5.5592,-5.5556,-5.553,-5.5034,-5.4166,-5.3787,-5.3494,-5.3231,-5.306,-5.2999,-5.2999,-5.2912,-5.285,-5.285,-5.2806,-5.2698,-5.2608,-5.2518,-5.2408,-5.2268,-5.1964,-5.1817,-5.1669,-5.15,-5.1101,-5.0523,-5.0382,-5.0382,-4.9674,-4.8838,-4.8214,-4.7652,-4.6835,-4.635,-4.6105,-4.5988,-4.5938,-4.6005,-4.6005,-4.6005,-4.6154,-4.6253,-4.6005,-4.5821,-4.5905,-4.5905,-5.5974,-5.6626,-5.6607,-5.6412,-5.6111,-5.6092,-5.5538,-5.4686,-5.461,-5.4673,-5.4618,-5.4359,-5.4329,-5.4482,-5.4969,-5.5468,-5.6302,-5.7045,-5.7583,-5.7899,-5.7695,-5.7379,-5.7175,-5.6023,-5.5039,-5.4277,-5.4128,-5.4091,-5.424,-5.4221,-5.3943,-5.4147,-5.4203,-5.4017,-5.4296,-5.4741,-5.515,-5.5447,-5.5912,-5.6227,-5.6543,-5.7032,-5.7478,-5.7639,-5.8271,-5.86,-5.8619,-5.8447,-5.8526,-5.8638,-5.8418,-5.8394,-5.8418,-5.8286,-5.817,-5.8042,-5.8033,-5.795,-5.7821,-5.7737,-5.7792,-5.781,-5.7792,-5.7857,-5.7721,-5.7263,-5.6896,-5.6795,-5.6263,-5.5841,-5.586,-5.5788,-5.5578,-5.5285,-5.4543,-5.3866,-5.3108,-5.2955,-5.2893,-5.285,-5.2806,-5.2761,-5.2698,-5.2608,-5.2454,-5.2203,-5.2012,-5.1866,-5.1601,-5.1416,-5.121,-5.1105,-5.107,-5.0786,-5.027,-5.0215,-5.0145,-4.9395,-4.861,-4.8155,-4.7576,-4.6792,-4.6269,-4.5979,-4.5736,-4.5632,-4.5528,-4.5615,-4.5615,-4.5667,-4.5632,-4.5423,-4.5476,-4.5615,-4.5667,-5.5771,-5.6235,-5.5684,-5.5408,-5.5322,-5.5303,-5.5042,-5.4629,-5.4578,-5.4687,-5.4707,-5.4187,-5.454,-5.562,-5.517,-5.5484,-5.6283,-5.71,-5.7175,-5.7026,-5.7398,-5.749,-5.749,-5.7063,-5.6357,-5.5652,-5.5466,-5.5652,-5.5652,-5.5522,-5.554,-5.5652,-5.5522,-5.5577,-5.5726,-5.58,-5.6283,-5.6673,-5.6413,-5.697,-5.7806,-5.7627,-5.7832,-5.8364,-5.8563,-5.8638,-5.8572,-5.84,-5.8356,-5.8425,-5.8312,-5.8242,-5.8152,-5.7997,-5.7922,-5.7894,-5.7763,-5.7745,-5.7745,-5.7697,-5.7697,-5.7792,-5.7697,-5.7667,-5.7679,-5.7514,-5.7368,-5.735,-5.7149,-5.7003,-5.7021,-5.6937,-5.6481,-5.5368,-5.4611,-5.3808,-5.3024,-5.2743,-5.259,-5.2297,-5.2137,-5.1994,-5.1848,-5.1768,-5.1651,-5.15,-5.1449,-5.1365,-5.1158,-5.0964,-5.0766,-5.0657,-5.0564,-5.0359,-5.0171,-5.0114,-4.9855,-4.9141,-4.8626,-4.8245,-4.7622,-4.6946,-4.6635,-4.6406,-4.6218,-4.6079,-4.5665,-4.5476,-4.5441,-4.5441,-4.5441,-4.5441,-4.5441,-4.5476,-4.5476,-5.5398,-5.5645,-5.5083,-5.4833,-5.4833,-5.4711,-5.4482,-5.4281,-5.4265,-5.4351,-5.4371,-5.4035,-5.4333,-5.515,-5.5076,-5.5261,-5.5837,-5.6617,-5.671,-5.6543,-5.7138,-5.7286,-5.7082,-5.6989,-5.6729,-5.6376,-5.632,-5.6283,-5.6265,-5.632,-5.632,-5.6246,-5.632,-5.632,-5.6246,-5.6673,-5.7008,-5.7379,-5.7323,-5.7784,-5.8424,-5.8103,-5.8016,-5.8394,-5.84,-5.84,-5.8356,-5.8223,-5.8179,-5.8205,-5.8179,-5.8088,-5.8061,-5.7839,-5.7763,-5.781,-5.7601,-5.7486,-5.7583,-5.7504,-5.7486,-5.7583,-5.7553,-5.7553,-5.7583,-5.7583,-5.7583,-5.7546,-5.7583,-5.7583,-5.7534,-5.737,-5.6622,-5.5509,-5.4675,-5.3809,-5.2625,-5.225,-5.1994,-5.1799,-5.1601,-5.1482,-5.1244,-5.121,-5.1105,-5.0999,-5.0999,-5.0857,-5.0657,-5.0509,-5.0359,-5.0302,-5.0246,-5.0149,-5.0051,-5.0051,-5.0051,-4.9373,-4.9114,-4.8661,-4.8075,-4.7451,-4.7334,-4.7165,-4.6855,-4.6493,-4.6061,-4.5648,-4.5441,-4.5441,-4.5441,-4.5441,-4.5441,-4.5441,-4.5441,-5.5028,-5.5055,-5.4698,-5.4565,-5.4533,-5.43,-5.4144,-5.3907,-5.3889,-5.3963,-5.3998,-5.3887,-5.411,-5.4091,-5.4741,-5.4983,-5.528,-5.6116,-5.6413,-5.6636,-5.7008,-5.7045,-5.6766,-5.697,-5.6933,-5.6803,-5.6599,-5.6692,-5.6822,-5.6729,-5.6636,-5.6803,-5.6747,-5.6617,-5.6915,-5.7323,-5.7602,-5.7806,-5.8113,-5.8251,-5.8369,-5.8209,-5.8116,-5.8041,-5.8042,-5.8042,-5.8088,-5.7997,-5.7932,-5.8106,-5.7997,-5.7997,-5.8042,-5.7745,-5.7649,-5.7649,-5.7406,-5.7289,-5.7338,-5.7356,-5.7307,-5.7455,-5.7455,-5.7455,-5.7553,-5.7534,-5.7486,-5.7504,-5.7504,-5.7388,-5.722,-5.6897,-5.6222,-5.5365,-5.4829,-5.3816,-5.2455,-5.1675,-5.1436,-5.1296,-5.1192,-5.1192,-5.1192,-5.114,-5.0946,-5.0602,-5.0547,-5.0453,-5.0359,-5.0206,-5.0149,-5.0109,-5.0051,-4.9993,-4.9993,-4.9993,-4.9993,-4.9804,-4.9752,-4.9424,-4.8838,-4.8372,-4.8217,-4.7993,-4.77,-4.7165,-4.6493,-4.6096,-4.5734,-4.5441,-4.5441,-4.5441,-4.5441,-4.5441,-4.5441,-5.507,-5.5548,-5.4683,-5.4284,-5.4284,-5.4214,-5.4144,-5.4108,-5.4108,-5.428,-5.4501,-5.4091,-5.4518,-5.5577,-5.463,-5.4723,-5.5782,-5.6209,-5.6617,-5.7175,-5.6673,-5.6933,-5.723,-5.7769,-5.8103,-5.8085,-5.8159,-5.8141,-5.8103,-5.7992,-5.8178,-5.8103,-5.7955,-5.8159,-5.8159,-5.8118,-5.8438,-5.8433,-5.8437,-5.8344,-5.8275,-5.8105,-5.8015,-5.795,-5.7839,-5.781,-5.7697,-5.7583,-5.7553,-5.7601,-5.7649,-5.7697,-5.7583,-5.7437,-5.7338,-5.7338,-5.7289,-5.7239,-5.7338,-5.7338,-5.7388,-5.7486,-5.7406,-5.7388,-5.7388,-5.7289,-5.7289,-5.7257,-5.6984,-5.6724,-5.6456,-5.6219,-5.5697,-5.5089,-5.456,-5.3642,-5.2265,-5.2024,-5.1688,-5.1015,-5.0731,-5.0657,-5.0415,-5.0397,-5.0246,-5.0149,-5.0166,-5.0109,-5.0051,-5.0011,-5.0011,-5.0011,-5.0011,-5.0011,-5.0011,-5.0011,-5.0011,-5.0011,-5.0011,-4.9976,-4.939,-4.9166,-4.901,-4.8803,-4.8562,-4.7907,-4.7165,-4.6544,-4.6165,-4.582,-4.5475,-4.5441,-4.5441,-4.5441,-4.5441,-5.5228,-5.5476,-5.4426,-5.4072,-5.4161,-5.4072,-5.4018,-5.4018,-5.4018,-5.4168,-5.4277,-5.3943,-5.4333,-5.5057,-5.4296,-5.4556,-5.5559,-5.6153,-5.6747,-5.7268,-5.7082,-5.7342,-5.7973,-5.8438,-5.8698,-5.8698,-5.8661,-5.8698,-5.8698,-5.8698,-5.8624,-5.8698,-5.8698,-5.8503,-5.8529,-5.8511,-5.8406,-5.8319,-5.8249,-5.8097,-5.7941,-5.7895,-5.7726,-5.7649,-5.7534,-5.7504,-5.7504,-5.7455,-5.7437,-5.7504,-5.7504,-5.7486,-5.7486,-5.7338,-5.732,-5.7351,-5.722,-5.7289,-5.7338,-5.7338,-5.7338,-5.7388,-5.7206,-5.7206,-5.7087,-5.6933,-5.6724,-5.6776,-5.6528,-5.6144,-5.5918,-5.5671,-5.5314,-5.5039,-5.4528,-5.3766,-5.274,-5.2114,-5.1437,-5.0585,-5.0285,-5.0246,-5.0051,-5.0149,-5.0062,-5.0138,-5.0155,-5.0138,-5.0068,-5.0011,-5.0011,-5.0011,-5.0011,-5.0011,-5.0011,-5.0011,-5.0011,-5.0011,-5.0011,-5.0011,-4.9769,-4.9735,-4.9786,-4.9459,-4.9097,-4.8665,-4.7958,-4.732,-4.6648,-4.6234,-4.5906,-4.563,-4.5441,-4.5441,-4.5441,-5.5359,-5.534,-5.4242,-5.3944,-5.4072,-5.3907,-5.3813,-5.3813,-5.3813,-5.3981,-5.3961,-5.3887,-5.3998,-5.4017,-5.3924,-5.4333,-5.5336,-5.6395,-5.7342,-5.7713,-5.7751,-5.8029,-5.8531,-5.8661,-5.8698,-5.8698,-5.8698,-5.8698,-5.8698,-5.8638,-5.8614,-5.8614,-5.859,-5.8443,-5.8275,-5.8249,-5.8205,-5.8088,-5.7997,-5.7839,-5.7679,-5.7594,-5.7449,-5.7338,-5.7239,-5.7239,-5.7239,-5.7188,-5.7289,-5.7437,-5.7338,-5.7388,-5.7455,-5.7455,-5.7437,-5.7528,-5.732,-5.7289,-5.7289,-5.717,-5.7069,-5.7102,-5.6724,-5.6671,-5.6724,-5.642,-5.6292,-5.6199,-5.6088,-5.5729,-5.5671,-5.5319,-5.5139,-5.4966,-5.471,-5.4149,-5.3391,-5.2183,-5.145,-5.0742,-5.0783,-5.0794,-5.0562,-5.0528,-5.0338,-5.0218,-5.0252,-5.0287,-5.0269,-5.0183,-5.0269,-5.0149,-5.0166,-5.0028,-5.0011,-5.0011,-5.0011,-5.0011,-5.0011,-5.0011,-5.0011,-4.9976,-4.9924,-4.9838,-4.9493,-4.9079,-4.8614,-4.7976,-4.7355,-4.6786,-4.6268,-4.5906,-4.5665,-4.5475,-4.5441,-5.5231,-5.5375,-5.4242,-5.3832,-5.387,-5.3794,-5.3813,-5.3813,-5.3813,-5.4203,-5.4611,-5.4128,-5.4166,-5.4426,-5.4035,-5.4667,-5.5986,-5.7305,-5.8196,-5.8401,-5.8401,-5.8545,-5.8642,-5.8698,-5.8698,-5.8698,-5.8656,-5.8656,-5.8596,-5.8511,-5.8381,-5.8338,-5.8268,-5.8133,-5.8088,-5.8042,-5.8024,-5.7886,-5.7763,-5.7601,-5.7553,-5.7338,-5.7239,-5.7105,-5.7105,-5.6933,-5.6794,-5.6742,-5.6742,-5.676,-5.6742,-5.6933,-5.7138,-5.7188,-5.7239,-5.7188,-5.7138,-5.7036,-5.7054,-5.6899,-5.6737,-5.6611,-5.6295,-5.6064,-5.6078,-5.595,-5.5804,-5.5804,-5.5555,-5.5199,-5.4728,-5.4728,-5.4683,-5.462,-5.4568,-5.4236,-5.3598,-5.3115,-5.2649,-5.1994,-5.1839,-5.1563,-5.1287,-5.1132,-5.1132,-5.1114,-5.1183,-5.1269,-5.1356,-5.108,-5.0821,-5.0631,-5.0373,-5.0183,-5.0011,-5.0011,-5.0011,-5.0011,-5.0011,-5.0011,-5.0011,-5.0011,-4.9959,-4.989,-4.9804,-4.9528,-4.9045,-4.8545,-4.782,-4.7096,-4.6613,-4.6182,-4.5768,-4.5441,-4.5441,-5.5079,-5.5137,-5.4223,-5.3813,-5.3813,-5.3813,-5.3813,-5.3813,-5.3813,-5.4017,-5.4184,-5.3998,-5.3998,-5.4221,-5.4035,-5.4741,-5.6376,-5.7872,-5.86,-5.8656,-5.8656,-5.8638,-5.8656,-5.8698,-5.8596,-5.8511,-5.8511,-5.8511,-5.8468,-5.8249,-5.816,-5.8115,-5.8042,-5.795,-5.781,-5.7792,-5.7697,-5.7601,-5.7504,-5.7388,-5.7338,-5.7105,-5.6917,-5.6848,-5.6653,-5.642,-5.6292,-5.6255,-5.6365,-5.6546,-5.66,-5.6689,-5.6847,-5.6847,-5.6865,-5.6848,-5.6707,-5.6564,-5.6545,-5.6326,-5.6277,-5.6152,-5.578,-5.5701,-5.5665,-5.5536,-5.5294,-5.5156,-5.5035,-5.4728,-5.4575,-5.4512,-5.4512,-5.4512,-5.4512,-5.4322,-5.408,-5.3977,-5.3649,-5.3184,-5.258,-5.2149,-5.189,-5.1821,-5.1925,-5.2011,-5.208,-5.2218,-5.2373,-5.1908,-5.1425,-5.0856,-5.0511,-5.0183,-5.0011,-5.0011,-5.0011,-5.0011,-5.0011,-5.0011,-5.0011,-5.0011,-5.0011,-4.9976,-4.9873,-4.9786,-4.9545,-4.9045,-4.8217,-4.7458,-4.6993,-4.6493,-4.582,-4.5441,-4.5527,-5.5076,-5.4723,-5.4258,-5.3961,-5.3831,-5.3813,-5.3813,-5.3831,-5.3998,-5.398,-5.3831,-5.3998,-5.4091,-5.4184,-5.4572,-5.5352,-5.6592,-5.7937,-5.8474,-5.8572,-5.8529,-5.8529,-5.859,-5.8572,-5.8468,-5.8294,-5.8123,-5.8186,-5.8186,-5.8024,-5.795,-5.7886,-5.7886,-5.7745,-5.7553,-5.7486,-5.7338,-5.7289,-5.7188,-5.7188,-5.7015,-5.6724,-5.6454,-5.6451,-5.612,-5.5918,-5.5786,-5.5729,-5.5901,-5.6126,-5.6255,-5.6365,-5.642,-5.6347,-5.629,-5.625,-5.6028,-5.5928,-5.5905,-5.5777,-5.5777,-5.5717,-5.5338,-5.5329,-5.5314,-5.4956,-5.4575,-5.4512,-5.4512,-5.4557,-5.4512,-5.4512,-5.4512,-5.4512,-5.4512,-5.4494,-5.4443,-5.4391,-5.4356,-5.3822,-5.3149,-5.277,-5.258,-5.2839,-5.3011,-5.2822,-5.2891,-5.3132,-5.3166,-5.2459,-5.1873,-5.1132,-5.0597,-5.0183,-5.0011,-5.0011,-5.0011,-5.0011,-5.0011,-5.0011,-5.0011,-5.0011,-5.0011,-5.0011,-4.9993,-4.989,-4.9717,-4.9528,-4.8872,-4.8183,-4.7493,-4.6975,-4.6596,-4.6113,-4.5941,-5.5299,-5.3998,-5.4593,-5.4463,-5.3868,-5.3831,-5.3831,-5.3887,-5.45,-5.4444,-5.3868,-5.4518,-5.4758,-5.5092,-5.6218,-5.6802,-5.7254,-5.7901,-5.84,-5.8418,-5.8375,-5.8331,-5.8286,-5.8242,-5.8179,-5.8024,-5.7821,-5.7839,-5.7886,-5.7745,-5.7649,-5.7601,-5.7455,-5.7307,-5.7289,-5.7289,-5.7239,-5.7188,-5.7138,-5.7011,-5.6626,-5.6222,-5.6007,-5.5958,-5.587,-5.5613,-5.5319,-5.5259,-5.5361,-5.542,-5.5437,-5.5613,-5.5844,-5.5555,-5.5437,-5.5496,-5.5613,-5.5879,-5.5724,-5.5455,-5.5255,-5.5238,-5.4922,-5.4665,-5.4735,-5.4735,-5.4512,-5.4512,-5.4512,-5.4512,-5.4512,-5.4512,-5.4512,-5.4512,-5.4512,-5.4512,-5.4512,-5.4512,-5.4512,-5.4477,-5.3804,-5.3563,-5.3373,-5.377,-5.408,-5.3839,-5.3701,-5.3908,-5.3839,-5.3097,-5.2097,-5.1269,-5.0769,-5.0355,-5.0011,-5.0011,-5.0011,-5.0011,-5.0011,-5.0011,-5.0011,-5.0011,-5.0011,-5.0011,-5.0011,-5.0011,-4.989,-4.9683,-4.939,-4.8872,-4.8165,-4.7838,-4.7631,-4.7113,-4.6493,-5.518,-5.385,-5.4184,-5.4147,-5.3887,-5.4296,-5.4221,-5.4035,-5.4648,-5.4535,-5.4014,-5.4608,-5.5143,-5.571,-5.6742,-5.7125,-5.726,-5.7918,-5.8286,-5.8242,-5.8197,-5.8152,-5.8106,-5.8106,-5.7997,-5.7792,-5.7631,-5.7534,-5.7553,-5.7437,-5.7388,-5.7356,-5.7289,-5.7239,-5.7188,-5.7188,-5.7036,-5.6829,-5.6599,-5.6367,-5.6132,-5.5755,-5.5518,-5.5453,-5.5236,-5.5053,-5.4913,-5.479,-5.4974,-5.5139,-5.5199,-5.5259,-5.5437,-5.5319,-5.5139,-5.4852,-5.4974,-5.5096,-5.5035,-5.4913,-5.487,-5.48,-5.4641,-5.4557,-5.4512,-5.4512,-5.4512,-5.4512,-5.4512,-5.4512,-5.4512,-5.4512,-5.4512,-5.4512,-5.4512,-5.4512,-5.4512,-5.4512,-5.4512,-5.4512,-5.4494,-5.4184,-5.396,-5.4149,-5.4339,-5.4218,-5.408,-5.4201,-5.408,-5.3598,-5.2477,-5.1252,-5.089,-5.058,-5.0218,-5.0011,-5.0028,-5.0028,-5.0011,-5.0011,-5.0011,-5.0011,-5.0011,-5.0011,-5.0011,-5.0011,-5.0011,-4.9855,-4.9614,-4.9235,-4.8821,-4.851,-4.82,-4.7734,-4.7165,-5.4689,-5.3849,-5.4201,-5.4164,-5.3868,-5.4424,-5.448,-5.422,-5.4923,-5.4862,-5.46,-5.5155,-5.5775,-5.6245,-5.7002,-5.7438,-5.7376,-5.7857,-5.8033,-5.8042,-5.795,-5.7886,-5.7857,-5.781,-5.7697,-5.7504,-5.7504,-5.7388,-5.7289,-5.7188,-5.7239,-5.7188,-5.7188,-5.7188,-5.7156,-5.7054,-5.6829,-5.642,-5.5957,-5.5773,-5.5645,-5.5249,-5.5052,-5.4925,-5.4747,-5.4512,-5.4512,-5.4512,-5.4745,-5.4913,-5.4957,-5.4957,-5.5018,-5.4974,-5.4852,-5.462,-5.4637,-5.4637,-5.462,-5.4575,-5.4512,-5.4512,-5.4512,-5.4512,-5.4512,-5.4512,-5.4512,-5.4512,-5.4512,-5.4512,-5.4512,-5.4512,-5.4512,-5.4512,-5.4512,-5.4512,-5.4512,-5.4512,-5.4512,-5.4512,-5.4512,-5.4512,-5.4374,-5.4443,-5.4494,-5.4494,-5.4512,-5.4512,-5.4236,-5.3873,-5.3115,-5.1925,-5.1528,-5.1183,-5.0649,-5.0338,-5.0252,-5.0097,-5.008,-5.0011,-5.0011,-5.0011,-5.0011,-5.0011,-5.0011,-5.0011,-5.0011,-4.9942,-4.9855,-4.9579,-4.9304,-4.8993,-4.8631,-4.8234,-4.7786,-5.369,-5.3825,-5.5269,-5.5013,-5.3793,-5.3771,-5.4214,-5.4658,-5.5443,-5.5734,-5.5771,-5.6472,-5.6737,-5.7118,-5.7571,-5.7931,-5.7914,-5.7849,-5.7839,-5.781,-5.7697,-5.7601,-5.7553,-5.7504,-5.7406,-5.7289,-5.7289,-5.7257,-5.7206,-5.7105,-5.7138,-5.7188,-5.7087,-5.7138,-5.6984,-5.6671,-5.6347,-5.5901,-5.5496,-5.5279,-5.515,-5.4844,-5.4672,-5.4609,-5.4546,-5.4512,-5.4512,-5.4512,-5.4512,-5.462,-5.4683,-5.462,-5.4683,-5.4683,-5.4557,-5.4575,-5.4512,-5.4512,-5.4512,-5.4512,-5.4512,-5.4512,-5.4512,-5.4512,-5.4512,-5.4512,-5.4512,-5.4512,-5.4512,-5.4512,-5.4512,-5.4512,-5.4512,-5.4512,-5.4512,-5.4512,-5.4512,-5.4512,-5.4512,-5.4512,-5.4512,-5.4512,-5.4512,-5.4512,-5.4512,-5.4512,-5.4512,-5.4512,-5.4356,-5.4029,-5.3667,-5.2942,-5.2442,-5.1925,-5.1235,-5.0976,-5.0873,-5.0545,-5.0338,-5.0166,-5.0028,-5.0011,-5.0011,-5.0011,-5.0011,-5.0011,-4.9993,-4.9959,-4.9942,-4.9976,-4.9804,-4.9459,-4.9269,-4.9028,-4.8459,-5.4133,-5.4252,-5.4861,-5.4574,-5.3753,-5.4174,-5.4226,-5.426,-5.5346,-5.619,-5.6583,-5.6853,-5.7151,-5.7565,-5.7758,-5.795,-5.7839,-5.7745,-5.7649,-5.7553,-5.7504,-5.7406,-5.7289,-5.7289,-5.7257,-5.7206,-5.7188,-5.7188,-5.7188,-5.6933,-5.6847,-5.6847,-5.6776,-5.6829,-5.6635,-5.6182,-5.5711,-5.5437,-5.5035,-5.4809,-5.4747,-5.4624,-5.4512,-5.4512,-5.4512,-5.4512,-5.4512,-5.4512,-5.4512,-5.4512,-5.4512,-5.4512,-5.4512,-5.4512,-5.4512,-5.4512,-5.4512,-5.4512,-5.4512,-5.4512,-5.4512,-5.4512,-5.4512,-5.4512,-5.4512,-5.4512,-5.4512,-5.4512,-5.4512,-5.4512,-5.4512,-5.4512,-5.4512,-5.4512,-5.4512,-5.4512,-5.4512,-5.4512,-5.4512,-5.4512,-5.4512,-5.4512,-5.4512,-5.4512,-5.4512,-5.4512,-5.4512,-5.4494,-5.4356,-5.4253,-5.3925,-5.3649,-5.3184,-5.2649,-5.1977,-5.1701,-5.1511,-5.1097,-5.0666,-5.0493,-5.0321,-5.0028,-5.0011,-5.0011,-5.0011,-5.0011,-5.0011,-5.0011,-4.9993,-4.9993,-4.9993,-4.9907,-4.9786,-4.9683,-4.9166,-5.4099,-5.4147,-5.4123,-5.3935,-5.3746,-5.4367,-5.4474,-5.4451,-5.557,-5.6533,-5.7198,-5.7143,-5.7382,-5.7794,-5.781,-5.7745,-5.7679,-5.7583,-5.7504,-5.7455,-5.7356,-5.7307,-5.7188,-5.7087,-5.7003,-5.7003,-5.6829,-5.6776,-5.6706,-5.651,-5.642,-5.6365,-5.6237,-5.6237,-5.6182,-5.5653,-5.5139,-5.4913,-5.4745,-5.4512,-5.4494,-5.4512,-5.4512,-5.4512,-5.4512,-5.4512,-5.4512,-5.4512,-5.4512,-5.4512,-5.4512,-5.4512,-5.4512,-5.4512,-5.4512,-5.4512,-5.4512,-5.4512,-5.4512,-5.4512,-5.4512,-5.4512,-5.4512,-5.4512,-5.4512,-5.4512,-5.4512,-5.4512,-5.4512,-5.4512,-5.4512,-5.4512,-5.4512,-5.4512,-5.4512,-5.4512,-5.4512,-5.4512,-5.4512,-5.4512,-5.4512,-5.4512,-5.4512,-5.4512,-5.4512,-5.4512,-5.4512,-5.4512,-5.4477,-5.4374,-5.4253,-5.4029,-5.3804,-5.327,-5.2735,-5.2563,-5.2321,-5.1752,-5.1356,-5.1011,-5.0769,-5.0407,-5.0062,-5.0011,-5.0011,-5.0011,-5.0011,-5.0011,-5.0011,-4.9993,-5.0011,-5.0011,-4.9976,-4.9821,-4.9717,-5.3285,-5.3295,-5.3285,-5.3369,-5.3533,-5.4188,-5.4846,-5.5312,-5.6208,-5.6978,-5.7619,-5.7664,-5.7682,-5.7792,-5.7649,-5.7601,-5.7553,-5.7437,-5.7388,-5.7356,-5.7307,-5.7206,-5.7087,-5.6881,-5.6742,-5.6546,-5.6365,-5.6182,-5.607,-5.5957,-5.5901,-5.5786,-5.5613,-5.5496,-5.5786,-5.5437,-5.4957,-5.4557,-5.4494,-5.4512,-5.4512,-5.4512,-5.4512,-5.4512,-5.4512,-5.4512,-5.4512,-5.4512,-5.4512,-5.4512,-5.4512,-5.4512,-5.4512,-5.4512,-5.4512,-5.4512,-5.4512,-5.4512,-5.4512,-5.4512,-5.4563,-5.4529,-5.4512,-5.4512,-5.4512,-5.4512,-5.4512,-5.4512,-5.4512,-5.4512,-5.4512,-5.4512,-5.4512,-5.4512,-5.4512,-5.4512,-5.4512,-5.4512,-5.4512,-5.4512,-5.4512,-5.4512,-5.4512,-5.4512,-5.4512,-5.4512,-5.4512,-5.4512,-5.4512,-5.4477,-5.4391,-5.4322,-5.4149,-5.3925,-5.3494,-5.3425,-5.3132,-5.2528,-5.1942,-5.1511,-5.1097,-5.0683,-5.039,-5.0114,-5.0011,-5.0011,-5.0011,-5.0011,-5.0011,-5.0011,-5.0011,-5.0011,-5.0011,-4.9976,-4.9855,-5.3206,-5.323,-5.3085,-5.3085,-5.3188,-5.3402,-5.3946,-5.4755,-5.5907,-5.6948,-5.7617,-5.7697,-5.7649,-5.7649,-5.7504,-5.7455,-5.7437,-5.7338,-5.7239,-5.7239,-5.7138,-5.7188,-5.7036,-5.6742,-5.6546,-5.6492,-5.6144,-5.5861,-5.5918,-5.5613,-5.5437,-5.5319,-5.514,-5.4852,-5.4913,-5.4807,-5.462,-5.4512,-5.4512,-5.4512,-5.4512,-5.4512,-5.4512,-5.4512,-5.4512,-5.4512,-5.4512,-5.4512,-5.4512,-5.4512,-5.4512,-5.4512,-5.4512,-5.4512,-5.4512,-5.4512,-5.4512,-5.4512,-5.4632,-5.4816,-5.492,-5.4736,-5.4649,-5.4684,-5.4529,-5.4512,-5.4512,-5.4512,-5.4512,-5.4512,-5.4512,-5.4512,-5.4512,-5.4512,-5.4512,-5.4512,-5.4512,-5.4512,-5.4512,-5.4512,-5.4512,-5.4512,-5.4512,-5.4512,-5.4512,-5.4512,-5.4512,-5.4512,-5.4512,-5.4512,-5.446,-5.4477,-5.4391,-5.4339,-5.4201,-5.3977,-5.3718,-5.3201,-5.2459,-5.1787,-5.1373,-5.0994,-5.0476,-5.0097,-5.0045,-5.0011,-5.0011,-5.0011,-5.0011,-5.0011,-5.0011,-5.0011,-5.0011,-5.0011,-4.9976,-5.3103,-5.306,-5.2955,-5.2893,-5.293,-5.3186,-5.3744,-5.4474,-5.5512,-5.6372,-5.6773,-5.6951,-5.7097,-5.7073,-5.7112,-5.7156,-5.7087,-5.6811,-5.6706,-5.6758,-5.6706,-5.6653,-5.6564,-5.6402,-5.6014,-5.6014,-5.5729,-5.5396,-5.5336,-5.5079,-5.5148,-5.5234,-5.5063,-5.5087,-5.4954,-5.4816,-5.4512,-5.4512,-5.4512,-5.4512,-5.4512,-5.4512,-5.4512,-5.4512,-5.4512,-5.4512,-5.4512,-5.4512,-5.4512,-5.4512,-5.4512,-5.4512,-5.4512,-5.4512,-5.4512,-5.4512,-5.4787,-5.4989,-5.5461,-5.5698,-5.5808,-5.5506,-5.5327,-5.5167,-5.4994,-5.4977,-5.4736,-5.4632,-5.4546,-5.4546,-5.4563,-5.4563,-5.4563,-5.4581,-5.4529,-5.4529,-5.4512,-5.4512,-5.4512,-5.4512,-5.4512,-5.4512,-5.4512,-5.4512,-5.4512,-5.4512,-5.4512,-5.4512,-5.4512,-5.4512,-5.4512,-5.4512,-5.4512,-5.4443,-5.4425,-5.4391,-5.4115,-5.3822,-5.3149,-5.2425,-5.1675,-5.1296,-5.0659,-5.0131,-5.0062,-5.0011,-5.0011,-5.0011,-5.0011,-5.0011,-5.0011,-5.0011,-5.0011,-5.0011,-5.0011,-5.2912,-5.2806,-5.2824,-5.2717,-5.2763,-5.3435,-5.4209,-5.4898,-5.5101,-5.5174,-5.5134,-5.6007,-5.6236,-5.6296,-5.6487,-5.6564,-5.6564,-5.6199,-5.607,-5.6014,-5.6126,-5.607,-5.5901,-5.5595,-5.5537,-5.5199,-5.4913,-5.4807,-5.4557,-5.462,-5.4966,-5.53,-5.5248,-5.5184,-5.5029,-5.4805,-5.4529,-5.4512,-5.4512,-5.4512,-5.4512,-5.4512,-5.4512,-5.4512,-5.4512,-5.4512,-5.4512,-5.4512,-5.4512,-5.4512,-5.4512,-5.4512,-5.4512,-5.4512,-5.4512,-5.4753,-5.527,-5.5899,-5.6391,-5.6594,-5.6781,-5.6623,-5.6656,-5.6308,-5.577,-5.5374,-5.5081,-5.4787,-5.4649,-5.4649,-5.4649,-5.4667,-5.4701,-5.4649,-5.4563,-5.4546,-5.4512,-5.4512,-5.4512,-5.4512,-5.4512,-5.4512,-5.4512,-5.4512,-5.4512,-5.4512,-5.4512,-5.4512,-5.4512,-5.4512,-5.4512,-5.4512,-5.4512,-5.4512,-5.4512,-5.4512,-5.4443,-5.4115,-5.3925,-5.3287,-5.2485,-5.1641,-5.0986,-5.0528,-5.0166,-5.0028,-5.0011,-5.0011,-5.0011,-5.0011,-5.0011,-5.0011,-5.0011,-5.0011,-5.0011,-5.285,-5.2806,-5.2698,-5.2654,-5.2645,-5.2835,-5.3416,-5.4208,-5.4742,-5.4996,-5.5014,-5.5451,-5.5512,-5.568,-5.5954,-5.6037,-5.5996,-5.5975,-5.5975,-5.5861,-5.5746,-5.5861,-5.5729,-5.5378,-5.5259,-5.5018,-5.479,-5.4512,-5.4529,-5.4529,-5.4632,-5.477,-5.5132,-5.5029,-5.4891,-5.4649,-5.4581,-5.4512,-5.4512,-5.4512,-5.4512,-5.4512,-5.4512,-5.4512,-5.4512,-5.4512,-5.4512,-5.4512,-5.4512,-5.4512,-5.4512,-5.4512,-5.4512,-5.4529,-5.4632,-5.5339,-5.596,-5.6564,-5.6854,-5.7278,-5.7541,-5.7516,-5.7529,-5.6785,-5.6111,-5.5615,-5.5357,-5.5046,-5.5115,-5.527,-5.5236,-5.5201,-5.515,-5.5063,-5.4856,-5.4529,-5.4512,-5.4512,-5.4512,-5.4512,-5.4512,-5.4512,-5.4512,-5.4512,-5.4512,-5.4512,-5.4512,-5.4512,-5.4512,-5.4512,-5.4512,-5.4512,-5.4512,-5.4512,-5.4512,-5.4512,-5.4512,-5.4425,-5.4201,-5.3908,-5.3245,-5.2399,-5.1494,-5.0804,-5.0269,-5.0062,-5.0011,-5.0011,-5.0011,-5.0011,-5.0011,-5.0011,-5.0011,-5.0011,-5.0011,-5.2717,-5.269,-5.2581,-5.2581,-5.2554,-5.2526,-5.2788,-5.3146,-5.3682,-5.3911,-5.3803,-5.4191,-5.4364,-5.426,-5.4765,-5.512,-5.5155,-5.5255,-5.5277,-5.5277,-5.5378,-5.5259,-5.5217,-5.5096,-5.4913,-5.479,-5.4683,-5.4512,-5.4615,-5.5167,-5.5408,-5.5063,-5.515,-5.5132,-5.5081,-5.5029,-5.4805,-5.4632,-5.4512,-5.4512,-5.4512,-5.4512,-5.4512,-5.4512,-5.4512,-5.4512,-5.4512,-5.4512,-5.4529,-5.4512,-5.4512,-5.4701,-5.4925,-5.5236,-5.5788,-5.6477,-5.6909,-5.746,-5.7805,-5.8114,-5.8116,-5.7995,-5.7872,-5.7199,-5.6646,-5.6167,-5.5701,-5.5339,-5.5753,-5.6064,-5.5943,-5.5839,-5.5701,-5.5581,-5.5081,-5.4546,-5.4512,-5.4512,-5.4512,-5.4512,-5.4512,-5.4512,-5.4512,-5.4512,-5.4512,-5.4512,-5.4512,-5.4512,-5.4512,-5.4512,-5.4512,-5.4512,-5.4512,-5.4512,-5.4512,-5.4512,-5.4512,-5.4477,-5.4356,-5.4011,-5.3687,-5.2814,-5.1701,-5.0925,-5.0252,-5.0114,-5.0028,-5.0011,-5.0011,-5.0011,-5.0011,-5.0011,-5.0011,-5.0011,-5.0011,-5.249,-5.2387,-5.2434,-5.2434,-5.2434,-5.2415,-5.218,-5.1799,-5.2288,-5.2198,-5.2068,-5.2595,-5.289,-5.3119,-5.38,-5.4308,-5.4486,-5.4661,-5.4745,-5.4512,-5.4683,-5.4745,-5.4683,-5.4512,-5.462,-5.4575,-5.4512,-5.4529,-5.4874,-5.5253,-5.5529,-5.5581,-5.5908,-5.5822,-5.546,-5.5443,-5.5219,-5.4891,-5.477,-5.4736,-5.4546,-5.4512,-5.4512,-5.4512,-5.4512,-5.4512,-5.4529,-5.4563,-5.4598,-5.4615,-5.4822,-5.5184,-5.5667,-5.6391,-5.7116,-5.7547,-5.7805,-5.8185,-5.853,-5.8719,-5.8478,-5.8252,-5.7953,-5.7559,-5.7095,-5.6615,-5.6133,-5.6029,-5.6408,-5.6788,-5.6788,-5.6615,-5.646,-5.6236,-5.5839,-5.546,-5.5305,-5.5115,-5.477,-5.4701,-5.4512,-5.4512,-5.4512,-5.4512,-5.4512,-5.4512,-5.4512,-5.4512,-5.4512,-5.4512,-5.4512,-5.4512,-5.4512,-5.4512,-5.4512,-5.4512,-5.4512,-5.4477,-5.4408,-5.4167,-5.378,-5.2839,-5.1839,-5.1149,-5.0528,-5.02,-5.0062,-5.0045,-5.0011,-5.0011,-5.0011,-5.0011,-5.0011,-5.0011,-5.0011,-5.1817,-5.1536,-5.1817,-5.1964,-5.1964,-5.1964,-5.1719,-5.1365,-5.1467,-5.1467,-5.1438,-5.1829,-5.2263,-5.2621,-5.3175,-5.3706,-5.4216,-5.4378,-5.446,-5.4512,-5.4512,-5.4512,-5.4512,-5.4512,-5.4512,-5.4512,-5.4512,-5.4512,-5.4684,-5.496,-5.5081,-5.4839,-5.5305,-5.5477,-5.5546,-5.5563,-5.5546,-5.5098,-5.5201,-5.4908,-5.4546,-5.4512,-5.4512,-5.4512,-5.4512,-5.4546,-5.4701,-5.5063,-5.5219,-5.5391,-5.5995,-5.6336,-5.6539,-5.7285,-5.765,-5.7976,-5.8374,-5.8719,-5.8892,-5.8995,-5.8771,-5.8563,-5.8267,-5.7907,-5.7544,-5.7064,-5.684,-5.6857,-5.7047,-5.7409,-5.7581,-5.7391,-5.7167,-5.6891,-5.6581,-5.634,-5.6081,-5.5581,-5.5081,-5.4787,-5.4563,-5.4512,-5.4512,-5.4512,-5.4512,-5.4512,-5.4512,-5.4512,-5.4512,-5.4512,-5.4512,-5.4512,-5.4512,-5.4512,-5.4512,-5.4512,-5.4512,-5.4512,-5.4477,-5.4201,-5.3856,-5.3028,-5.2149,-5.1459,-5.0856,-5.0562,-5.0269,-5.0045,-5.0011,-5.0011,-5.0011,-5.0011,-5.0011,-5.0011,-5.0011,-5.1416,-5.1262,-5.1449,-5.1551,-5.1551,-5.1551,-5.1296,-5.0999,-5.0946,-5.0803,-5.0729,-5.1057,-5.1398,-5.1888,-5.2477,-5.3132,-5.3736,-5.4253,-5.4425,-5.4512,-5.4512,-5.4512,-5.4512,-5.4512,-5.4512,-5.4512,-5.4512,-5.4512,-5.4529,-5.4925,-5.5063,-5.4736,-5.4943,-5.5357,-5.5477,-5.5632,-5.5753,-5.5132,-5.546,-5.5184,-5.4598,-5.4512,-5.4512,-5.4512,-5.4529,-5.4649,-5.5063,-5.5477,-5.5753,-5.6219,-5.684,-5.715,-5.7458,-5.7978,-5.8323,-5.8495,-5.8737,-5.9012,-5.9012,-5.8978,-5.8875,-5.858,-5.8255,-5.7876,-5.7838,-5.7409,-5.7409,-5.7478,-5.7995,-5.8374,-5.8202,-5.803,-5.7736,-5.7443,-5.6891,-5.646,-5.6081,-5.5615,-5.5098,-5.4649,-5.4512,-5.4512,-5.4512,-5.4512,-5.4512,-5.4512,-5.4512,-5.4512,-5.4512,-5.4512,-5.4512,-5.4512,-5.4512,-5.4512,-5.4512,-5.4512,-5.4512,-5.4512,-5.4512,-5.4149,-5.3753,-5.3166,-5.2494,-5.1925,-5.139,-5.0942,-5.0649,-5.0338,-5.0062,-5.0011,-5.0011,-5.0011,-5.0028,-5.0131,-5.0287,-5.1105,-5.1105,-5.1105,-5.1105,-5.1105,-5.1105,-5.0893,-5.0547,-5.0547,-5.0359,-5.0166,-5.0432,-5.0372,-5.0869,-5.1494,-5.2097,-5.2908,-5.408,-5.4443,-5.4512,-5.4512,-5.4512,-5.4512,-5.4512,-5.4512,-5.4512,-5.4512,-5.4512,-5.4512,-5.4874,-5.5029,-5.4977,-5.5443,-5.6046,-5.5563,-5.577,-5.6202,-5.5408,-5.5236,-5.5132,-5.4805,-5.4512,-5.4512,-5.4512,-5.4603,-5.4965,-5.5443,-5.596,-5.6305,-5.6891,-5.7598,-5.7909,-5.8116,-5.853,-5.8719,-5.8909,-5.8892,-5.9012,-5.9012,-5.8995,-5.8668,-5.8323,-5.8101,-5.8032,-5.803,-5.8012,-5.8012,-5.8236,-5.8737,-5.8875,-5.8702,-5.8564,-5.8254,-5.8012,-5.7391,-5.684,-5.6391,-5.596,-5.546,-5.4908,-5.4684,-5.4684,-5.4512,-5.4512,-5.4512,-5.4512,-5.4512,-5.4512,-5.4512,-5.4512,-5.4512,-5.4512,-5.4512,-5.4512,-5.4512,-5.4512,-5.4512,-5.4512,-5.446,-5.408,-5.377,-5.3563,-5.3166,-5.2546,-5.2028,-5.1632,-5.1063,-5.0631,-5.0373,-5.0166,-5.0011,-5.0062,-5.0407,-5.0528,-5.0735,-5.0694,-5.0749,-5.0694,-5.0712,-5.0694,-5.0694,-5.0492,-5.0149,-5.0092,-5.0051,-5.0051,-5.0172,-5.0621,-5.1787,-5.1994,-5.2597,-5.3598,-5.4356,-5.4443,-5.4512,-5.4512,-5.4512,-5.4512,-5.4512,-5.4512,-5.4512,-5.4512,-5.4512,-5.4581,-5.4736,-5.5012,-5.5322,-5.5529,-5.6081,-5.6529,-5.6615,-5.6357,-5.5615,-5.5236,-5.5167,-5.4805,-5.4581,-5.4512,-5.4689,-5.509,-5.5331,-5.5843,-5.6874,-5.7374,-5.7874,-5.8288,-5.8599,-5.8754,-5.8857,-5.8961,-5.9012,-5.9012,-5.9012,-5.9012,-5.9012,-5.8685,-5.8719,-5.8634,-5.8651,-5.8633,-5.865,-5.865,-5.865,-5.8978,-5.8978,-5.8875,-5.8875,-5.8685,-5.8685,-5.8323,-5.7892,-5.7443,-5.7098,-5.6702,-5.5943,-5.5288,-5.4977,-5.4512,-5.4512,-5.4512,-5.4512,-5.4512,-5.4512,-5.4512,-5.4512,-5.4512,-5.4512,-5.4512,-5.4512,-5.4512,-5.4512,-5.4512,-5.4512,-5.4477,-5.427,-5.4201,-5.4305,-5.3891,-5.327,-5.2856,-5.2494,-5.1873,-5.1235,-5.0787,-5.0545,-5.0149,-5.0131,-5.058,-5.1028,-5.1321]}]]